GFSSE_850_spd_000.txt.gz
Wind_Speed
10 13 16 12 11 9 7 5 2 0 2 3 3 5 8 9 9 7 5 5 7 9 12 7 6 3 4 5 6 6 9 13 14 15 15 13 11 9 11 13 11 12 10
9 14 18 13 13 11 8 6 3 1 3 2 5 7 4 6 9 4 3 4 6 6 6 5 5 4 7 6 6 7 9 11 12 11 13 8 4 3 2 4 8 6 7
9 15 18 17 13 11 8 6 3 2 3 1 4 11 8 5 5 3 1 1 1 4 5 4 1 5 5 7 8 8 8 9 9 8 9 4 3 3 1 3 7 6 6
11 13 16 16 13 10 8 6 4 3 2 1 4 6 4 6 5 5 6 2 7 5 5 6 4 2 1 3 4 5 5 5 7 6 5 4 3 3 4 6 7 8 7
13 12 13 16 12 10 8 7 4 3 3 2 6 7 6 6 4 4 6 6 7 8 7 8 7 6 6 4 3 3 3 4 4 4 4 5 5 5 5 4 6 10 9
14 13 12 13 13 12 9 7 4 3 2 3 7 9 9 5 3 3 1 2 4 5 7 7 8 8 7 7 7 5 4 4 5 5 6 6 7 6 7 7 8 11 12
15 14 12 12 12 12 10 7 5 3 3 4 7 10 9 6 3 5 3 2 3 4 5 6 7 7 6 5 5 4 5 6 6 6 6 7 7 8 8 8 9 10 12
11 12 11 10 10 9 9 7 5 4 3 4 7 9 9 9 7 6 5 4 4 3 4 5 5 5 5 5 5 6 6 7 7 8 8 7 7 7 7 8 10 11 10
11 11 10 9 9 10 10 8 6 5 4 4 4 5 7 9 9 7 5 4 4 2 4 5 4 5 6 6 7 7 8 8 9 9 9 8 8 9 10 10 11 13 13
10 11 10 10 10 10 11 10 7 7 7 4 3 3 4 6 8 8 5 3 2 1 1 3 6 7 7 8 9 11 12 13 14 13 12 10 9 10 11 12 13 14 14
15 14 13 12 11 12 11 11 9 8 6 5 5 3 4 6 6 5 4 4 2 1 1 2 4 5 8 11 12 13 13 13 13 12 11 10 11 11 11 11 13 14 17
16 17 16 14 13 13 14 13 11 10 9 7 6 4 5 7 6 5 4 4 3 2 4 4 8 10 11 13 13 13 15 15 15 15 15 14 14 15 14 13 14 15 16
11 14 16 16 14 14 15 14 13 11 9 8 7 7 6 5 5 4 4 3 3 4 5 7 10 12 14 16 16 17 18 18 19 20 19 18 18 17 16 16 15 14 17
14 15 15 17 17 15 15 15 14 12 10 9 8 8 5 5 5 4 3 1 3 4 7 9 12 15 18 18 17 18 20 22 23 23 21 20 18 17 16 15 9 10 13
18 19 19 18 18 17 16 15 14 12 9 9 9 8 7 6 5 3 3 2 4 8 11 12 15 16 16 18 20 22 24 24 22 21 18 16 15 13 8 7 7 8 7
22 21 22 22 21 19 18 16 14 13 11 11 9 9 7 5 5 4 4 4 8 11 13 13 16 19 22 23 24 23 21 19 16 13 11 10 8 7 8 8 9 8 7
29 26 25 23 24 22 20 18 16 15 13 11 9 9 7 6 5 3 4 8 10 9 12 16 20 22 23 22 19 16 14 13 12 9 8 8 8 9 10 10 12 12 13
23 27 27 22 24 23 22 21 20 15 12 12 10 10 8 6 5 5 6 7 7 11 15 18 20 20 19 17 14 11 13 12 11 9 8 10 11 12 12 13 14 15 16
22 20 24 23 25 25 24 24 19 15 15 13 11 11 8 6 6 7 5 6 9 12 15 17 17 17 17 15 14 11 12 10 10 10 10 8 10 11 13 14 14 17 19
22 21 24 24 26 25 24 23 19 17 16 15 14 12 10 7 7 5 4 7 10 13 15 15 15 16 18 19 17 15 8 8 9 11 17 12 16 14 21 18 18 22 21
23 21 22 25 28 28 27 26 22 18 18 16 16 14 12 10 8 3 4 8 12 16 19 19 17 16 18 22 23 20 9 4 12 13 9 17 20 18 21 21 27 25 27
23 22 21 25 30 30 29 24 19 17 17 16 16 15 14 12 6 2 4 9 15 18 19 19 18 18 19 23 23 19 11 10 2 11 23 19 24 19 27 23 27 28 28
26 24 23 26 31 32 28 25 21 18 19 21 20 20 17 12 6 2 6 11 14 18 19 19 19 19 18 17 19 15 9 7 31 8 27 17 31 28 34 32 32 31 30
29 25 23 26 32 30 26 24 21 22 23 22 23 21 17 12 6 3 7 10 14 17 18 18 18 18 18 18 17 16 15 16 13 18 17 38 34 41 40 39 37 38 34
29 26 23 24 29 29 29 22 23 21 21 25 25 21 16 11 5 5 7 11 14 16 17 17 17 17 18 19 20 21 20 19 18 20 35 41 45 44 42 44 41 36 34
28 23 22 23 27 29 27 24 24 24 25 27 26 22 16 10 6 6 8 11 14 16 17 17 17 17 19 20 20 20 20 21 22 22 33 43 43 44 48 41 40 34 33

GFSSE_850_spd_003.txt.gz
Wind_Speed
10 13 16 12 11 9 6 5 4 4 3 2 1 5 6 6 5 5 5 5 5 6 8 7 3 6 6 7 6 4 4 9 10 11 12 11 7 5 7 8 12 12 10
9 13 15 12 11 9 6 4 3 3 4 5 9 7 9 9 7 3 3 3 5 4 3 4 5 7 8 6 5 7 7 8 9 10 10 8 3 3 2 5 2 9 7
11 13 18 15 13 9 5 4 2 3 3 5 9 4 6 8 6 3 1 3 2 3 4 3 3 4 5 8 8 8 9 8 8 7 6 3 1 1 2 4 3 8 5
12 13 16 18 14 10 6 4 2 2 3 4 6 8 9 10 6 7 6 6 9 5 6 6 6 5 3 1 3 4 5 4 5 4 4 3 3 3 2 3 5 7 4
13 13 15 16 14 9 6 5 2 1 2 3 8 9 9 8 8 9 6 8 8 8 8 8 8 7 6 5 3 3 2 2 2 3 3 3 3 4 4 5 4 7 10
13 13 15 16 13 9 9 5 3 1 2 3 7 11 9 7 5 4 2 3 5 6 7 7 7 6 5 4 3 1 0 1 0 1 2 3 3 4 5 6 7 10 11
15 15 14 16 12 11 10 8 5 1 1 4 9 13 9 6 3 6 3 3 5 4 4 5 5 5 4 3 3 3 4 6 5 5 5 5 6 7 7 8 9 10 10
13 15 15 15 14 13 10 9 5 2 3 5 9 11 11 8 5 8 7 2 5 4 4 5 5 6 6 6 6 5 5 7 8 8 8 7 8 9 9 8 10 11 12
13 13 13 14 14 13 12 10 5 3 3 5 7 9 10 11 7 6 6 3 3 3 3 4 5 6 6 7 8 9 11 11 12 13 13 12 12 12 11 11 12 14 16
13 14 12 12 12 13 13 10 6 4 5 4 4 5 8 10 10 8 7 6 6 3 1 2 4 5 7 10 12 13 14 13 12 13 11 10 11 14 13 12 14 16 17
14 14 14 13 12 13 13 11 8 6 6 4 4 4 6 8 9 9 8 6 4 2 2 3 5 8 10 12 13 13 13 13 12 12 12 12 12 12 12 14 15 16 16
15 16 16 15 13 13 13 12 9 7 8 6 4 4 5 8 9 8 6 5 3 3 5 6 8 11 11 13 14 15 15 15 15 16 16 16 15 15 16 15 14 15 17
10 13 16 16 14 12 13 13 11 9 9 7 6 7 6 7 7 6 4 4 3 5 6 9 9 12 15 16 18 17 17 19 20 21 21 19 17 16 14 12 11 11 13
10 10 11 14 16 13 12 14 11 10 9 7 7 9 7 6 6 5 4 5 2 4 8 10 12 15 17 17 19 20 21 22 22 22 21 20 17 13 6 5 8 11 11
14 11 13 13 15 16 15 15 13 11 10 8 9 10 8 7 5 5 5 2 4 6 10 13 14 17 19 19 21 21 22 21 19 17 14 13 10 10 10 11 11 8 4
16 16 16 16 17 18 17 16 13 13 12 10 10 10 8 7 5 5 5 5 7 9 12 13 16 19 21 21 20 19 17 16 14 11 9 8 7 8 9 10 10 10 11
18 19 19 20 20 21 21 17 17 15 13 11 9 10 10 8 8 8 6 7 8 9 12 16 19 21 20 18 16 15 13 13 12 9 7 7 8 9 11 12 13 14 15
19 21 23 24 22 22 24 21 18 16 14 11 12 10 12 9 8 7 8 7 6 9 14 18 19 19 18 15 11 11 11 11 10 8 5 5 7 9 10 12 14 15 16
24 25 25 25 23 20 25 23 19 18 16 15 14 15 12 9 9 9 7 5 7 11 14 16 17 16 15 12 11 11 11 9 8 9 8 8 9 10 13 14 15 17 19
24 24 25 24 23 21 25 25 22 20 19 18 17 17 14 9 7 8 6 4 6 10 13 14 15 16 17 17 14 13 6 5 5 8 10 14 15 16 17 19 20 23 24
21 21 25 26 25 24 28 29 24 22 21 22 22 19 15 11 10 9 4 3 7 11 14 16 17 17 18 19 18 12 7 2 7 7 7 18 14 16 17 22 25 27 27
21 23 25 27 25 26 29 31 26 23 24 25 24 20 16 14 13 8 3 5 9 14 16 17 18 19 20 20 20 13 8 6 3 19 11 19 11 19 19 24 24 25 26
26 24 25 25 26 28 30 33 25 23 25 27 24 21 19 17 12 7 3 6 10 13 16 19 19 18 17 18 19 14 7 4 25 5 20 10 26 26 30 30 29 31 27
26 25 26 23 24 28 31 31 24 24 26 26 24 23 22 18 12 7 5 7 10 14 17 19 20 19 18 16 17 16 14 13 8 12 12 27 29 35 35 32 36 29 31
28 28 28 23 24 27 28 26 25 24 26 23 28 26 25 19 13 7 5 7 10 14 17 19 19 18 18 18 18 17 15 16 15 18 24 33 38 36 34 41 29 35 31
30 30 27 25 24 25 31 27 26 21 24 28 29 29 24 18 12 7 6 8 11 14 17 19 19 18 18 18 18 17 18 17 19 20 20 30 29 26 43 28 37 31 31

GFSSE_850_spd_006.txt.gz
Wind_Speed
11 15 16 15 12 10 9 7 5 5 3 1 3 6 5 4 3 3 4 5 5 7 9 8 3 3 6 7 5 2 4 7 8 10 11 11 8 6 7 8 9 6 13
11 15 15 14 11 10 8 6 4 5 5 8 10 8 9 7 4 4 4 5 5 6 5 4 4 8 5 5 5 5 5 8 10 10 10 9 3 2 2 3 3 6 7
15 16 15 13 13 9 6 5 4 4 6 10 7 5 11 10 6 1 1 2 1 2 3 3 3 5 9 9 7 8 9 11 10 8 6 4 4 4 1 2 3 6 6
15 16 15 15 13 9 6 6 4 3 6 8 9 6 13 12 9 7 6 7 7 6 6 5 5 3 3 4 4 5 5 5 5 5 4 3 3 5 3 4 5 7 4
17 15 16 15 13 8 6 6 3 3 5 8 15 16 12 12 10 8 5 7 7 7 7 7 6 6 5 3 1 3 4 4 3 4 5 4 3 7 5 6 5 6 8
16 16 15 16 12 8 7 6 5 3 5 8 11 14 13 8 7 4 3 6 6 5 5 5 5 5 4 4 4 5 5 5 4 5 6 7 6 7 7 8 8 9 10
16 16 15 15 13 10 9 5 4 3 5 8 13 15 9 7 6 8 3 2 4 4 4 5 5 6 6 6 6 6 7 7 7 7 8 9 9 10 9 9 10 10 11
15 16 15 16 13 11 10 8 7 2 5 9 13 13 10 9 4 5 6 1 2 4 4 5 5 6 6 7 8 8 8 9 8 9 10 11 13 13 13 12 12 12 12
15 14 13 15 15 13 11 10 7 4 5 9 12 12 10 9 4 4 6 3 3 3 3 4 4 5 6 7 10 12 13 13 11 9 12 10 14 15 14 12 13 14 16
16 15 13 13 13 14 13 11 7 5 6 7 10 10 11 10 8 6 6 6 5 4 3 2 4 7 8 10 12 12 12 11 9 10 8 9 11 12 12 12 14 16 18
16 16 14 12 13 15 14 13 9 7 7 6 7 7 9 11 11 9 8 7 6 5 4 5 6 9 10 12 13 14 13 12 12 11 10 13 13 14 14 14 14 15 16
16 17 18 15 14 14 15 14 11 9 8 7 6 6 8 9 10 10 8 6 6 5 6 8 8 10 11 14 16 15 13 14 13 15 14 16 16 14 15 14 13 13 14
14 15 17 17 16 15 14 15 14 11 11 9 8 8 7 9 9 8 5 4 4 6 8 9 10 12 15 16 16 17 18 18 18 16 18 18 16 13 9 8 10 11 11
15 15 14 16 17 17 15 15 14 12 12 11 9 10 10 9 9 7 5 6 6 6 7 8 12 14 17 18 20 20 21 20 18 15 14 14 10 10 11 12 12 10 11
16 15 15 14 16 17 17 16 15 13 13 12 11 12 11 9 8 8 7 5 5 7 9 11 13 16 18 20 21 21 20 17 13 10 7 8 7 7 9 10 9 11 11
16 17 16 16 15 16 18 17 16 15 15 13 12 14 12 9 9 6 7 5 7 8 10 12 16 19 20 21 20 19 17 14 11 8 6 8 6 7 9 11 12 12 12
16 16 17 18 20 19 21 20 18 17 17 14 13 13 12 9 8 7 8 6 8 8 10 15 18 19 19 18 16 15 14 11 10 7 6 6 7 8 11 12 13 14 15
17 17 17 18 20 21 23 24 22 19 18 14 15 12 11 11 10 8 8 8 8 7 11 15 16 17 17 15 13 12 13 12 8 6 5 4 5 8 10 11 13 15 16
19 17 21 19 19 21 23 28 25 21 21 18 15 14 14 14 10 10 10 8 5 6 10 13 16 16 15 13 12 12 11 6 6 5 5 7 11 14 14 16 17 19 20
25 21 24 26 23 22 26 29 30 26 22 20 19 18 18 16 12 11 10 7 3 5 10 13 15 17 16 15 11 9 6 4 6 6 6 11 11 14 15 17 21 23 24
22 22 21 24 24 25 30 34 31 26 24 22 21 21 21 17 14 12 10 6 1 5 9 13 16 17 17 16 13 6 5 4 5 5 6 9 14 13 17 19 24 23 24
23 22 22 22 23 27 30 32 30 30 26 25 24 26 25 20 16 14 10 5 2 6 11 14 16 17 17 16 14 7 5 3 0 11 14 16 4 19 17 23 23 23 26
24 26 24 23 24 27 30 36 35 31 29 30 31 32 25 21 18 15 10 4 3 7 11 15 16 16 14 15 13 7 4 3 15 4 12 11 18 21 25 25 23 28 23
29 27 27 26 24 28 32 38 36 35 33 32 33 29 25 23 20 15 9 4 4 8 12 14 17 16 13 12 11 12 8 8 5 10 9 14 16 21 21 21 25 24 25
30 31 30 29 25 27 31 35 36 31 30 28 32 30 28 25 21 15 9 5 4 7 11 14 16 16 14 13 12 12 11 10 8 9 20 16 21 20 20 21 23 18 17
25 32 32 29 28 27 28 32 36 33 30 32 35 32 30 26 23 16 9 6 5 7 11 13 15 16 15 14 13 12 12 10 10 12 19 23 25 23 24 22 17 18 20

GFSSE_850_spd_009.txt.gz
Wind_Speed
12 13 15 14 12 9 8 6 5 4 3 4 7 7 6 5 1 1 2 4 6 8 9 7 3 4 6 7 8 1 2 6 7 8 10 11 10 7 6 6 5 4 11
17 16 16 16 12 10 8 6 5 4 5 10 9 11 10 8 5 2 3 6 6 7 6 4 4 5 3 2 1 2 4 7 11 10 9 8 9 6 4 2 2 3 7
18 18 16 15 13 10 8 6 5 5 9 9 6 8 10 7 4 2 2 3 3 4 4 5 4 4 6 5 5 6 9 11 10 8 7 8 7 7 4 1 1 3 4
17 17 17 16 14 9 6 5 4 5 7 7 5 7 9 8 7 5 7 8 8 8 7 7 6 3 2 4 5 3 5 6 6 6 8 3 3 11 6 4 3 3 5
16 15 16 17 14 8 5 6 4 5 6 8 14 15 13 13 10 7 8 9 9 9 9 8 8 8 7 5 4 5 4 6 5 10 6 6 6 10 8 7 6 5 7
16 14 16 15 13 8 6 6 4 4 7 13 16 14 13 13 10 6 5 7 7 7 7 7 7 9 8 7 7 8 8 8 7 5 5 7 7 9 10 9 9 8 8
16 16 13 15 12 8 7 5 4 6 7 11 15 13 10 9 7 6 4 5 5 5 6 7 8 6 8 9 9 10 10 10 9 6 7 7 9 12 12 11 11 10 9
16 14 13 15 12 9 9 7 7 3 7 12 14 12 9 8 5 6 4 2 2 4 4 5 6 6 6 6 9 11 11 11 8 7 8 8 13 14 14 12 10 12 13
14 15 13 15 14 11 10 8 7 3 6 12 13 11 9 7 3 6 8 2 1 2 3 3 3 4 6 8 10 12 12 12 8 8 7 6 11 11 11 10 10 11 13
14 15 14 14 13 15 14 11 8 5 7 10 12 10 9 7 4 5 6 6 3 3 3 3 5 7 9 11 11 12 12 10 8 8 6 10 12 12 12 11 11 11 13
13 15 15 14 14 15 16 14 11 7 9 9 9 10 9 5 6 6 6 4 4 4 4 5 7 9 10 10 13 13 11 6 8 8 7 13 14 14 14 14 14 14 14
13 15 16 17 16 16 15 15 13 11 11 9 8 9 8 9 9 9 6 5 5 4 5 7 8 9 8 8 12 13 10 13 11 11 13 15 15 14 12 10 12 12 12
14 16 18 17 18 20 16 15 15 11 12 11 9 9 9 10 9 7 4 1 3 3 5 7 8 10 13 13 15 14 15 16 12 8 16 16 12 5 3 9 10 8 10
16 17 17 18 18 17 17 17 16 14 12 11 11 10 9 9 11 8 7 7 6 2 5 7 9 12 13 15 17 16 13 13 8 6 14 11 7 8 9 9 9 11 11
17 18 18 18 22 20 18 19 19 15 15 13 12 12 10 9 8 11 9 5 4 5 6 9 10 12 15 17 15 14 11 10 6 5 10 8 6 7 8 8 10 10 11
16 19 18 19 18 21 21 19 20 14 14 16 14 12 13 10 13 12 9 5 6 7 8 9 12 15 15 16 13 11 10 8 6 4 4 9 7 8 9 10 12 12 13
16 18 20 20 20 20 21 21 19 15 16 20 16 14 14 16 15 10 8 8 8 8 7 10 13 14 15 14 11 9 9 8 6 4 4 4 8 8 10 11 13 13 14
19 19 20 20 21 21 22 22 23 19 19 20 18 18 18 16 11 10 9 8 8 6 7 10 12 13 14 13 12 9 8 10 5 3 3 2 7 6 12 11 13 15 16
21 20 20 22 22 23 20 22 23 22 21 16 16 18 17 14 12 10 10 10 8 4 5 9 12 13 13 12 11 10 9 4 4 4 2 5 10 11 11 16 16 18 19
25 22 22 23 22 23 19 22 26 23 23 28 26 20 17 17 16 14 12 10 6 3 5 8 11 13 13 12 9 7 6 3 5 4 4 5 11 13 13 14 17 18 21
30 25 23 25 23 25 27 28 31 32 32 31 25 20 21 21 18 15 13 11 6 1 4 8 12 13 13 12 8 5 4 6 3 5 7 7 9 11 12 13 20 20 21
29 27 25 24 25 26 33 30 34 38 36 26 25 23 23 22 20 17 14 11 6 1 4 8 11 12 14 13 11 6 3 2 2 5 14 8 9 12 16 21 22 20 22
32 29 27 24 25 30 29 31 37 38 34 32 29 28 27 27 23 19 15 11 6 1 4 8 11 12 12 12 10 5 3 3 13 6 7 13 10 19 20 25 23 21 26
35 31 28 25 27 28 30 33 38 40 42 36 32 31 30 28 24 20 16 12 6 1 4 8 11 12 12 10 8 8 3 6 3 9 5 13 16 18 23 23 25 27 21
34 35 32 26 27 26 32 31 36 38 37 37 34 33 33 30 24 21 17 12 6 2 5 8 11 13 13 10 9 8 7 7 8 10 20 13 22 19 21 18 24 23 19
34 29 34 29 30 30 31 34 36 31 36 37 36 36 35 31 27 23 18 12 6 4 6 8 11 13 13 12 10 10 8 8 8 11 17 24 25 26 21 25 19 19 22

GFSSE_850_spd_012.txt.gz
Wind_Speed
11 16 12 14 12 10 8 7 7 7 6 7 7 6 5 4 2 1 1 3 5 7 6 4 6 9 9 13 9 4 1 6 4 6 7 8 7 6 5 3 2 2 4
12 17 15 15 12 11 9 8 7 7 8 8 9 9 7 6 5 3 4 5 5 5 5 4 7 7 5 3 1 2 4 6 8 6 6 7 11 10 8 4 4 1 3
15 18 17 15 12 11 10 8 7 9 11 10 11 12 11 8 6 5 5 5 7 7 8 8 6 5 4 2 3 7 7 7 7 8 11 11 12 11 8 4 2 1 2
14 18 17 16 16 10 9 7 7 10 10 8 8 10 10 7 6 7 10 11 11 11 11 11 10 7 3 1 3 5 7 7 10 9 10 3 2 7 9 6 5 3 3
13 14 17 16 14 10 7 6 6 8 10 8 13 14 12 12 9 9 11 11 11 11 11 11 11 10 9 9 8 9 10 10 8 9 7 7 4 7 9 7 6 6 6
12 16 13 17 14 8 7 6 6 7 11 15 14 14 14 14 11 8 8 9 10 10 10 10 11 11 11 10 10 10 10 10 7 9 7 7 8 8 10 10 8 6 6
18 18 13 14 13 8 6 7 7 8 12 14 15 15 14 11 7 6 6 7 7 7 8 8 9 9 9 9 10 10 10 9 7 7 5 8 8 11 12 9 8 9 7
19 18 14 15 14 10 8 7 7 7 10 13 13 13 12 9 6 6 4 4 4 6 6 7 7 6 6 8 9 10 10 9 6 1 5 7 9 11 10 8 6 6 7
15 15 12 17 14 12 11 9 7 5 9 13 13 11 11 8 5 9 6 2 3 3 4 4 5 6 7 8 8 9 10 7 4 6 1 7 8 9 10 10 8 8 9
18 15 13 17 18 16 15 11 9 6 9 13 12 10 9 8 7 8 8 6 2 2 2 3 4 6 7 7 8 10 8 5 6 3 7 9 9 11 11 11 10 10 10
17 14 11 10 14 16 17 14 12 8 10 12 12 11 9 7 7 8 7 5 3 1 1 3 5 6 7 8 10 10 7 7 6 8 12 12 12 13 12 11 11 9 9
18 20 15 9 14 15 17 16 14 10 11 12 12 11 11 7 7 7 6 5 4 2 2 4 5 5 7 9 11 11 11 11 8 9 13 13 13 9 3 7 7 5 5
16 18 20 20 19 17 18 15 17 14 14 14 10 11 12 15 13 10 4 4 4 3 3 3 5 7 9 10 12 12 12 13 8 9 13 13 9 2 1 3 5 7 8
19 19 22 20 21 19 19 17 16 14 10 13 10 10 13 12 13 9 4 6 5 3 3 3 6 8 10 12 14 14 12 10 5 9 11 10 6 5 4 7 7 7 8
20 20 23 24 23 24 20 18 18 16 16 11 13 14 11 12 12 13 15 12 10 6 5 6 7 9 12 13 12 12 11 8 3 8 9 8 5 6 6 7 8 9 10
18 20 22 22 28 24 22 20 21 18 17 11 15 14 11 8 14 19 15 12 7 6 6 6 8 10 11 12 11 9 10 7 5 4 8 7 5 6 7 8 9 10 11
20 22 24 24 24 29 31 21 23 19 19 19 17 15 14 16 17 13 13 11 9 8 7 5 8 10 11 11 11 8 9 7 5 3 7 8 7 6 6 7 10 10 11
21 23 24 27 26 23 26 27 22 19 19 21 20 17 20 20 18 15 13 11 10 8 6 4 7 10 11 12 10 8 8 9 4 6 6 6 7 9 11 11 12 13 15
27 23 25 29 30 28 25 27 26 22 23 21 21 22 23 22 18 14 12 11 11 8 4 5 7 9 11 11 9 7 8 4 2 4 4 7 9 9 11 12 13 15 16
32 28 27 27 30 30 29 24 27 27 27 22 23 25 27 19 17 17 15 14 11 7 3 4 7 10 11 11 8 6 6 3 4 4 6 6 10 14 14 15 14 16 20
35 35 33 29 32 33 35 29 30 34 31 28 29 31 25 21 22 19 15 13 12 7 2 4 7 9 10 11 8 4 3 6 6 3 7 7 13 16 15 15 19 22 22
30 33 29 32 31 36 35 34 32 36 32 33 36 35 27 26 24 21 17 14 12 7 2 3 7 10 11 11 10 5 1 3 4 3 10 15 12 13 17 22 24 26 24
34 31 27 32 28 32 35 35 35 37 36 37 37 32 31 28 26 24 19 17 13 8 3 2 6 8 11 11 9 6 1 2 8 8 6 11 9 15 21 24 27 27 24
35 35 34 29 33 33 39 43 40 40 44 43 41 37 33 31 29 25 22 18 14 9 4 2 5 8 10 10 10 6 4 6 4 7 8 11 19 16 23 25 27 26 27
32 34 36 35 32 40 43 44 40 41 43 41 38 36 35 33 30 26 23 20 15 9 4 3 5 8 10 10 9 9 8 7 7 9 21 20 24 25 25 25 27 25 23
27 41 31 40 36 37 42 42 39 39 42 42 39 38 38 34 32 27 25 20 15 10 5 3 6 8 10 10 10 10 10 9 7 12 20 27 30 31 29 28 21 22 23

GFSSE_850_spd_015.txt.gz
Wind_Speed
14 15 14 13 13 13 11 10 9 9 8 8 8 8 8 6 4 1 2 4 4 3 2 4 13 11 12 12 8 4 0 2 1 2 3 3 4 6 5 1 3 4 1
16 19 15 15 13 12 12 10 9 8 8 9 9 7 6 6 5 3 2 2 2 4 5 9 12 12 6 4 2 3 3 4 4 5 5 5 6 9 8 5 4 3 1
18 20 16 15 14 13 12 11 10 12 12 15 15 13 12 10 6 4 6 9 9 11 11 11 10 7 5 4 3 3 3 6 10 9 5 5 7 8 8 5 3 1 2
17 20 19 16 15 14 12 11 11 12 11 12 15 15 11 8 8 10 12 13 14 14 14 13 11 7 5 5 6 9 10 11 10 8 8 6 8 7 8 6 4 4 4
18 20 19 18 16 13 12 10 11 11 10 11 14 14 11 11 10 12 12 13 14 14 13 13 13 11 10 10 10 11 10 8 7 7 7 4 5 5 7 5 4 4 3
16 19 19 19 17 14 13 11 11 12 11 14 14 16 15 13 11 11 11 12 12 12 12 12 12 12 11 10 10 9 8 7 6 6 6 4 6 6 8 6 3 4 4
15 18 16 16 16 15 13 11 11 13 14 15 16 17 16 13 10 9 10 10 10 10 10 11 10 9 9 9 8 7 6 5 5 4 2 5 5 6 7 4 3 4 5
14 15 14 13 15 12 11 12 10 12 16 16 16 16 15 11 9 7 7 8 9 9 9 8 7 6 7 7 7 7 6 6 4 4 4 6 5 5 4 4 1 3 2
17 16 15 13 14 12 11 12 11 11 13 16 15 15 13 11 9 10 6 5 8 6 6 5 5 4 5 5 6 5 3 3 1 1 3 4 6 7 6 5 4 4 4
18 16 15 16 17 16 13 10 11 11 12 14 15 14 13 10 9 10 9 7 5 4 4 3 2 2 3 3 4 3 1 2 3 4 6 7 8 9 8 7 6 5 4
19 18 16 15 19 17 15 13 11 10 12 14 14 14 13 11 11 10 9 6 4 3 3 1 1 2 2 4 4 4 4 4 7 9 9 10 10 8 4 1 3 1 2
23 20 17 14 16 18 18 17 14 11 11 13 14 13 12 11 10 10 9 7 6 5 3 2 1 2 4 6 6 8 10 8 9 11 10 10 8 2 2 1 2 2 1
24 21 20 16 16 16 15 19 17 14 11 13 14 15 15 13 10 9 7 8 7 6 5 3 2 3 5 6 9 10 11 11 10 10 10 10 5 6 6 4 1 1 4
23 27 23 18 20 18 14 16 16 16 14 16 15 15 17 13 11 11 8 9 7 7 6 4 4 6 7 9 11 11 9 8 8 8 8 7 4 3 2 2 3 3 5
27 24 28 27 24 24 22 19 18 18 15 14 18 15 16 15 17 16 11 12 9 8 6 5 6 7 9 9 10 10 8 6 6 7 7 5 3 2 2 3 5 5 7
23 28 27 31 29 29 27 23 21 22 17 13 16 16 15 15 19 18 18 17 12 10 8 7 7 8 9 9 8 8 6 5 4 7 6 5 3 3 3 4 6 7 8
18 23 29 29 29 32 32 24 23 24 20 17 16 17 14 16 21 20 20 17 14 10 9 8 7 7 8 8 7 7 6 4 4 5 6 6 5 4 4 5 7 9 10
23 24 27 29 30 28 31 27 27 27 25 21 22 21 19 19 17 19 18 18 14 11 9 8 6 5 6 7 6 5 4 4 4 5 6 7 6 7 7 8 9 10 11
31 26 30 32 32 30 29 30 28 26 30 25 27 24 24 22 22 23 19 17 13 11 10 7 4 5 6 6 5 4 3 1 3 3 4 5 6 8 10 11 12 11 13
36 34 29 36 36 33 29 31 33 27 28 26 29 28 28 25 26 25 21 18 15 12 10 6 3 3 5 5 4 3 3 3 1 4 6 8 10 10 16 13 13 15 19
36 35 34 32 40 39 34 33 33 32 32 31 31 31 32 28 27 27 23 20 16 13 11 6 2 2 5 5 4 2 2 2 1 3 6 8 11 15 14 15 19 20 22
24 32 39 36 39 44 40 37 34 36 36 34 33 31 31 30 31 28 24 20 16 15 11 7 2 1 4 6 5 2 1 1 1 2 6 11 13 12 13 18 20 25 24
31 29 34 33 36 42 42 39 37 35 39 36 36 34 34 34 33 29 25 22 18 17 12 8 3 1 3 5 6 4 1 1 4 7 10 11 13 14 17 17 23 24 23
38 32 30 36 29 39 42 42 42 42 44 44 41 39 36 37 33 31 28 24 20 18 14 9 4 2 3 4 5 5 3 4 3 4 11 13 13 16 18 23 21 21 21
25 37 26 34 34 34 40 42 42 41 43 45 43 42 37 39 34 32 28 25 23 19 15 10 5 3 4 5 6 6 5 6 8 9 15 14 20 20 20 21 22 19 20
19 22 32 32 39 41 38 43 43 42 43 48 46 44 41 40 37 34 30 26 23 20 15 11 6 3 4 6 7 7 7 7 9 10 16 23 25 27 25 23 21 18 19

GFSSE_850_spd_018.txt.gz
Wind_Speed
15 17 18 16 16 14 14 13 11 11 10 10 10 9 10 9 5 2 1 3 4 1 4 12 14 11 12 9 8 5 0 3 8 7 7 6 5 1 1 1 2 5 1
15 19 18 16 16 14 13 12 11 11 11 12 11 11 9 6 4 2 2 1 2 5 8 15 15 12 8 5 2 1 4 2 4 5 4 3 2 5 5 4 4 1 2
14 20 19 18 16 15 13 12 10 10 11 12 10 10 10 7 3 1 4 8 9 10 12 15 13 10 7 4 1 2 2 6 6 5 5 6 7 8 6 4 3 2 3
14 20 21 18 16 15 13 12 11 11 13 17 15 14 11 6 6 9 11 12 13 14 13 12 9 7 5 5 7 9 9 8 6 5 4 7 6 7 6 4 2 2 3
17 19 20 18 17 15 14 12 12 11 12 16 18 14 10 8 10 11 12 13 13 14 14 13 12 11 10 10 10 10 8 7 5 4 3 6 5 3 5 4 2 2 1
20 20 20 19 17 15 13 13 11 11 11 13 17 14 12 11 10 11 12 12 12 12 13 12 12 12 11 10 9 7 5 5 3 1 2 4 5 4 6 3 2 4 3
20 21 20 20 17 15 13 13 11 10 12 14 17 17 14 12 11 10 10 10 11 11 11 12 11 10 8 7 6 5 3 4 2 0 1 4 6 6 5 3 2 2 3
17 20 18 19 16 15 14 13 12 11 12 14 17 17 15 12 10 9 9 9 9 9 9 8 7 7 6 5 5 4 3 4 2 1 3 5 5 6 5 3 1 3 2
14 18 18 14 13 12 13 14 14 14 12 15 17 17 14 10 9 8 7 8 8 7 7 6 5 4 4 3 2 2 1 2 2 3 2 5 6 7 7 7 4 4 5
17 17 18 15 15 13 13 13 13 15 14 15 16 15 14 12 10 10 8 8 6 5 5 3 2 1 1 1 1 1 1 3 4 5 5 7 8 9 9 7 4 2 1
19 18 16 15 15 16 15 14 12 13 16 16 16 16 15 13 14 13 10 8 5 4 4 3 1 1 1 2 3 3 4 7 8 9 9 8 9 5 2 1 2 3 3
24 23 20 16 16 19 18 17 15 13 16 17 18 17 16 14 13 12 11 10 8 7 6 4 3 3 3 4 5 7 8 9 10 10 9 7 3 1 2 4 5 4 4
25 24 22 20 19 20 21 19 18 16 16 18 19 18 17 16 16 15 14 12 10 10 8 6 5 4 5 6 8 10 10 10 10 9 7 6 3 5 4 4 5 4 2
27 26 24 22 20 20 18 20 20 20 18 18 20 21 20 18 16 15 13 13 12 11 9 7 5 6 7 9 10 11 10 9 9 7 5 4 3 7 4 0 0 2 3
26 27 27 25 22 22 23 18 17 21 21 18 20 22 22 20 18 16 14 14 13 11 9 8 7 8 9 11 11 10 8 6 6 6 4 2 2 4 3 3 3 4 5
30 30 29 28 25 26 25 23 22 20 18 19 22 22 21 19 19 18 19 17 14 10 10 9 9 9 10 10 10 9 7 5 5 5 4 3 1 2 3 3 3 4 6
19 24 36 32 29 31 30 27 26 25 21 22 20 22 21 19 19 20 22 20 14 12 12 11 10 10 10 9 9 8 6 5 5 5 3 2 1 2 2 3 6 7 7
26 22 29 37 33 32 34 32 30 27 25 23 22 21 20 18 21 22 22 19 16 16 14 12 11 10 9 8 7 5 5 5 5 4 3 3 3 3 4 5 7 9 8
35 31 25 36 37 35 35 31 31 28 28 25 23 21 22 21 21 21 20 19 19 18 15 13 11 9 7 6 3 3 2 3 4 4 3 4 5 5 5 9 9 9 11
37 38 36 29 39 39 37 31 32 31 30 28 27 28 27 26 24 21 22 21 19 18 15 13 11 8 5 3 2 3 3 5 4 4 5 6 7 7 12 9 10 13 14
36 34 34 34 32 40 41 37 33 35 35 31 30 32 31 30 27 25 27 24 21 18 15 14 11 8 4 3 4 5 5 5 5 6 7 7 8 11 12 12 13 16 19
24 25 36 40 33 37 44 43 40 36 38 32 35 32 34 32 29 28 28 27 24 21 17 16 12 8 6 4 5 7 6 6 7 8 9 10 13 13 12 14 18 20 22
34 31 29 26 28 36 37 44 42 36 39 38 36 35 36 35 31 32 29 28 26 22 18 17 13 10 8 6 4 4 4 4 7 10 12 13 14 13 14 16 19 23 22
32 33 36 34 29 28 33 43 46 45 44 42 41 40 38 36 35 34 30 31 28 24 21 19 15 12 8 6 4 3 4 5 4 5 12 14 16 16 17 21 20 21 20
24 26 28 33 33 31 30 39 45 47 43 44 42 42 40 39 37 35 35 34 30 26 23 20 16 13 9 6 5 4 5 6 7 8 9 11 16 18 22 19 21 19 20
21 24 26 26 33 30 29 34 42 47 46 46 43 45 43 43 40 38 38 34 31 28 24 22 18 14 10 8 6 6 6 7 8 9 12 17 20 22 20 20 18 17 20

GFSSE_850_spd_021.txt.gz
Wind_Speed
19 19 19 16 15 15 13 13 13 13 13 13 12 11 10 10 9 7 6 5 5 3 7 9 10 11 11 9 7 3 1 5 10 9 10 10 9 8 4 2 1 2 2
18 20 19 16 16 14 13 12 12 11 12 13 11 11 10 8 5 3 3 3 3 5 11 13 12 12 7 5 2 1 3 2 2 4 4 3 0 2 4 3 2 3 2
16 20 18 16 15 14 13 13 12 11 13 14 14 12 8 5 3 2 3 6 7 10 13 13 12 8 5 1 2 3 1 4 5 5 5 5 6 7 6 4 2 3 3
16 18 19 17 14 13 13 12 12 12 13 12 11 11 9 5 5 8 9 10 11 12 15 13 9 5 2 2 4 6 7 6 5 6 7 6 5 8 7 4 3 4 3
17 18 18 18 15 13 12 12 12 12 16 15 14 12 7 6 9 10 11 12 12 12 11 9 7 8 8 8 7 7 6 5 4 4 6 6 5 6 6 4 3 4 3
18 18 18 17 15 13 11 11 11 11 15 17 14 11 8 10 10 11 11 12 12 12 12 11 11 10 9 8 6 4 3 2 3 3 2 5 5 4 5 3 3 5 5
19 19 19 17 16 13 12 12 12 11 13 15 14 12 12 11 11 11 11 11 12 12 11 11 10 8 6 5 3 1 1 0 1 2 2 4 5 5 5 4 4 3 3
17 19 18 17 16 14 12 12 13 12 12 14 15 15 13 11 10 10 10 11 11 11 10 8 7 5 4 3 3 1 1 1 2 2 3 4 4 6 6 6 3 2 3
15 16 18 17 15 13 13 12 13 13 14 15 17 16 14 12 10 10 9 9 9 9 8 6 5 3 2 2 2 2 1 2 3 3 4 4 6 7 8 7 6 4 4
13 14 15 15 14 13 13 14 13 15 15 17 17 16 14 12 11 9 9 9 8 7 7 5 3 2 0 1 2 3 4 4 5 5 6 6 8 9 8 5 3 1 3
16 18 19 17 14 13 13 14 14 15 15 17 17 16 15 13 13 13 10 9 6 6 6 4 3 2 2 3 4 5 6 8 8 9 8 7 5 3 0 2 2 4 5
21 21 21 20 17 15 15 16 16 16 17 17 17 17 16 14 14 14 12 10 8 7 7 6 4 3 3 5 6 7 8 10 10 9 7 3 3 2 3 3 4 4 4
18 21 22 21 19 18 18 18 18 16 16 18 19 18 18 16 16 17 15 14 12 10 9 7 5 4 4 6 8 10 10 10 9 8 6 4 5 4 3 5 7 5 6
23 21 21 21 22 22 21 21 20 19 18 19 21 21 20 20 19 18 16 14 13 11 10 8 7 6 7 8 10 11 11 9 8 5 4 3 5 8 3 0 1 1 2
25 23 23 23 24 24 24 23 22 21 22 18 20 23 23 21 19 18 17 16 15 13 10 9 8 7 9 11 11 11 10 8 6 5 3 2 3 4 3 2 2 3 4
29 25 26 26 25 27 27 25 25 21 19 21 21 23 25 24 21 20 18 17 15 13 11 9 8 9 10 11 12 10 8 6 5 4 2 2 2 3 3 3 3 4 5
30 29 28 28 28 30 29 28 26 24 19 21 22 24 26 24 23 21 20 19 16 14 11 9 9 10 10 11 11 9 8 6 5 3 2 2 2 3 3 4 5 5 6
23 24 23 32 34 32 32 30 29 28 25 25 21 23 26 24 23 21 22 21 19 15 11 11 11 11 11 10 10 9 7 6 5 4 3 2 2 2 3 4 5 7 8
32 30 27 25 27 37 35 32 32 32 30 28 25 24 26 24 23 21 20 21 20 16 13 13 13 12 11 10 9 7 6 6 5 4 4 3 3 4 5 7 7 7 9
36 37 33 29 28 26 38 34 33 33 35 32 29 28 27 24 23 20 19 22 20 17 16 15 14 12 11 9 7 6 5 6 6 6 6 6 6 7 9 11 10 12 13
23 33 41 36 30 28 35 39 38 38 36 34 33 31 29 26 26 23 21 22 21 18 16 16 15 13 12 9 8 6 6 7 8 8 9 9 10 11 12 12 14 15 18
25 20 23 39 35 33 33 39 44 41 38 35 36 35 33 27 29 28 26 24 24 23 20 19 16 15 13 11 9 8 6 10 12 12 12 13 13 14 14 14 17 20 22
34 29 26 24 25 27 33 36 44 45 43 40 39 40 36 32 34 32 29 26 25 26 22 20 18 16 15 12 11 9 6 7 11 13 15 15 16 15 15 17 19 23 24
35 34 32 28 29 28 24 33 39 45 48 45 42 41 38 36 36 35 32 29 28 27 25 24 22 19 17 14 13 12 11 9 8 6 15 16 17 17 18 20 23 24 23
12 20 27 31 30 28 26 29 34 44 45 47 46 42 41 40 37 36 35 33 33 30 29 27 25 22 19 17 15 13 12 11 11 11 8 12 17 19 20 22 24 23 22
17 18 19 23 23 23 26 27 29 35 41 45 47 45 43 42 40 41 39 37 34 34 32 30 27 23 21 19 16 13 11 10 10 11 12 13 15 18 18 20 21 21 20

GFSSE_850_spd_024.txt.gz
Wind_Speed
19 19 18 17 15 13 12 11 12 13 12 11 10 11 9 8 7 6 5 5 3 1 7 9 10 11 10 8 6 3 4 6 9 8 8 9 9 9 7 3 1 4 5
19 20 19 16 16 15 14 12 11 11 11 11 8 7 8 7 5 5 6 5 3 9 11 12 13 13 8 5 3 1 0 1 2 5 5 3 1 1 3 4 3 4 3
20 19 18 16 15 15 14 12 12 12 12 10 11 10 7 6 5 4 4 5 8 12 12 10 11 7 4 1 2 0 3 5 6 5 5 5 5 7 6 5 5 5 4
17 17 18 15 13 11 12 12 12 13 14 13 12 9 6 4 5 7 8 8 12 14 14 11 9 4 1 2 3 6 7 7 7 7 6 6 6 8 7 6 5 6 6
17 16 16 16 14 11 10 11 12 13 13 12 10 9 6 7 9 9 10 11 11 11 11 8 6 6 6 6 7 6 5 5 6 5 6 5 5 6 6 5 6 8 7
18 17 15 15 14 12 11 10 12 14 14 14 12 8 7 9 10 11 11 12 13 14 13 12 11 9 8 6 5 4 3 3 4 4 3 5 5 6 5 3 6 7 4
18 19 17 14 13 12 12 11 12 15 16 16 13 9 9 10 11 11 12 12 13 13 13 12 10 8 6 4 4 3 3 3 3 3 3 5 5 5 5 6 6 1 2
16 18 17 15 14 12 10 11 11 13 17 15 12 11 11 11 11 11 12 12 12 12 11 9 7 4 4 3 4 4 3 3 4 3 3 4 5 6 6 6 4 0 1
15 16 17 14 13 12 11 11 11 11 14 16 14 13 12 10 10 10 11 11 11 10 9 7 4 3 3 3 3 3 3 3 4 4 4 4 5 7 8 7 4 2 2
13 15 14 13 13 11 11 11 11 11 13 16 16 15 13 11 9 9 9 9 8 8 7 5 3 3 3 3 3 3 3 3 4 5 5 6 7 7 7 6 5 4 4
16 16 17 16 14 11 11 11 12 12 13 16 17 16 14 11 11 9 7 8 7 6 5 4 2 1 0 2 3 4 5 6 6 6 6 5 4 3 3 2 3 4 4
18 18 18 18 16 13 12 13 13 15 15 15 17 17 15 13 12 11 9 9 7 6 6 5 3 2 2 4 5 6 8 8 8 6 4 0 3 2 4 2 3 5 5
16 16 19 20 19 17 15 14 15 15 15 16 16 16 16 15 14 15 14 12 10 8 7 5 5 4 4 5 6 8 9 10 8 5 2 3 4 7 4 5 5 7 5
17 17 19 20 20 19 17 16 16 17 16 17 19 19 18 18 16 16 16 14 13 11 9 8 7 6 6 7 8 9 9 9 7 4 2 3 6 7 4 1 3 4 3
22 19 20 20 22 22 21 20 19 19 19 17 18 21 21 20 18 17 17 16 15 13 11 10 9 8 8 8 9 9 8 8 5 3 2 2 4 4 2 1 1 2 3
26 23 22 24 24 23 24 24 23 20 19 18 21 21 23 23 21 20 19 18 16 14 12 11 9 9 9 9 10 9 8 6 4 2 2 2 2 3 2 2 1 1 3
28 28 29 26 26 26 26 26 26 23 22 21 21 22 23 24 24 22 21 20 17 15 14 12 11 10 10 10 10 9 7 5 3 2 3 2 3 2 3 2 3 4 5
22 27 31 30 29 27 29 28 28 27 25 25 22 23 23 25 26 24 24 22 19 18 16 13 12 11 11 11 10 8 7 6 5 4 4 3 3 4 5 4 4 6 7
30 28 26 27 29 27 35 33 30 29 29 30 28 26 25 24 26 26 25 22 22 21 18 15 13 12 12 11 10 8 7 7 6 6 5 5 5 6 6 6 7 7 8
23 30 33 30 30 29 27 31 36 34 32 34 32 31 28 25 26 26 25 23 23 22 21 17 15 14 13 12 10 8 8 7 8 9 8 8 8 8 8 8 10 9 11
24 23 31 36 36 33 32 31 32 41 38 36 34 33 32 29 27 28 26 24 24 23 20 17 16 16 15 13 11 9 8 9 10 11 10 10 11 11 11 12 12 13 14
27 24 22 23 30 36 36 33 36 35 42 39 36 33 33 33 30 30 30 25 22 23 23 21 18 18 18 16 14 11 8 11 14 14 14 13 14 14 14 15 15 16 18
28 32 29 25 21 20 30 33 35 39 43 43 41 39 36 35 33 34 30 27 25 24 25 24 21 20 20 18 18 12 7 8 12 16 17 16 16 17 17 18 18 20 21
11 19 29 30 26 22 20 25 31 38 42 44 44 42 41 36 35 36 35 30 28 28 25 26 24 23 22 22 20 20 17 11 9 8 16 18 18 19 19 20 21 22 24
10 7 10 20 25 23 23 26 27 30 31 39 40 45 44 41 37 38 39 36 34 32 29 29 27 28 27 24 23 21 21 18 17 14 10 14 18 19 21 22 24 24 24
13 10 9 13 16 19 22 24 27 32 33 34 39 42 45 46 43 40 40 39 39 37 33 34 32 30 30 27 26 25 22 20 17 16 15 15 15 16 19 22 22 23 23

GFSSE_850_spd_027.txt.gz
Wind_Speed
19 18 18 17 17 16 15 14 13 10 9 8 7 9 8 7 5 5 4 3 1 3 10 11 12 11 9 6 6 5 7 5 6 5 5 6 8 9 7 3 1 3 6
20 20 19 17 16 15 14 16 15 13 11 11 9 7 7 5 5 5 5 4 4 10 8 11 12 11 8 6 4 3 4 5 6 7 5 4 2 1 1 3 3 4 8
21 19 20 18 16 16 15 13 14 14 12 9 7 7 5 4 5 5 3 4 12 13 12 14 14 6 3 1 1 2 5 6 6 5 4 4 5 5 5 5 6 6 5
20 20 18 18 15 13 13 13 14 14 12 12 10 7 4 4 3 5 6 11 15 12 10 9 6 2 0 4 7 9 9 8 7 7 6 6 6 7 6 5 6 6 7
19 17 16 17 15 13 11 12 14 16 13 12 10 7 6 7 8 9 10 12 12 14 12 10 6 5 7 8 9 8 8 7 6 6 6 4 4 4 4 6 8 7 6
19 17 15 14 14 13 12 13 12 16 15 12 11 8 7 9 10 11 12 13 13 12 11 10 9 8 8 7 7 6 6 6 5 5 4 4 3 5 6 6 7 5 4
18 18 16 15 13 12 10 12 12 14 16 14 11 8 8 11 11 12 12 13 14 13 13 11 8 7 6 6 5 5 5 5 4 4 3 3 3 5 5 4 2 1 3
17 18 15 14 13 11 11 10 12 14 15 15 12 9 9 10 11 12 12 13 13 12 11 9 5 5 5 5 5 5 4 4 4 3 3 3 4 5 4 2 1 2 1
15 17 16 13 13 11 10 10 9 13 15 14 13 12 11 11 11 11 11 11 11 11 9 7 4 3 5 5 5 4 4 3 3 3 3 3 5 6 5 2 2 2 2
13 15 14 12 13 12 10 10 10 10 13 14 13 14 13 11 10 10 10 10 10 9 8 6 4 3 3 3 3 3 3 3 3 3 4 4 5 6 5 6 6 6 5
14 16 16 15 14 12 11 10 10 11 11 13 16 15 15 14 13 11 10 9 9 9 7 5 3 3 2 1 2 3 4 4 5 4 3 4 5 3 3 5 5 4 2
15 17 17 16 15 14 12 12 12 13 13 14 16 17 16 14 13 12 11 11 10 7 7 5 3 1 1 2 3 4 5 5 5 3 1 6 5 4 2 4 4 6 7
13 15 16 17 18 16 14 12 12 14 15 15 16 16 17 16 15 15 14 13 11 9 8 7 5 3 3 3 5 6 6 6 4 2 2 5 8 7 8 7 7 8 6
15 15 16 18 18 19 17 15 14 15 16 17 18 18 19 18 18 17 18 16 14 12 10 8 7 6 5 5 6 7 7 6 4 2 3 5 7 8 7 2 3 5 5
17 17 17 17 20 21 20 19 18 17 16 16 18 19 20 20 20 18 18 18 16 15 12 11 9 8 7 7 7 7 7 5 3 2 3 5 6 5 3 2 2 3 2
20 20 19 20 21 22 22 22 20 19 18 18 19 20 21 22 21 20 19 19 18 17 15 13 12 10 8 8 8 7 7 6 4 3 4 5 5 4 4 3 3 2 2
18 21 23 23 22 25 25 24 23 21 20 20 21 19 22 22 23 22 21 21 19 18 16 16 14 12 9 9 9 8 8 6 5 5 5 6 6 6 5 4 4 3 3
23 22 22 28 28 27 27 27 27 24 23 23 22 21 23 23 23 24 25 23 21 20 19 17 16 13 12 10 9 9 9 8 7 7 8 7 8 7 6 5 5 5 6
29 29 28 27 30 31 30 31 29 28 27 26 26 25 24 25 24 26 27 26 24 24 22 20 18 15 13 12 11 10 10 10 9 10 10 10 9 8 7 6 6 7 6
23 25 28 31 32 31 34 36 31 34 34 31 30 29 29 28 27 27 27 28 28 27 25 23 21 17 15 14 12 12 11 11 12 13 12 12 11 10 9 9 9 9 9
24 25 25 26 32 36 35 36 36 34 33 38 36 32 31 30 31 29 28 30 30 30 27 25 24 21 19 16 14 13 13 13 14 16 15 15 13 12 12 11 12 12 12
25 25 25 26 26 32 40 39 39 38 37 35 38 37 34 32 33 32 31 32 32 31 29 29 25 23 21 19 17 14 10 15 18 19 19 18 16 16 15 15 14 14 15
13 18 25 29 27 26 27 37 42 40 39 38 39 40 38 38 36 33 34 33 32 32 29 27 27 26 24 22 22 15 9 11 17 22 22 21 19 18 18 18 18 17 18
5 8 12 20 32 30 27 25 33 41 42 40 39 39 39 40 40 36 35 35 31 34 30 29 27 30 27 26 25 26 23 13 10 10 21 24 22 22 21 20 20 20 20
8 6 7 9 15 25 27 28 28 30 31 31 33 38 41 40 41 39 38 38 36 37 37 35 31 32 32 30 29 28 28 26 22 19 13 18 23 23 22 22 22 22 22
12 11 9 7 7 12 22 27 29 31 32 34 34 33 34 40 41 43 42 40 39 38 42 41 35 34 35 33 32 30 29 30 30 25 22 19 17 18 21 23 24 23 22

GFSSE_850_spd_030.txt.gz
Wind_Speed
17 17 20 18 16 14 16 15 11 9 9 8 6 6 8 6 5 4 3 1 1 6 10 11 11 8 7 7 4 4 4 3 3 2 3 5 8 9 6 4 7 5 7
20 18 18 19 17 17 15 15 11 11 11 9 7 7 6 6 5 4 2 1 4 9 9 11 10 9 7 5 3 2 4 4 4 4 4 6 5 3 2 4 4 4 6
21 19 19 18 18 17 17 18 15 13 11 9 8 7 5 4 3 3 1 7 12 11 13 14 10 4 3 2 1 2 4 2 1 2 3 6 4 4 4 5 5 5 5
20 18 17 18 18 16 15 18 16 13 12 9 8 5 3 2 2 2 9 13 13 11 11 9 4 1 2 5 9 9 8 7 7 7 7 7 6 5 5 5 6 5 6
18 17 18 18 17 16 14 14 15 14 11 10 7 4 4 4 5 7 11 13 14 10 8 8 4 4 7 9 9 9 8 7 7 7 6 5 5 3 4 5 7 5 5
17 16 16 16 16 15 14 15 15 14 14 12 8 6 6 8 9 10 11 12 12 11 9 7 7 7 7 7 7 7 6 6 6 4 4 3 4 4 4 5 4 4 4
16 15 14 15 14 13 12 12 15 16 14 13 11 9 8 10 12 12 13 13 13 11 10 9 8 7 6 5 5 5 4 4 5 4 3 3 2 3 3 3 1 2 1
15 14 14 14 12 12 12 12 13 17 15 13 12 9 9 10 11 12 12 13 13 12 10 7 6 5 5 5 4 4 4 4 4 2 1 2 2 2 1 1 2 2 4
14 15 13 12 12 11 10 11 13 16 15 14 11 10 11 11 11 11 12 12 11 11 9 7 3 4 4 4 4 3 3 2 2 1 1 3 4 4 2 2 3 5 5
13 14 13 12 11 10 10 11 12 14 16 14 13 12 13 12 11 11 11 11 11 10 9 6 3 3 3 3 3 2 2 2 2 3 3 2 5 4 5 6 6 6 3
15 15 14 13 12 11 11 12 13 14 14 14 13 14 13 11 12 12 12 12 11 11 9 6 4 3 2 0 1 1 2 2 2 1 2 4 4 4 6 8 6 4 4
16 17 17 15 13 13 12 12 13 14 15 16 15 15 14 13 12 11 12 13 12 11 10 7 6 5 3 2 1 2 3 3 1 2 3 5 6 6 6 7 8 9 9
14 16 16 16 15 15 13 12 11 12 13 15 16 16 15 15 15 14 12 14 14 12 11 9 7 6 5 4 3 3 4 3 1 3 6 10 8 10 8 8 9 9 8
14 14 15 17 17 17 15 14 12 13 14 15 17 18 17 16 16 15 16 14 14 13 12 11 10 9 7 6 5 5 5 4 2 4 5 10 12 10 9 9 7 7 6
16 16 16 16 18 20 18 17 16 16 16 16 17 18 19 18 17 16 17 18 18 14 14 13 12 11 10 9 8 7 7 5 4 5 6 9 10 9 7 6 5 4 4
16 17 17 17 18 20 21 21 19 19 18 17 19 20 22 20 20 17 20 21 20 18 17 16 15 14 13 11 10 9 8 7 7 7 6 8 9 8 7 6 6 4 3
14 15 18 20 20 21 22 22 23 23 22 20 22 22 23 23 21 19 19 22 22 21 19 19 18 17 15 13 12 11 10 9 9 9 9 7 9 10 8 7 6 5 5
17 19 17 19 23 25 26 24 25 25 24 23 23 23 24 25 24 22 20 25 22 23 23 22 20 18 17 15 14 13 12 12 11 11 12 11 10 9 9 9 8 7 6
23 23 24 24 24 24 27 30 29 26 27 27 28 27 26 25 25 26 24 21 22 25 26 25 22 21 19 17 16 15 14 14 13 14 14 13 13 12 12 10 10 8 8
26 27 27 28 30 30 28 30 33 32 32 31 31 31 31 30 30 28 29 27 23 27 29 27 25 24 22 20 18 17 16 16 16 16 16 16 15 14 14 12 11 11 10
23 24 26 26 27 29 30 34 35 39 39 38 38 38 36 33 33 33 32 31 28 31 32 29 28 27 26 22 19 18 18 18 19 19 19 19 19 17 17 15 14 14 13
25 26 26 27 28 29 31 32 36 37 42 42 39 38 40 37 36 37 36 35 33 32 34 33 34 31 30 26 22 13 9 15 22 23 22 23 21 21 19 18 18 17 16
10 20 27 29 29 30 33 32 32 33 35 37 42 42 39 38 41 42 41 38 37 35 36 36 37 34 32 29 29 18 9 10 12 21 26 26 25 24 22 22 21 20 19
6 3 7 13 19 29 35 33 29 29 35 42 45 44 42 43 43 42 44 40 40 38 38 38 37 35 35 34 32 32 29 14 8 8 21 28 28 28 26 25 24 23 22
8 8 7 7 11 14 25 36 29 25 25 26 28 36 41 42 42 43 44 43 42 40 38 41 40 38 38 38 37 34 34 32 25 16 10 18 27 29 28 27 26 26 24
11 10 11 11 11 11 14 23 31 29 26 25 26 27 31 35 37 38 40 43 44 43 40 40 43 41 41 41 40 39 37 35 34 31 23 19 19 23 28 28 28 26 26

GFSSE_850_spd_033.txt.gz
Wind_Speed
14 15 17 15 14 14 13 11 8 8 8 7 5 3 5 4 2 1 2 2 3 6 10 10 6 5 6 4 4 3 1 1 1 3 4 7 9 9 6 6 11 4 7
18 17 18 16 14 15 15 11 10 10 10 7 4 3 2 3 2 0 1 1 3 7 9 9 9 8 6 3 1 2 3 2 2 4 6 8 6 5 5 5 3 7 7
17 17 17 18 16 14 14 12 9 12 8 6 7 6 6 2 1 1 3 8 8 8 11 8 5 5 4 2 2 2 2 2 4 8 13 6 6 6 6 7 7 8 8
17 16 16 18 16 15 15 15 12 11 9 8 6 5 2 1 2 5 9 12 10 11 10 5 2 4 5 7 9 8 8 9 9 12 8 7 7 6 7 8 8 8 8
16 14 15 16 15 14 15 16 13 11 9 6 5 2 2 3 5 9 11 14 11 8 7 3 1 4 7 8 9 8 9 9 11 10 6 6 4 4 5 6 6 7 7
15 14 16 15 16 15 12 12 13 11 9 9 5 3 3 5 7 8 10 9 10 7 5 3 4 6 7 7 7 7 8 9 12 6 6 7 1 4 3 5 9 5 7
15 13 13 16 14 14 13 12 13 11 10 9 5 5 5 6 7 8 10 9 9 8 7 7 6 5 5 5 5 6 7 8 10 5 4 5 4 3 2 2 2 1 2
14 12 13 14 13 12 12 11 13 12 11 9 7 6 7 7 8 9 11 10 10 9 8 8 5 4 4 5 5 5 5 6 6 3 3 2 3 3 2 0 2 3 5
13 13 11 12 12 11 11 12 12 14 11 9 9 7 9 9 9 9 10 10 10 9 7 5 3 3 3 4 4 4 4 5 5 1 3 1 5 3 2 3 3 4 6
12 14 11 11 10 10 11 14 15 16 13 12 9 7 8 10 10 10 10 8 9 8 6 3 1 2 2 2 2 2 3 3 1 3 3 1 4 5 5 6 4 3 3
12 11 12 11 10 10 9 12 15 14 13 12 11 10 10 8 9 10 11 10 9 9 8 5 3 3 2 1 1 1 1 1 2 1 1 3 4 5 7 8 6 6 4
16 15 13 12 11 11 10 10 12 13 15 13 13 12 11 9 9 8 11 12 11 11 9 7 6 5 4 2 1 1 2 1 1 3 6 5 6 7 6 7 8 9 9
14 17 16 12 12 12 11 10 11 11 13 14 12 11 12 12 14 13 13 14 14 12 10 9 8 7 5 5 4 3 3 2 2 3 7 9 8 9 7 7 8 10 9
14 15 17 18 14 13 12 12 11 12 13 14 16 16 14 16 17 14 14 11 11 12 10 10 9 10 9 7 6 5 5 2 3 4 10 13 13 10 8 8 9 7 6
13 14 15 16 17 15 15 13 13 13 14 14 15 18 18 17 17 18 16 15 16 15 12 12 11 12 11 10 9 7 6 4 5 5 10 12 13 12 10 8 7 5 3
12 13 14 16 16 17 18 18 15 13 14 15 16 17 20 19 18 17 19 21 20 17 14 14 13 14 12 13 12 10 8 7 7 7 10 10 13 12 9 8 7 5 5
15 14 14 16 18 19 18 20 19 17 18 17 17 18 19 21 20 19 19 23 21 24 18 15 14 15 15 15 14 13 11 9 10 10 10 12 11 12 10 10 9 8 7
13 14 15 16 17 19 20 21 19 19 20 18 18 18 20 22 22 21 21 26 25 23 22 17 18 19 18 18 16 15 14 14 12 11 13 12 10 11 13 13 11 10 9
18 18 18 17 18 19 20 24 26 25 22 19 19 19 21 23 23 23 23 25 26 25 23 24 23 22 21 21 18 17 15 15 14 14 15 15 14 13 11 14 14 11 11
19 19 20 20 20 20 20 24 27 28 30 28 23 23 23 24 27 26 26 24 25 22 25 28 26 25 24 22 20 19 18 17 16 17 15 17 17 18 18 14 14 15 13
15 16 18 19 20 22 24 25 30 34 33 33 35 28 26 27 27 29 31 27 28 29 30 29 27 29 29 25 21 20 19 19 20 20 18 19 20 20 20 19 16 17 15
15 17 17 18 20 22 24 26 27 29 37 39 39 40 41 39 35 31 34 35 35 34 32 32 31 33 32 32 29 18 11 17 23 24 22 23 22 22 22 21 21 20 20
6 11 18 21 22 23 25 24 27 26 27 28 33 39 42 43 40 32 35 36 36 35 37 36 34 37 38 35 33 25 10 12 14 20 27 27 25 25 25 25 24 23 22
5 4 5 8 14 20 25 28 29 27 28 30 29 30 33 36 40 40 35 38 40 39 41 40 39 39 39 40 35 36 30 14 11 10 19 28 28 28 28 27 26 26 25
7 7 7 7 8 11 14 18 25 30 30 27 27 27 27 31 35 39 36 37 42 40 43 42 41 42 42 42 42 40 39 34 24 18 15 20 26 31 30 28 28 27 26
9 11 12 12 12 12 14 14 16 21 23 24 24 24 24 25 27 29 32 35 39 41 43 46 45 44 44 43 45 43 44 42 41 36 27 23 24 25 28 30 29 28 27

GFSSE_850_spd_036.txt.gz
Wind_Speed
13 16 15 16 16 14 13 11 9 8 6 5 4 2 0 0 2 2 4 5 7 10 11 8 6 9 7 4 5 5 5 4 2 2 5 8 9 7 8 7 9 9 10
14 18 17 17 16 14 13 12 11 11 8 5 3 4 1 1 1 2 3 5 10 10 9 11 11 7 6 5 3 1 2 4 6 7 8 10 8 8 8 7 8 10 11
15 19 18 18 16 17 14 11 11 12 9 5 5 4 3 0 3 4 7 9 9 8 9 7 7 6 5 5 5 6 7 9 14 17 16 14 10 9 9 9 10 12 12
13 18 18 18 16 15 15 11 12 12 8 6 5 4 0 3 5 8 14 11 13 12 8 3 7 7 8 10 11 12 13 15 17 14 12 6 7 7 9 10 10 10 9
12 14 18 17 17 14 16 15 12 11 8 5 4 0 3 5 8 11 14 11 8 8 5 2 5 8 10 11 12 12 14 15 14 9 8 4 5 5 7 9 8 8 8
10 16 13 17 16 14 20 16 11 10 8 7 4 1 3 6 7 10 10 10 7 5 4 4 6 8 8 9 10 11 12 12 12 8 4 0 4 5 6 9 9 10 9
16 15 11 14 16 14 19 15 14 10 9 8 3 3 5 6 6 9 9 9 8 7 6 7 6 6 7 8 8 9 10 11 10 3 1 4 5 5 4 4 3 3 2
13 13 13 15 14 14 13 14 14 12 10 8 4 4 6 7 7 7 8 9 9 8 8 6 5 6 6 7 7 8 9 9 5 1 3 4 5 3 1 2 2 1 2
10 8 10 13 13 12 12 14 13 12 11 7 5 3 5 8 8 8 9 8 8 7 7 5 5 5 5 5 6 6 6 7 3 2 1 4 4 3 2 4 2 3 4
11 5 3 9 10 10 10 12 13 13 11 8 7 6 5 6 9 10 10 10 10 8 8 5 4 4 4 4 4 4 4 2 2 2 3 2 3 4 5 6 2 1 3
14 13 4 5 6 8 9 11 12 14 11 10 9 8 8 8 8 9 10 9 9 8 7 5 4 3 3 2 2 2 1 1 2 1 3 2 3 6 7 7 5 4 7
17 11 11 8 4 5 5 9 12 12 13 13 10 9 9 8 7 9 9 8 10 9 7 6 5 4 4 4 2 2 2 1 2 4 5 5 6 6 6 6 7 8 9
22 23 21 14 10 10 11 9 11 12 14 13 10 7 11 7 8 12 10 10 12 11 9 9 7 6 6 5 4 5 3 3 2 8 7 9 7 7 7 7 8 9 9
14 17 25 21 14 15 14 12 6 9 9 11 11 11 8 13 18 15 13 10 14 14 13 10 10 10 9 8 8 7 5 5 7 10 9 10 14 9 8 8 9 7 6
12 14 16 22 21 17 18 14 12 11 13 11 14 15 16 14 20 16 18 16 12 12 11 12 11 10 11 11 11 10 9 6 9 13 12 12 14 12 10 9 7 5 5
11 13 12 16 21 21 20 17 17 17 16 15 16 19 22 18 19 20 20 21 18 18 16 16 16 15 15 14 13 13 12 10 10 15 16 12 14 13 11 10 8 7 7
13 12 12 13 15 21 22 22 21 18 17 18 17 17 18 23 22 22 20 21 23 21 20 19 19 18 18 18 17 16 15 14 14 16 18 15 12 14 13 12 12 9 9
14 10 14 14 15 16 20 20 22 19 20 22 20 19 20 22 26 28 27 26 25 23 24 23 22 23 23 22 20 19 19 17 17 16 19 20 15 14 15 16 14 13 12
16 17 15 13 14 18 17 17 21 23 21 22 22 23 23 25 25 27 28 27 27 26 26 27 26 29 27 25 22 22 21 20 19 19 20 21 20 17 15 18 17 15 13
18 19 20 19 20 21 18 20 24 25 27 27 26 23 24 26 28 28 28 29 30 30 30 26 30 32 29 26 24 23 24 22 21 22 23 22 22 22 20 18 18 18 17
16 18 21 22 21 19 20 24 26 31 31 29 31 29 25 27 29 32 31 30 33 32 33 28 31 34 31 27 25 25 26 25 25 25 25 24 24 24 25 24 19 20 19
22 21 22 22 24 26 27 26 28 27 30 33 33 32 36 34 30 34 34 34 33 36 35 32 33 36 32 32 32 28 23 27 29 30 28 27 28 26 27 28 24 24 22
10 13 18 23 24 25 24 26 28 30 25 21 28 34 36 34 38 37 36 35 36 35 36 38 36 38 36 35 37 28 12 17 18 27 33 31 31 31 29 28 28 26 26
4 2 3 5 9 16 24 29 29 31 32 32 30 32 33 34 33 32 38 39 38 39 39 39 40 40 39 39 38 40 35 25 15 13 21 30 33 34 32 31 29 29 28
7 5 4 5 4 5 12 11 15 22 27 30 26 25 28 28 30 28 30 27 39 39 40 39 41 43 43 42 43 42 41 38 28 27 23 25 30 33 35 34 31 31 31
9 8 9 9 10 10 10 12 13 15 16 19 21 21 25 26 25 27 26 26 25 35 39 41 41 43 42 45 45 43 43 44 45 35 30 28 27 29 33 35 33 32 30

GFSSE_850_spd_039.txt.gz
Wind_Speed
14 13 15 18 18 17 15 13 12 10 8 7 5 4 3 3 4 5 7 11 13 12 11 8 9 8 7 8 8 9 10 6 3 2 3 6 6 6 8 11 11 11 10
15 17 17 19 17 16 15 15 13 12 9 6 5 6 3 3 4 5 8 12 13 10 12 12 8 7 7 7 7 6 6 6 5 6 9 10 8 9 9 9 10 10 11
17 21 19 19 18 17 15 15 15 12 9 7 7 1 2 3 5 9 12 13 11 10 8 8 8 6 7 7 7 8 10 12 11 9 11 12 10 9 9 9 10 11 12
17 21 20 20 21 18 15 15 16 12 10 9 4 1 2 5 9 16 13 13 12 9 7 7 9 11 12 13 14 15 15 13 13 12 8 10 7 8 9 9 9 9 11
17 20 21 21 20 18 17 17 16 13 10 7 2 3 5 8 13 16 13 11 10 6 4 6 9 12 13 14 15 15 14 11 12 6 3 4 6 7 10 9 9 10 11
14 19 19 21 19 21 18 17 15 12 9 6 5 5 7 9 11 14 12 9 7 5 4 7 9 10 11 12 13 13 12 11 8 7 3 4 5 6 9 9 8 9 9
13 15 14 17 18 22 20 16 16 11 8 8 4 6 8 9 9 10 10 9 7 7 7 8 8 8 9 10 11 11 10 9 5 3 4 3 4 3 4 6 5 3 4
12 12 11 13 16 20 20 16 16 13 9 6 4 4 7 9 10 10 9 9 8 8 8 7 7 8 8 8 9 9 8 5 3 1 2 3 4 1 1 3 2 2 2
11 9 11 14 15 18 19 17 14 13 9 7 5 5 5 6 10 12 11 10 9 9 8 6 6 6 7 7 7 7 5 3 2 2 3 4 2 2 5 3 3 1 2
9 5 9 12 12 12 14 16 15 14 13 9 7 6 7 7 7 8 10 11 11 9 8 6 5 5 5 5 5 4 3 1 2 2 2 2 2 4 6 4 2 1 3
8 6 6 9 9 10 11 11 12 14 13 11 10 8 7 8 8 9 9 9 9 8 9 7 5 5 4 4 3 3 3 2 4 2 1 1 4 6 7 7 4 4 7
10 6 3 4 5 10 10 11 11 12 12 11 10 10 9 9 9 10 10 10 10 9 9 7 7 6 6 6 6 5 4 4 5 4 4 4 5 7 8 7 6 8 8
21 16 12 6 4 8 10 8 10 13 12 12 9 7 10 12 13 11 11 11 11 11 9 9 8 8 9 8 7 6 6 6 9 7 7 7 9 10 9 8 9 9 8
22 23 18 14 9 8 7 8 8 13 12 12 11 8 7 12 14 11 10 11 13 13 13 12 12 12 12 10 10 9 8 8 12 10 10 10 10 11 10 10 9 9 7
19 24 27 22 19 16 15 13 11 10 11 8 11 10 9 11 14 13 14 13 13 12 15 14 14 13 13 13 12 13 11 10 14 14 13 13 12 13 13 12 10 9 6
9 10 20 25 23 22 20 16 13 11 11 11 11 12 12 14 14 15 17 18 18 17 15 15 15 15 16 15 16 15 15 13 16 16 16 15 15 15 15 14 11 10 8
6 4 4 8 18 22 22 23 19 18 17 17 15 14 16 18 18 18 19 21 21 20 20 15 17 19 20 20 19 18 18 17 17 19 20 19 17 16 17 16 14 13 11
10 11 12 11 10 15 21 21 23 22 23 18 21 18 17 18 20 24 23 26 24 21 21 22 23 23 22 23 23 21 20 19 19 21 22 23 20 18 17 19 18 15 15
11 10 9 11 12 13 12 14 21 25 22 24 22 23 22 22 23 23 28 28 28 27 26 26 25 29 27 28 27 25 24 24 23 23 24 25 24 21 19 20 22 18 18
15 19 15 14 13 14 16 17 17 19 22 24 25 25 26 25 25 27 28 29 31 32 30 30 32 29 33 31 30 29 28 27 26 27 28 27 26 26 23 22 22 22 20
22 20 21 22 12 9 15 19 21 25 25 25 26 29 29 28 27 29 31 31 32 33 34 33 34 32 31 33 30 30 31 31 31 30 29 30 30 29 28 26 23 23 23
20 19 19 22 24 23 21 19 18 23 27 28 28 27 28 32 31 30 32 34 34 36 37 36 36 35 32 34 36 32 27 34 38 36 34 34 34 32 31 30 28 26 25
15 19 22 24 26 29 31 31 30 28 29 29 28 30 31 29 27 31 37 36 36 36 38 37 36 39 38 38 39 32 14 21 23 29 37 38 36 36 35 33 32 30 28
5 8 8 9 12 19 25 29 28 29 32 32 32 30 32 31 30 27 25 27 35 40 41 41 38 38 41 41 42 42 42 34 19 14 23 30 37 37 37 36 35 33 31
4 5 5 5 6 8 10 11 13 18 23 27 30 31 30 25 23 25 25 25 24 25 37 37 39 39 41 41 45 46 45 46 42 35 30 28 28 34 37 37 38 35 34
7 7 7 8 9 11 13 14 15 15 16 17 18 21 23 25 25 24 25 24 22 24 21 27 32 35 38 42 45 47 47 45 46 42 39 38 35 34 37 36 40 38 36

GFSSE_850_spd_042.txt.gz
Wind_Speed
15 18 19 19 18 17 16 14 13 12 10 9 6 4 3 4 5 6 10 12 12 10 8 9 8 9 10 10 9 9 9 6 3 1 3 5 5 7 9 9 10 10 9
20 20 20 20 19 17 17 16 14 12 11 6 7 5 4 5 6 8 13 13 10 11 11 8 7 8 10 10 9 8 7 6 3 2 4 7 7 7 8 10 9 10 9
17 22 22 21 19 18 16 16 14 12 8 7 7 3 3 6 9 11 13 12 8 8 8 8 8 8 9 8 8 8 7 5 3 6 8 9 8 8 8 9 10 11 11
17 23 23 22 19 18 16 15 14 12 10 8 4 3 5 9 14 12 12 12 8 6 7 9 11 12 12 12 12 10 8 6 7 10 9 9 7 8 7 8 9 10 9
19 21 23 22 19 18 17 16 14 12 9 8 3 5 7 13 15 15 14 11 7 4 6 9 11 13 13 14 13 11 8 4 5 6 7 8 7 9 8 8 11 11 11
20 21 23 23 21 19 18 17 14 12 10 6 6 7 10 13 14 13 12 9 6 4 7 9 10 11 12 12 12 10 8 4 6 5 4 5 5 8 9 7 8 8 6
21 21 21 21 21 21 21 18 15 13 9 7 7 9 11 11 11 11 9 8 7 7 8 8 9 9 10 10 9 8 5 4 4 3 2 3 2 4 6 5 5 6 4
15 19 17 18 25 23 21 19 16 13 10 9 6 7 9 12 13 11 10 8 8 9 8 8 8 8 8 8 7 6 4 2 1 2 2 2 3 1 4 5 6 5 3
12 13 14 14 18 24 23 19 17 15 10 10 7 8 7 6 9 11 12 11 10 9 8 7 7 7 7 7 6 4 3 2 1 1 2 4 1 1 4 4 4 2 2
11 8 11 14 17 22 20 17 17 16 12 9 7 6 7 9 8 7 8 8 9 9 7 7 7 7 6 6 5 4 4 4 3 3 3 1 0 5 3 2 3 1 2
12 8 10 13 14 17 19 16 16 15 13 10 9 8 7 7 8 9 8 8 7 6 7 5 5 6 6 6 6 5 5 6 5 4 3 2 1 5 7 6 5 3 6
14 11 10 11 12 14 15 15 14 14 14 10 10 9 9 9 9 8 9 9 9 8 8 7 6 6 6 6 6 6 7 8 7 6 5 4 5 7 7 7 6 7 9
15 14 12 10 9 10 12 13 14 13 13 11 10 9 10 10 12 11 11 10 10 10 10 10 9 9 9 9 9 9 9 11 10 9 8 8 8 12 10 10 11 11 10
16 15 14 12 10 9 11 10 10 12 13 12 10 8 9 11 13 11 10 10 11 12 13 13 13 13 13 12 12 12 11 13 14 12 12 10 10 13 15 12 12 12 10
20 16 15 16 14 12 12 11 9 9 13 11 10 9 10 10 12 12 12 11 9 12 12 15 15 16 15 14 14 15 14 15 16 16 15 15 14 13 15 16 14 13 11
23 23 18 17 16 15 13 12 12 11 10 11 9 8 11 12 12 12 12 13 13 14 15 15 13 15 17 16 17 16 17 17 18 19 19 18 17 17 16 17 18 15 12
15 13 24 24 21 20 18 17 16 14 14 14 12 11 12 13 14 15 16 16 17 17 17 19 18 18 18 19 20 19 20 20 20 21 22 22 20 20 18 18 19 17 15
7 9 11 15 26 26 24 21 20 18 18 17 15 17 16 16 16 18 19 20 20 21 22 22 21 22 21 25 23 22 22 23 23 23 24 25 24 22 21 20 20 20 18
12 12 12 14 15 16 18 21 21 21 24 22 21 20 22 20 19 20 21 23 25 25 26 27 26 26 27 28 30 27 26 26 26 26 27 28 28 27 24 22 22 22 21
13 15 16 15 14 14 15 17 18 19 24 28 27 26 26 24 24 25 26 25 25 28 30 31 32 30 30 30 32 31 31 30 30 31 31 30 30 30 29 26 24 25 24
18 17 17 17 18 19 21 21 21 22 21 23 27 25 24 28 29 28 29 30 30 32 33 34 34 35 33 33 34 33 34 33 36 37 35 34 34 34 33 31 28 26 26
20 18 17 16 16 15 17 21 24 26 26 27 26 27 27 28 28 31 32 32 31 34 36 35 37 39 36 35 38 39 32 35 41 40 40 39 38 37 36 35 33 30 28
16 17 19 20 20 21 21 20 21 22 23 25 26 28 29 28 28 28 28 28 32 36 37 36 37 39 38 37 37 35 16 23 29 32 31 34 37 39 39 38 36 34 31
11 13 14 19 21 22 24 26 26 26 27 27 27 29 31 32 32 30 28 24 24 25 28 32 36 38 40 41 38 40 41 43 26 23 23 25 31 38 39 39 39 36 34
10 10 11 11 11 12 14 16 18 20 24 27 29 32 34 34 33 30 26 22 22 24 25 25 25 26 34 34 38 38 39 44 49 46 38 30 32 28 32 38 40 38 36
10 9 9 11 12 13 15 16 17 18 18 19 20 20 21 22 24 24 24 25 21 22 23 20 23 21 24 27 30 33 38 35 37 43 42 42 41 40 31 35 40 40 37

GFSSE_850_spd_045.txt.gz
Wind_Speed
21 19 22 20 18 16 15 13 13 11 10 9 6 5 4 3 5 9 11 12 10 6 7 7 7 7 8 7 6 6 6 4 3 5 6 6 7 8 9 10 9 8 9
25 21 22 20 17 16 15 14 14 12 9 6 7 5 5 5 8 12 12 9 10 9 7 7 8 8 9 7 6 6 3 1 3 4 3 5 7 8 9 10 11 10 8
24 22 22 20 18 17 16 15 14 12 9 8 6 5 6 8 10 13 11 7 7 7 8 7 9 9 9 7 6 4 3 0 2 5 7 7 8 9 8 10 11 11 9
21 24 22 20 19 17 16 15 13 11 10 8 5 6 8 12 11 12 11 6 6 8 9 10 10 9 8 8 7 5 3 4 7 8 8 8 8 8 8 9 10 10 9
20 23 23 22 19 18 16 14 13 11 11 7 6 7 10 12 11 12 12 7 5 7 9 10 10 10 10 9 7 6 5 5 6 6 7 8 8 9 8 9 10 8 8
19 23 23 20 19 18 17 15 13 11 9 7 6 8 12 13 13 11 8 6 4 6 8 9 9 9 8 7 6 4 6 5 5 5 7 7 5 8 5 6 6 5 4
21 21 22 21 19 18 17 15 13 12 8 5 7 10 13 13 10 10 8 6 5 6 7 8 8 7 6 5 4 2 2 3 4 5 6 5 2 3 4 3 5 6 5
20 22 24 21 20 19 18 16 13 9 7 6 5 8 10 11 11 11 9 7 7 7 7 7 6 6 5 4 3 1 1 2 4 5 5 5 2 2 4 7 8 10 6
16 18 18 20 23 21 18 16 13 12 9 7 5 5 8 8 8 9 8 7 7 7 6 6 6 6 5 4 4 3 2 2 4 5 6 7 3 1 2 5 5 6 3
14 14 14 13 18 23 21 17 14 12 10 7 6 6 4 3 6 6 7 7 6 5 4 4 4 4 4 4 4 5 4 4 5 5 5 6 3 3 4 5 5 3 3
14 11 12 13 14 22 22 17 15 14 10 9 7 8 8 7 6 6 7 7 6 6 5 3 3 3 4 4 5 6 7 7 7 7 7 6 3 4 5 3 4 3 6
15 12 11 13 14 18 20 19 14 14 13 10 8 8 7 8 8 8 8 8 7 6 6 6 5 6 6 7 7 8 9 9 9 9 8 7 3 6 7 7 8 8 10
13 11 11 13 14 15 17 17 15 13 13 11 9 9 8 9 9 9 9 9 8 8 8 9 9 9 9 10 10 10 12 12 11 10 10 9 6 10 11 13 13 16 14
16 13 12 13 13 14 14 14 14 13 12 11 9 9 8 9 10 10 10 9 9 9 10 11 12 13 13 13 14 13 14 15 15 13 13 12 12 13 15 17 17 15 14
16 14 15 14 13 12 13 13 12 10 12 11 10 10 9 9 9 10 10 10 9 9 9 10 13 16 16 16 17 17 16 18 18 17 16 15 15 15 17 18 18 16 16
17 16 14 16 14 13 12 12 10 9 7 10 10 9 10 10 10 11 11 11 12 12 10 11 13 15 15 16 18 18 18 19 19 20 19 19 18 17 17 18 19 19 19
20 18 17 15 15 17 15 13 12 10 9 11 11 11 10 11 12 13 13 14 14 14 14 15 16 18 19 20 19 18 20 20 20 20 22 22 21 20 20 19 20 20 20
15 21 19 21 20 18 16 15 15 14 14 14 15 15 15 15 14 15 17 17 16 17 19 20 21 21 23 24 24 23 22 22 22 23 23 24 25 24 23 22 22 21 21
13 15 16 17 21 22 20 20 19 18 19 18 18 19 17 17 19 19 19 19 19 20 22 24 25 26 27 27 28 27 27 27 27 25 26 26 26 28 28 25 24 24 23
17 17 17 18 17 18 21 24 24 23 22 21 22 24 22 23 24 24 25 24 24 25 26 27 29 30 31 31 32 31 31 30 30 33 32 30 29 30 31 30 27 27 25
18 18 19 20 21 21 21 22 23 24 24 24 24 26 27 26 26 28 29 28 28 30 30 31 32 34 34 34 36 36 36 36 35 36 35 36 35 34 34 33 31 29 28
18 17 17 18 21 22 23 24 25 26 26 26 25 24 25 28 29 29 29 29 28 30 30 31 31 34 35 34 35 37 37 37 37 34 34 35 35 37 36 36 35 33 30
18 17 18 19 20 20 21 22 24 26 27 28 29 29 30 31 32 33 31 30 30 29 29 29 31 34 35 35 35 34 18 22 24 23 26 28 28 29 32 37 36 35 34
16 16 15 15 17 18 20 23 25 26 26 27 28 29 29 30 31 31 32 31 30 30 29 25 22 24 27 30 32 32 33 35 34 30 23 20 23 26 29 30 34 33 38
16 14 13 13 14 15 15 16 17 18 21 23 25 27 29 31 33 34 35 33 31 28 25 22 23 21 21 21 20 24 27 29 33 36 36 29 31 34 25 29 32 32 35
15 14 14 14 14 15 15 15 15 15 16 17 19 20 20 20 20 20 21 23 22 25 23 22 21 21 18 22 22 23 22 23 26 29 32 35 35 33 34 33 35 33 36

GFSSE_850_spd_048.txt.gz
Wind_Speed
22 23 24 20 18 16 15 12 10 9 7 5 4 3 2 4 10 12 13 11 8 8 6 5 4 5 5 5 4 5 4 4 7 8 8 8 10 12 13 12 11 10 11
25 25 25 21 18 16 15 13 11 9 7 5 5 4 6 9 12 13 11 11 10 8 6 7 8 8 8 7 5 3 2 5 7 7 7 8 10 12 12 13 13 11 12
25 25 24 21 18 17 15 14 13 10 7 9 6 7 9 12 12 11 9 8 9 9 8 9 8 8 8 6 4 2 4 5 6 8 8 9 10 11 11 12 12 11 10
24 25 23 21 18 18 16 14 13 11 10 8 7 10 11 12 12 11 7 7 9 10 10 10 9 8 7 5 4 4 5 7 8 10 9 9 10 10 10 11 12 11 9
23 24 22 21 19 18 16 14 12 11 10 7 8 10 12 11 12 11 6 8 8 9 10 11 10 9 9 7 7 7 7 6 6 8 9 9 10 12 10 9 8 9 8
23 24 21 21 19 18 16 14 13 9 6 5 8 11 12 12 12 11 7 6 7 9 9 10 10 9 9 8 8 7 7 8 8 8 9 8 8 8 5 5 3 3 1
24 24 22 20 18 18 16 14 11 8 4 2 6 11 14 13 11 9 7 6 7 8 8 8 8 7 6 6 6 6 6 6 7 9 9 7 4 3 1 2 3 5 7
23 23 21 19 18 18 17 15 11 8 4 4 3 6 11 11 10 9 7 5 6 7 7 7 6 5 5 3 2 3 4 5 7 8 8 7 5 1 3 5 7 9 8
20 21 21 18 17 17 17 15 11 8 4 4 4 5 3 3 6 9 7 5 5 5 5 4 3 3 2 1 0 2 4 5 7 8 9 8 5 2 3 6 7 8 4
18 19 20 19 18 17 16 13 10 8 7 4 4 6 7 5 4 3 5 6 6 5 4 3 2 1 0 2 3 3 4 6 8 8 9 9 5 3 4 7 8 7 6
18 17 16 15 18 18 17 14 12 10 8 6 5 5 6 6 6 7 6 5 6 4 3 2 1 2 2 3 5 6 6 7 8 8 9 9 6 2 4 5 6 9 10
18 16 14 14 14 18 18 16 13 12 10 8 6 5 6 6 6 6 6 6 5 3 3 3 3 4 5 6 8 9 9 9 9 9 9 9 6 3 5 6 8 13 16
14 13 13 14 14 17 19 18 14 10 9 9 7 6 6 6 6 6 6 6 5 4 5 5 6 7 8 9 10 11 12 12 12 11 11 10 7 5 9 11 17 20 19
14 10 10 13 14 15 18 17 15 12 9 8 7 7 7 7 7 7 6 7 6 7 7 8 9 10 11 12 13 14 15 15 15 14 13 12 10 10 10 14 15 17 16
14 12 10 10 11 14 15 15 14 11 9 8 8 8 8 7 5 7 7 7 7 8 7 7 8 10 12 13 14 14 15 16 17 17 16 14 13 13 14 16 17 18 18
14 13 11 11 11 12 12 12 10 9 7 8 9 8 9 8 7 7 8 9 9 10 9 9 10 11 13 14 15 15 14 16 18 19 19 17 17 16 16 17 18 18 18
14 11 12 11 13 13 11 11 10 8 8 7 7 9 9 9 9 10 10 11 10 11 12 14 14 15 16 16 18 18 18 17 16 17 19 19 20 19 19 18 19 19 18
15 15 14 15 14 15 13 12 12 11 11 10 9 10 11 12 12 13 13 13 12 13 15 16 18 19 20 21 21 21 22 22 22 21 21 21 21 22 22 21 20 20 20
13 14 16 16 16 16 15 13 14 14 15 14 14 14 14 15 15 16 17 17 16 17 18 19 21 22 24 25 26 27 26 26 25 25 26 25 24 24 25 24 23 22 22
16 14 15 16 14 14 15 18 19 19 19 18 18 18 17 18 19 21 22 22 22 23 24 24 25 26 27 28 31 32 32 31 31 30 30 30 29 29 28 27 26 25 24
20 19 20 20 19 19 19 19 21 22 22 22 21 21 21 23 23 24 24 23 24 26 26 26 27 27 29 29 32 32 29 29 30 30 30 30 29 28 30 29 29 27 26
19 20 21 22 23 23 23 23 23 23 24 24 25 25 25 25 27 28 29 29 28 28 28 27 28 29 30 28 29 32 29 26 30 22 20 20 19 21 24 27 28 28 27
20 21 19 19 19 20 21 23 24 25 26 26 27 27 28 29 28 30 31 32 31 31 30 28 27 25 26 26 26 25 17 17 25 28 23 23 25 24 22 21 23 25 27
20 18 18 18 17 18 19 20 21 23 24 25 26 26 25 25 26 28 29 29 28 28 29 27 25 22 21 22 21 20 21 25 26 19 15 19 17 23 23 25 28 26 23
19 18 17 17 17 17 18 19 20 22 23 24 25 26 27 29 30 31 32 33 33 33 31 28 25 23 21 20 19 15 17 19 19 24 25 22 24 22 23 25 26 27 25
19 17 15 15 15 15 16 16 17 17 17 18 19 19 19 19 18 19 20 20 21 22 21 22 22 22 19 20 17 18 20 20 21 18 22 26 24 25 22 22 23 24 23

GFSSE_850_spd_051.txt.gz
Wind_Speed
24 25 24 21 19 17 14 12 10 8 6 4 4 2 4 8 12 13 12 8 8 7 6 7 8 8 6 6 7 7 8 10 10 10 10 12 13 14 15 13 12 13 9
27 27 24 21 18 16 14 12 9 8 6 4 6 6 8 11 12 12 11 10 9 7 8 8 9 8 7 8 7 7 7 9 10 11 11 11 13 14 15 14 13 12 11
25 27 25 21 18 16 14 14 12 10 8 8 8 11 12 13 11 10 10 11 11 10 10 10 10 9 8 7 6 6 8 10 11 11 11 11 13 13 13 13 12 12 11
25 26 24 21 19 17 15 14 12 10 11 9 11 13 13 13 11 9 9 11 12 13 12 11 10 9 8 8 7 8 10 10 11 11 11 14 13 13 14 14 13 12 11
25 26 23 21 18 17 16 13 12 11 10 10 13 15 13 13 12 7 10 11 12 13 13 13 11 10 10 10 10 9 9 9 10 11 11 13 14 12 9 6 8 7 5
25 24 23 21 20 17 15 13 12 8 6 8 14 14 13 13 12 8 10 10 11 11 12 13 12 12 11 10 10 10 10 10 10 10 10 10 11 7 3 1 2 1 4
26 23 23 20 19 17 15 13 11 8 5 7 10 15 14 13 12 10 8 8 9 9 10 10 11 10 10 9 8 9 8 9 9 10 9 7 5 3 2 4 7 8 9
26 21 20 18 18 17 15 13 10 7 7 8 8 9 13 12 10 10 8 8 8 7 7 7 7 7 6 7 7 7 8 9 9 9 10 8 5 2 4 6 8 9 5
23 22 21 18 17 16 14 13 10 8 5 7 8 10 6 3 3 6 7 8 7 7 6 5 5 4 4 4 5 5 6 7 8 8 9 8 5 2 3 7 8 8 6
23 21 20 18 17 17 16 12 9 6 4 5 6 7 7 7 6 6 5 5 7 6 5 4 3 3 3 4 4 5 6 7 8 8 9 8 6 4 3 7 9 11 12
22 20 22 18 17 18 17 14 11 9 7 5 4 6 6 5 5 5 6 6 6 4 3 2 1 1 3 4 4 5 6 7 8 9 8 8 7 3 4 8 11 16 17
22 21 19 17 18 18 18 15 13 10 8 5 4 4 4 4 4 5 5 5 5 4 2 1 1 2 3 5 7 8 8 9 9 9 9 8 7 3 5 10 13 18 20
17 18 18 16 16 17 18 17 13 8 7 7 6 5 5 5 5 5 5 4 4 3 3 3 4 4 5 7 8 10 10 10 10 10 10 10 8 3 7 13 15 17 18
17 15 16 17 17 17 19 18 15 10 6 6 6 5 5 5 5 5 5 5 5 5 5 5 6 6 7 8 10 11 12 13 13 12 12 12 11 10 10 13 13 14 15
16 14 13 14 16 16 18 18 16 12 9 8 7 6 5 4 4 5 6 6 6 6 5 5 6 6 7 8 9 10 11 12 13 14 14 13 13 12 13 14 17 16 17
15 14 12 11 12 13 14 14 13 11 9 8 8 7 6 6 6 5 5 6 6 7 8 8 9 9 9 11 10 11 12 12 13 13 14 13 14 14 14 15 16 17 16
15 14 12 11 11 10 9 10 10 9 8 6 6 8 7 6 6 7 7 7 7 8 10 11 11 13 13 14 14 14 15 15 16 17 17 17 16 15 16 16 16 17 17
18 17 13 13 12 12 10 9 9 9 9 8 7 8 9 9 9 10 10 10 9 10 12 13 14 15 16 17 18 18 18 19 19 19 20 20 18 18 17 17 18 18 18
18 17 17 15 14 12 12 12 13 13 13 11 12 11 11 12 12 14 14 14 13 15 16 17 18 18 20 21 22 23 22 23 23 24 25 25 24 24 23 22 20 19 19
18 17 17 16 15 14 14 15 16 15 15 14 15 14 14 15 16 18 19 19 18 20 21 21 21 22 22 24 26 26 26 26 24 23 24 24 24 24 24 24 23 23 21
16 15 15 15 15 14 14 14 15 16 16 17 17 17 18 19 20 22 23 23 22 22 22 22 23 23 24 24 27 29 28 27 26 21 20 18 15 17 19 19 20 23 23
18 19 19 18 17 17 17 16 17 18 19 19 20 21 23 25 26 26 26 26 26 26 26 25 25 27 27 26 25 26 21 22 21 15 18 19 19 19 20 19 18 17 18
18 20 22 22 21 21 21 22 22 22 22 22 23 23 25 26 27 28 29 28 28 29 29 28 27 25 25 24 22 20 13 14 19 21 16 15 16 16 16 15 17 19 19
19 20 20 19 18 18 18 18 19 19 19 20 20 22 23 23 23 23 24 24 25 26 26 25 24 24 24 24 21 19 18 18 10 9 8 10 16 13 16 19 20 18 21
20 19 19 17 16 16 16 16 17 18 20 21 22 23 23 23 24 25 26 27 26 27 27 27 27 26 24 22 21 19 16 16 18 16 15 13 13 15 14 14 16 16 16
23 21 19 16 16 15 15 16 16 17 18 19 19 19 18 18 18 19 20 20 21 21 21 20 20 21 21 21 20 19 16 16 16 14 16 15 14 14 16 16 15 14 16

GFSSE_850_spd_054.txt.gz
Wind_Speed
20 21 21 18 16 12 11 10 8 6 5 4 4 6 9 12 13 11 8 7 7 7 9 9 9 9 10 9 9 9 10 11 12 13 14 14 15 16 14 13 16 13 11
24 22 22 19 16 13 11 8 7 6 5 5 5 8 11 12 12 10 9 8 8 8 10 10 8 7 9 9 8 9 10 12 13 13 13 14 15 15 14 13 12 11 10
25 22 23 19 16 14 12 10 8 7 7 8 9 11 13 11 11 10 10 11 11 11 11 11 11 10 10 8 9 10 12 13 13 13 14 11 14 15 13 12 12 12 13
24 23 21 21 18 15 14 13 11 9 9 9 12 13 14 10 9 9 11 12 13 12 12 12 11 10 10 9 10 11 11 12 13 13 12 11 12 14 14 13 12 9 8
23 22 21 21 18 15 14 13 10 9 8 11 13 14 14 12 9 9 11 12 13 13 13 12 12 12 11 10 10 11 11 11 12 12 11 13 9 9 7 6 4 4 6
22 21 22 21 19 16 14 11 10 8 6 10 15 16 15 13 7 10 10 11 12 12 13 13 13 12 11 10 10 11 11 11 12 11 10 10 9 5 4 5 5 6 7
20 19 23 20 18 16 14 12 10 7 7 9 12 14 14 12 9 12 9 10 10 11 11 11 10 10 10 9 9 9 9 10 10 10 9 6 4 2 4 7 8 8 8
20 19 21 20 20 17 14 12 10 7 8 10 11 12 11 11 9 10 8 9 8 9 9 9 9 8 7 7 7 8 8 8 9 9 9 6 3 1 5 7 8 10 5
19 19 18 19 18 17 15 12 9 8 8 9 11 11 10 5 5 6 6 6 7 7 7 6 6 5 5 4 4 5 6 7 7 7 8 6 5 2 3 8 9 11 9
19 18 17 16 16 16 15 12 9 10 7 8 8 9 8 5 6 7 6 5 5 3 4 4 3 3 3 3 3 3 4 5 6 6 6 6 5 3 3 11 13 12 13
18 17 17 15 15 15 15 13 10 8 8 7 7 8 6 6 5 6 6 6 6 4 3 2 1 1 1 2 3 4 5 6 6 7 6 6 5 3 3 9 14 15 16
19 17 16 15 15 15 18 16 12 10 8 6 6 7 7 7 7 7 7 6 6 5 4 2 1 2 2 4 5 5 6 7 7 8 7 7 6 3 5 9 13 17 18
18 17 17 16 15 15 17 16 14 10 8 8 8 6 7 7 6 6 6 6 6 6 5 4 4 5 5 6 7 8 8 9 8 9 9 8 8 5 7 12 14 15 16
16 17 17 17 16 17 15 15 13 10 8 8 8 7 6 6 6 7 7 7 7 6 6 6 6 7 7 8 8 9 8 9 9 10 9 10 9 9 9 13 14 14 15
15 16 16 17 17 17 18 15 14 12 10 8 9 8 7 7 6 7 7 8 7 7 7 6 6 6 7 7 9 9 9 9 10 10 10 11 11 10 11 13 15 16 16
17 15 15 15 16 17 16 16 14 12 11 11 10 9 9 8 7 6 6 7 8 8 8 8 9 9 9 10 10 11 11 11 12 13 14 13 12 12 12 12 13 15 15
18 16 15 14 15 15 15 15 15 14 13 11 10 11 10 9 8 8 8 8 8 9 10 11 11 12 13 14 14 13 14 14 15 16 17 18 18 16 14 13 13 14 15
17 18 15 15 14 13 12 12 13 13 12 11 10 10 9 10 10 10 9 9 9 11 12 13 13 14 15 16 16 14 14 17 18 19 21 22 22 21 21 19 18 16 16
17 18 18 17 16 14 14 13 13 13 14 12 12 11 10 11 12 13 13 13 12 14 16 16 17 18 18 16 16 19 19 20 22 22 22 22 24 24 24 24 21 20 20
19 20 20 19 18 17 15 16 17 17 17 16 15 15 14 15 15 16 17 17 17 19 20 21 22 22 22 20 18 23 23 24 24 22 20 21 22 22 21 22 23 22 21
20 23 21 21 19 19 18 19 19 19 19 18 17 17 17 18 19 20 20 21 21 22 22 22 23 24 22 24 24 25 17 18 17 13 16 15 13 14 15 15 16 18 20
18 19 19 18 17 19 18 19 18 16 17 15 17 18 20 21 23 24 25 26 26 26 26 26 26 26 27 27 25 24 15 12 14 8 11 18 19 15 16 17 17 16 16
17 19 21 20 20 21 21 21 19 19 18 18 19 20 21 22 24 25 27 28 28 29 28 28 28 27 28 27 24 20 9 12 10 12 13 14 13 14 14 17 15 16 17
16 18 19 21 22 23 24 24 23 22 21 21 21 21 21 22 23 24 25 25 25 26 26 26 25 25 25 26 26 24 21 19 11 8 9 10 14 16 15 18 19 18 17
18 19 18 18 19 19 20 18 17 17 18 20 21 22 22 23 24 24 24 25 25 25 25 25 24 25 26 27 26 23 21 19 17 16 9 10 11 11 10 12 17 18 17
20 20 21 20 18 18 17 16 17 17 18 19 20 21 21 21 21 21 21 21 21 22 22 22 22 22 22 23 22 23 23 17 14 13 16 20 17 17 15 14 14 16 15

GFSSE_850_spd_057.txt.gz
Wind_Speed
16 20 19 16 13 10 8 6 6 5 5 5 6 8 12 13 10 8 7 8 10 11 12 13 11 10 10 9 11 12 14 14 15 16 18 17 17 15 13 16 15 11 13
21 21 20 16 13 10 8 7 5 4 5 5 8 13 14 10 10 9 9 9 9 10 10 8 8 9 11 11 12 13 14 15 16 15 17 17 16 15 14 14 15 15 15
21 21 21 17 14 12 10 7 6 6 7 7 10 15 9 10 10 11 11 12 12 13 12 11 11 11 11 11 12 13 14 15 17 22 20 11 15 16 14 14 13 12 12
21 20 20 19 17 13 12 9 7 7 7 9 12 15 8 8 9 11 12 13 13 13 13 12 11 11 11 12 12 12 13 14 16 19 10 10 7 12 12 9 7 7 10
21 20 19 20 17 15 13 10 8 7 6 10 13 14 10 8 9 11 12 13 14 13 13 12 12 11 11 12 12 12 13 13 15 12 11 11 7 7 6 7 7 7 8
20 19 20 20 17 16 13 10 7 7 7 11 13 15 13 7 7 10 11 13 13 13 13 12 12 11 11 11 11 11 11 11 13 10 8 9 4 6 7 8 9 9 8
20 18 21 20 17 15 14 12 10 8 8 12 12 15 14 6 8 10 10 11 12 12 12 11 11 10 10 10 10 9 9 10 9 8 6 4 3 5 7 10 11 11 9
19 17 20 19 16 15 13 12 10 8 10 12 14 12 11 8 9 10 8 9 9 10 9 9 8 7 7 7 7 7 7 8 8 8 9 6 5 6 7 11 13 13 12
18 17 19 19 16 14 12 12 9 9 10 12 13 14 11 6 5 4 5 6 6 6 6 6 6 5 4 4 4 5 5 7 7 7 6 5 7 7 5 8 10 13 14
19 16 17 16 16 15 13 10 8 8 10 11 12 10 6 2 2 3 4 4 4 4 3 3 3 3 2 2 3 3 4 4 5 7 6 7 8 7 7 10 11 13 14
19 17 18 16 14 14 13 12 8 8 8 9 9 8 6 2 3 4 5 4 4 3 2 1 1 1 0 2 3 4 5 5 6 5 5 7 7 7 6 10 13 15 16
17 18 16 16 14 15 14 13 10 7 5 5 6 7 4 6 6 7 5 5 5 4 3 2 2 2 3 4 6 6 6 6 6 7 7 8 7 6 5 11 13 16 16
16 14 15 16 19 15 15 16 13 9 5 7 6 6 6 7 7 7 5 7 6 6 5 5 5 5 4 5 6 5 8 7 5 7 8 9 9 8 8 9 13 15 15
17 17 17 15 16 17 15 14 13 7 8 7 8 8 8 7 8 6 6 6 6 7 5 6 5 6 7 7 5 6 6 8 7 8 8 10 10 10 10 11 13 14 15
16 17 17 15 13 16 13 12 12 12 10 8 8 8 7 7 7 7 7 7 6 7 7 6 6 6 6 6 7 7 8 8 9 10 11 12 11 11 11 12 14 14 15
15 16 16 17 16 16 17 15 16 13 10 9 9 9 9 7 7 6 6 7 8 8 7 7 7 7 7 8 8 9 9 10 12 12 14 15 16 14 14 13 12 12 14
13 14 14 13 12 12 12 13 12 10 12 11 10 10 11 10 8 8 7 7 7 7 8 8 9 10 10 10 10 11 11 12 11 13 15 18 18 20 17 16 15 14 14
14 15 15 13 14 14 13 13 13 13 13 11 10 10 11 11 10 9 8 8 8 8 9 10 9 10 11 12 12 12 14 14 14 15 17 17 18 21 21 22 20 19 18
15 16 16 16 14 14 14 12 12 11 12 11 10 10 10 10 11 11 10 10 10 11 12 12 12 13 14 15 16 15 15 16 16 18 18 18 18 20 22 19 22 21 20
14 16 17 17 16 16 15 15 12 12 12 11 11 11 10 10 12 12 12 13 13 14 15 15 16 17 17 16 16 17 19 20 21 21 16 14 13 14 17 15 16 18 18
13 16 19 20 19 19 19 17 15 14 13 13 13 14 14 14 14 15 16 15 14 16 17 17 18 19 21 19 21 23 20 15 20 16 13 13 11 13 18 18 16 16 15
14 15 17 19 19 19 18 16 14 13 13 11 12 16 16 16 17 18 20 20 21 22 23 23 22 21 23 23 23 22 17 12 14 14 11 12 16 16 14 16 13 14 14
17 18 16 17 17 17 18 17 19 19 17 17 18 18 19 19 20 22 23 23 25 25 27 28 27 25 24 22 22 19 11 10 7 9 10 10 12 12 12 14 14 14 16
17 18 20 22 21 21 21 21 20 20 18 15 18 20 20 21 21 22 23 24 25 26 27 26 25 24 23 23 23 24 21 20 12 11 10 9 7 7 8 9 9 11 14
15 16 18 20 22 22 23 23 24 22 22 22 20 19 19 21 22 23 24 25 25 25 25 25 24 23 22 23 22 20 18 20 21 20 17 16 12 15 10 10 14 12 16
17 12 16 18 19 19 20 20 20 20 18 18 19 18 20 21 22 23 24 23 23 23 23 23 23 23 22 24 21 18 22 21 21 22 19 16 16 19 14 10 17 13 13

GFSSE_850_spd_060.txt.gz
Wind_Speed
15 19 19 17 15 12 11 10 10 8 8 9 12 14 14 11 9 10 11 13 17 19 16 14 13 12 12 13 15 17 19 19 19 21 22 19 17 17 17 17 17 18 13
20 21 19 17 15 13 11 11 9 8 8 12 16 15 11 10 11 11 11 11 12 11 11 11 12 13 14 15 18 18 20 22 21 23 22 18 17 17 17 17 15 16 17
22 23 21 18 17 14 12 10 8 9 11 15 16 12 10 11 13 14 14 14 14 14 13 13 14 14 15 17 17 18 19 21 21 19 16 12 16 15 13 11 11 13 13
23 24 23 20 17 14 13 11 11 10 13 16 16 11 10 13 14 15 15 16 15 15 14 14 15 15 16 15 16 17 17 18 15 14 13 6 12 10 9 9 8 9 9
21 22 23 21 18 15 13 12 11 11 13 15 16 11 11 12 14 16 16 16 15 15 15 15 15 15 15 15 15 15 15 15 15 14 11 9 9 8 9 10 10 10 9
21 20 23 20 17 15 13 11 11 11 14 15 15 14 10 11 13 15 15 16 16 15 15 15 14 14 14 13 13 13 12 13 12 9 7 6 6 10 11 12 13 12 12
22 19 21 19 17 15 14 12 11 10 13 15 15 15 9 9 12 13 13 14 15 14 14 13 12 12 11 10 10 11 10 10 12 9 6 8 6 9 11 12 14 14 14
20 18 20 19 17 15 14 13 11 11 13 14 17 13 6 9 10 11 11 12 12 11 11 10 9 8 8 8 7 7 8 8 9 9 10 9 8 8 7 10 12 14 16
15 15 22 20 16 15 14 12 11 12 14 13 14 13 9 9 8 7 8 9 8 9 8 7 6 5 5 4 4 5 6 7 7 7 6 9 9 8 6 7 10 13 14
14 15 20 19 18 16 13 10 10 11 14 15 15 12 7 4 4 5 6 6 6 6 5 4 3 3 3 3 3 4 5 5 6 6 6 8 8 9 9 7 9 13 14
18 13 15 15 14 15 15 12 8 9 11 12 12 10 5 3 2 4 3 4 3 2 3 2 1 1 1 1 3 4 5 5 6 5 7 8 9 8 7 9 10 12 14
18 19 18 17 10 13 14 12 8 9 8 8 8 7 6 2 5 3 3 3 3 2 1 1 1 1 2 3 3 5 5 7 6 7 9 8 9 9 9 10 12 13 14
23 18 19 22 17 16 13 14 11 8 7 4 3 7 7 10 9 7 4 4 4 4 4 3 3 4 5 5 7 7 8 7 6 7 10 9 11 11 11 11 12 13 14
16 15 17 22 16 16 14 13 11 7 9 7 8 6 10 10 7 6 4 4 5 3 4 5 6 7 10 7 6 7 7 10 9 9 11 11 11 11 12 12 13 13 13
17 16 17 18 20 17 14 12 12 11 11 6 10 9 8 7 7 8 7 7 5 4 5 6 6 5 7 7 9 9 11 11 11 11 14 14 13 13 12 12 14 14 14
21 21 19 17 19 19 16 15 13 14 11 10 11 10 11 9 7 6 7 8 7 8 7 6 6 6 8 7 9 10 10 12 14 15 16 18 18 17 16 15 14 14 14
19 19 20 19 18 18 19 16 14 14 12 11 12 11 10 11 9 7 6 5 6 6 7 7 10 11 12 11 11 10 12 13 13 15 17 17 19 22 23 19 17 17 17
17 16 16 18 16 15 17 18 14 12 13 15 13 11 11 11 10 9 8 9 8 7 9 10 10 10 11 11 13 14 14 17 16 14 17 19 19 21 22 24 22 19 18
15 17 19 16 18 19 17 16 19 19 18 19 14 11 11 9 10 10 10 8 8 9 10 10 10 12 14 15 17 19 15 17 19 18 22 24 19 16 17 18 22 19 17
17 17 19 20 18 18 19 17 14 17 15 14 13 13 10 10 9 11 10 9 10 12 15 15 15 15 18 20 19 18 21 20 21 20 20 14 11 14 18 19 18 15 14
15 18 20 20 17 18 19 20 18 18 18 17 16 13 13 14 12 12 14 13 14 15 16 16 16 17 19 19 22 22 24 21 21 18 14 11 14 18 19 18 14 13 13
18 18 20 21 20 19 19 19 18 15 12 12 14 16 19 19 15 15 16 16 16 18 18 19 20 22 22 22 23 24 21 20 19 11 13 16 16 17 14 14 14 13 13
20 21 20 19 20 19 19 18 18 18 17 18 15 17 16 17 17 18 18 20 20 22 23 23 23 24 24 25 25 21 10 5 5 5 10 14 14 12 9 12 13 14 16
22 23 24 23 20 18 18 21 21 18 20 18 20 21 20 16 16 18 19 20 20 22 23 24 23 23 21 21 21 20 21 21 15 11 14 14 10 10 6 9 15 19 19
23 22 23 25 24 23 23 20 21 22 21 19 17 17 18 19 18 18 20 21 22 22 23 22 22 22 21 19 18 18 17 18 19 21 21 21 14 17 15 16 18 18 18
19 20 19 21 22 22 23 21 20 21 21 20 19 19 18 18 19 19 21 22 23 23 23 23 22 22 22 21 18 19 17 20 20 21 23 24 21 18 17 19 17 19 15

GFSSE_850_spd_063.txt.gz
Wind_Speed
20 22 21 18 17 15 14 12 12 13 13 17 18 14 12 11 14 16 20 22 20 19 16 14 12 13 16 18 19 20 21 23 23 23 20 19 20 20 18 16 18 16 15
26 24 22 20 17 15 14 13 12 14 17 19 16 12 11 12 14 15 16 15 15 14 13 13 15 17 19 20 22 23 22 20 21 21 21 17 19 16 13 13 14 17 15
27 26 23 20 19 16 14 12 13 16 20 18 14 13 13 15 15 15 16 16 14 12 14 16 17 19 19 20 21 20 19 18 19 17 16 15 15 10 11 11 11 12 10
28 27 25 22 20 17 14 13 15 18 20 17 14 15 16 17 17 17 17 16 16 18 18 18 18 18 18 19 19 17 17 15 16 14 12 9 10 10 12 12 12 11 10
28 27 25 22 20 17 15 15 16 18 19 18 15 15 16 17 18 19 19 19 18 18 18 18 17 18 17 17 16 15 14 15 13 13 11 12 11 12 13 13 13 13 12
27 26 25 22 19 17 15 15 17 18 19 18 16 15 16 16 18 18 19 18 18 18 17 16 16 16 15 15 13 12 13 12 10 9 7 8 9 11 12 14 14 15 14
26 25 24 21 19 17 16 15 16 19 20 18 17 14 14 16 17 17 17 17 17 16 15 14 13 13 12 11 11 10 10 10 10 9 9 9 8 8 10 12 13 14 15
22 24 24 19 18 16 15 15 16 18 19 20 17 12 11 13 15 15 15 15 14 13 12 11 10 9 9 9 9 8 7 9 8 8 9 10 8 8 7 9 11 13 14
16 21 22 20 18 17 16 14 15 18 18 19 17 11 13 12 12 11 12 12 11 10 9 8 7 6 6 6 6 6 6 6 6 7 8 10 10 8 7 7 9 12 13
16 15 23 22 19 18 16 13 14 17 17 17 16 14 12 11 10 10 9 9 8 7 6 5 4 4 3 4 4 4 4 5 5 7 8 8 9 10 10 8 9 11 13
14 15 22 22 20 18 17 14 13 15 16 17 15 11 7 8 8 8 7 6 6 5 4 3 2 2 1 1 1 3 3 5 6 6 7 8 9 9 10 11 10 11 13
17 13 18 16 18 19 17 16 13 13 14 14 12 9 7 8 7 6 6 6 5 4 3 2 1 1 1 2 2 3 4 5 6 7 7 8 9 10 10 12 12 11 12
18 18 16 17 13 15 16 14 12 11 12 12 10 10 9 6 3 3 3 4 5 5 4 3 2 2 2 5 4 4 5 5 5 7 8 9 9 10 11 11 11 12 13
21 19 16 18 18 14 13 11 10 9 13 12 10 10 10 7 7 6 5 4 3 4 3 4 2 4 4 5 5 6 7 8 8 9 10 10 11 12 12 12 13 12 13
22 22 19 23 15 20 15 11 9 8 12 5 8 7 9 11 9 9 7 5 4 4 3 4 3 4 6 7 8 9 9 11 12 12 13 13 14 14 13 14 15 15 14
25 23 19 24 18 17 13 10 12 12 11 9 13 10 11 11 8 9 8 6 5 5 4 5 6 6 6 8 8 10 11 11 14 15 16 17 18 17 17 17 16 15 15
25 23 23 22 23 21 18 16 15 15 15 14 13 12 10 13 9 9 9 7 6 7 7 8 8 9 11 11 10 8 11 13 15 17 17 17 16 17 17 18 18 18 16
23 26 24 24 26 26 24 21 19 17 18 16 16 15 12 11 12 10 9 9 8 7 7 7 9 11 10 10 12 12 15 16 17 19 20 17 18 21 19 19 17 18 18
26 26 28 27 26 24 22 21 21 18 19 17 18 16 13 10 12 12 10 9 9 8 9 9 9 10 12 14 16 17 19 20 19 19 19 20 20 17 12 12 16 18 15
23 22 22 23 23 21 21 21 20 20 20 20 22 17 13 11 10 12 11 10 9 11 12 13 15 14 14 17 18 20 20 21 21 22 21 18 11 14 13 15 18 18 15
20 21 22 24 23 24 25 24 21 23 27 22 19 15 14 13 11 12 12 11 13 15 15 16 16 16 17 17 21 22 22 22 25 22 13 15 15 15 16 17 17 13 15
15 21 23 25 24 24 24 23 21 18 21 19 19 16 17 17 16 14 15 16 17 16 17 17 18 20 21 21 23 24 27 23 20 8 12 13 15 15 15 15 16 13 14
19 20 23 23 25 24 24 23 24 22 19 20 20 22 22 23 21 19 18 17 18 18 20 21 22 23 23 23 23 21 12 6 6 6 6 11 12 15 13 12 16 19 21
22 19 24 25 25 24 25 26 27 25 22 21 21 23 23 21 18 19 18 19 21 20 20 20 22 22 22 23 20 21 21 20 16 10 11 12 12 15 11 15 16 21 25
25 23 23 27 25 26 25 25 22 22 23 23 22 23 22 21 20 18 17 17 19 19 20 22 22 22 21 21 20 18 19 19 20 21 20 20 17 18 16 15 16 19 22
27 25 25 26 27 29 27 25 23 24 24 25 24 22 21 21 19 17 16 18 19 21 23 23 22 22 22 22 22 21 20 20 20 20 22 22 19 17 17 16 18 20 20

GFSSE_850_spd_066.txt.gz
Wind_Speed
26 26 23 21 20 17 14 12 12 15 18 18 16 14 15 18 21 22 22 20 20 17 16 14 14 16 17 17 18 20 21 21 20 20 20 19 17 13 14 15 16 14 14
32 28 24 21 19 17 16 15 15 18 18 18 14 13 16 18 20 21 19 19 16 15 14 17 18 18 19 20 19 19 19 19 20 18 17 16 12 11 11 11 13 14 14
30 28 25 22 19 18 17 15 17 20 18 14 13 14 16 18 19 18 16 14 12 13 17 19 19 19 18 18 18 17 18 18 16 16 14 13 12 11 12 12 11 10 8
30 28 25 22 20 18 16 17 20 20 17 14 15 17 18 18 19 18 15 12 16 18 19 20 19 19 18 17 16 15 14 15 13 14 12 11 12 12 13 13 13 12 10
31 28 25 23 20 18 17 18 21 20 17 16 17 18 19 20 20 20 19 21 20 20 19 19 19 18 16 15 14 13 13 12 12 12 10 11 12 13 14 14 14 13 12
30 28 25 23 20 19 19 20 22 21 18 18 19 19 20 20 21 21 21 21 20 20 19 18 17 16 15 13 11 11 11 10 8 9 9 9 9 10 11 12 14 14 14
29 27 24 22 20 19 19 20 22 22 20 18 18 19 20 20 20 20 20 20 19 18 17 16 14 13 12 10 10 10 8 8 8 9 9 9 9 8 9 10 12 13 13
28 26 24 21 19 19 18 19 22 23 21 17 17 17 18 18 19 19 19 18 17 15 14 13 12 11 10 8 7 7 6 6 7 7 8 9 9 8 8 9 10 13 14
25 26 23 21 19 17 18 19 21 22 21 18 16 14 15 15 15 15 14 14 13 12 10 9 8 7 7 6 5 4 4 5 6 7 8 10 10 9 9 9 10 11 14
20 22 21 20 19 18 16 17 20 20 21 19 15 16 15 13 13 12 12 11 11 9 8 7 6 5 4 4 3 2 2 4 6 7 8 8 10 11 12 11 11 11 13
19 17 19 20 19 18 16 15 20 20 21 18 16 14 13 12 11 10 10 9 8 7 6 5 4 3 2 1 1 1 2 4 5 7 7 8 8 10 11 11 12 12 13
20 16 20 20 20 19 16 15 17 19 19 18 16 12 11 10 10 9 8 8 7 6 5 5 4 3 2 0 1 2 2 4 5 6 6 7 8 9 10 11 12 11 12
16 15 19 19 19 18 17 15 15 16 17 17 14 12 10 10 9 9 8 8 8 7 6 5 4 3 2 1 1 1 2 4 5 6 7 8 9 10 11 11 11 11 12
20 16 19 18 15 15 15 13 12 12 15 15 14 15 13 10 9 8 8 7 7 7 6 6 4 3 1 1 1 3 5 5 6 8 9 10 10 11 12 12 13 13 14
21 22 20 18 19 17 14 12 10 11 13 14 12 12 11 10 8 7 8 8 7 7 6 5 4 3 2 3 5 6 7 9 9 10 10 12 12 13 13 14 14 16 15
26 25 21 19 21 20 20 14 11 11 12 14 12 11 9 10 9 10 11 9 8 7 6 4 4 4 5 6 7 9 9 9 12 13 14 16 15 15 14 16 15 16 14
29 27 24 22 22 21 22 15 13 13 14 14 12 11 10 10 12 11 12 10 7 6 5 6 7 7 8 9 10 7 8 12 13 15 15 16 17 15 18 17 15 18 13
27 29 26 28 29 27 22 18 15 18 17 15 14 13 13 12 13 12 12 11 8 7 7 7 8 9 10 10 10 11 13 15 17 20 20 19 19 17 18 19 15 13 15
26 26 30 32 31 29 25 24 22 22 20 20 18 19 16 13 12 14 13 11 10 9 8 8 9 9 10 12 14 16 17 18 20 20 21 21 22 19 15 13 14 16 17
27 24 25 27 27 24 24 25 24 25 23 24 22 21 18 14 12 14 14 13 11 10 11 12 13 14 16 16 16 19 18 20 20 21 21 23 19 16 13 14 15 17 17
23 27 26 31 31 29 27 30 31 30 28 24 24 21 19 17 15 12 14 12 11 13 14 15 17 18 17 17 20 22 23 22 22 23 25 22 16 17 15 17 14 18 16
19 22 24 26 27 28 29 32 30 28 27 28 24 23 21 20 19 17 16 16 16 16 16 16 18 19 21 19 21 24 24 21 18 17 11 12 10 15 14 14 16 13 12
20 20 22 25 26 28 28 28 27 25 23 26 27 24 22 21 21 19 18 18 19 20 21 21 21 23 24 25 24 21 10 5 7 10 10 7 10 11 15 17 14 14 16
24 22 22 24 26 29 29 30 29 26 24 24 25 25 24 23 22 23 23 22 22 21 23 23 24 25 25 25 23 22 22 24 15 9 11 15 15 13 16 16 14 13 15
29 25 26 23 25 26 28 30 28 26 25 22 22 25 28 26 25 21 22 21 20 21 22 22 23 24 24 24 22 21 21 20 22 23 19 23 20 21 19 19 15 14 16
31 28 28 25 25 25 27 28 27 28 28 27 26 27 24 18 22 24 24 22 19 19 21 23 24 23 23 23 22 22 23 22 21 20 23 23 23 21 19 19 17 18 16

GFSSE_850_spd_069.txt.gz
Wind_Speed
28 26 23 21 19 16 14 13 13 17 15 16 16 18 17 21 21 21 22 18 17 15 12 12 14 15 16 18 19 19 19 20 20 19 18 13 13 14 14 14 16 16 13
33 28 25 21 19 16 14 14 17 19 17 14 14 17 19 21 23 21 19 18 14 13 14 16 16 17 17 18 17 18 20 18 18 17 15 13 14 14 13 12 12 10 11
32 28 25 22 19 17 16 17 20 19 15 12 14 18 21 21 20 19 18 15 12 16 18 17 18 18 18 17 18 18 17 17 15 15 14 14 15 14 15 14 13 11 9
31 28 25 22 20 18 16 20 20 19 13 12 15 18 21 20 19 17 14 12 16 19 19 18 18 17 17 17 17 16 16 15 14 13 14 14 14 15 15 16 15 13 11
30 27 25 22 20 18 18 22 20 17 14 14 16 18 20 20 17 13 14 17 19 20 18 18 17 16 15 15 14 13 13 12 12 11 12 13 13 14 15 15 16 15 14
28 26 24 22 19 19 20 23 19 17 16 17 18 19 20 19 18 20 21 21 20 19 18 17 16 14 13 13 11 11 11 11 10 11 11 11 10 11 12 13 14 15 15
26 25 24 21 19 19 21 23 20 17 19 19 19 20 21 22 22 22 22 21 20 19 17 16 14 12 11 10 9 9 9 8 8 9 10 10 10 10 11 11 13 15 15
26 24 23 20 18 19 21 23 23 18 18 18 19 19 20 21 22 22 21 20 18 17 15 13 12 10 9 8 7 6 7 7 7 8 9 10 10 10 11 11 12 13 15
26 24 22 19 18 18 18 22 24 22 16 17 18 18 18 18 19 18 17 16 15 13 12 11 9 8 6 5 5 4 5 6 6 7 8 9 10 10 11 10 12 12 13
25 24 22 19 17 17 17 20 22 22 19 15 16 17 17 16 15 15 15 13 12 10 9 8 7 6 5 3 2 2 3 4 5 6 7 8 10 11 12 12 12 12 12
23 22 21 19 18 16 16 19 21 22 19 17 14 17 16 15 14 13 12 11 10 9 7 6 5 5 4 3 1 1 1 3 4 5 7 8 9 10 11 11 11 11 12
24 22 19 18 18 17 16 19 20 22 22 18 16 13 13 13 13 12 11 10 9 8 7 6 5 4 4 2 1 0 1 3 4 5 6 7 8 9 11 12 12 12 12
21 20 19 18 18 17 15 17 19 20 21 18 16 13 10 10 12 11 10 9 9 8 7 6 5 4 3 2 2 1 1 2 4 6 7 8 8 9 11 12 13 12 13
17 16 17 18 17 17 16 14 16 18 19 19 17 15 12 11 9 9 9 9 10 9 8 7 6 5 4 2 2 1 2 3 5 6 7 9 8 10 11 12 15 14 16
34 16 14 17 17 16 16 15 14 13 15 17 17 15 14 11 10 9 9 9 8 9 8 7 5 4 4 4 4 4 4 5 5 7 9 11 12 12 13 14 15 15 20
24 19 20 15 21 21 17 16 15 13 12 15 15 13 12 11 11 10 10 9 9 7 7 6 6 6 5 5 6 7 8 6 8 11 13 13 13 13 14 17 16 15 16
22 24 28 20 22 23 20 20 18 15 12 14 16 15 13 10 10 10 10 11 9 8 8 7 6 7 7 8 9 8 7 10 10 13 15 17 15 15 16 17 17 16 13
27 25 28 24 25 25 21 19 19 19 15 13 17 15 13 11 9 11 11 12 11 10 8 7 7 7 9 10 9 10 12 14 15 18 19 20 18 18 18 18 16 11 12
29 26 29 24 30 30 32 20 19 22 20 16 15 16 15 13 11 13 14 11 12 10 8 7 7 9 9 10 13 15 16 16 19 19 20 20 19 20 19 14 13 10 13
29 29 30 31 30 30 24 29 31 28 27 21 20 22 19 17 14 14 14 14 13 12 9 9 10 12 14 15 17 18 18 19 22 23 24 22 23 20 14 13 11 13 15
30 29 30 30 31 31 29 29 33 32 27 26 25 23 21 21 17 15 13 14 14 14 10 12 13 15 17 17 19 20 24 22 27 25 24 21 20 17 12 12 14 12 14
24 27 27 28 29 30 29 29 32 31 28 27 24 24 25 22 19 18 16 12 11 13 14 14 15 17 18 18 20 23 25 23 20 11 12 12 11 7 9 13 11 12 10
16 18 23 26 29 29 32 32 31 30 28 27 26 25 22 23 18 23 21 19 17 17 17 19 20 21 22 22 22 22 11 7 10 12 11 11 7 9 11 14 14 13 11
20 16 19 21 27 27 27 28 27 27 26 24 19 25 27 24 25 24 22 19 17 17 19 20 22 24 24 25 24 23 21 23 13 11 9 12 11 13 15 16 15 14 17
24 23 21 20 20 21 20 22 25 26 25 21 20 22 24 26 24 23 22 15 15 18 18 25 25 23 23 24 23 23 22 20 20 22 23 19 19 19 19 19 20 18 20
22 32 27 24 23 21 21 25 24 27 25 26 24 29 28 27 25 23 20 20 19 21 25 24 23 24 24 23 22 22 22 22 21 18 19 23 25 22 22 20 22 20 21

GFSSE_850_spd_072.txt.gz
Wind_Speed
29 26 24 22 19 16 13 11 13 16 15 16 18 17 18 19 18 18 19 15 15 12 11 15 16 18 19 19 19 20 20 20 18 16 15 15 16 15 15 15 13 15 17
31 28 25 21 18 16 13 13 18 16 16 16 18 20 21 21 20 21 18 17 14 13 16 17 18 18 18 19 20 20 20 18 18 16 16 16 16 16 15 15 13 12 15
31 28 24 21 19 16 14 17 19 17 14 15 18 20 22 23 21 19 17 14 14 17 18 19 19 19 19 18 18 19 18 17 16 17 17 17 17 18 18 17 16 14 11
30 27 24 22 19 17 15 19 19 17 12 15 20 21 22 20 19 18 14 13 17 18 19 19 19 18 18 18 18 17 16 15 14 15 15 16 17 17 18 18 17 16 14
29 26 24 21 19 17 16 19 19 14 12 15 21 23 22 18 19 16 12 17 19 19 19 18 17 17 16 16 16 14 13 13 13 13 14 13 13 15 15 16 16 16 16
27 23 22 21 19 17 19 19 18 14 14 16 20 22 21 18 14 14 19 20 19 18 17 16 15 14 14 13 13 12 12 12 12 12 12 12 11 12 13 14 15 16 16
25 23 21 20 18 17 21 18 16 14 16 18 19 21 21 18 19 21 22 21 19 18 17 15 14 12 11 10 10 10 10 10 10 11 11 11 11 12 12 13 13 15 16
24 23 21 19 17 17 21 19 14 15 17 18 20 21 22 22 23 22 21 20 19 17 15 13 12 10 9 8 8 8 8 8 8 9 10 10 11 11 12 12 13 13 14
23 22 21 19 17 17 21 21 16 15 16 18 19 20 21 21 21 21 20 19 17 15 13 11 9 8 7 5 5 6 6 7 7 8 9 10 10 11 11 11 13 13 13
23 22 22 18 16 17 20 23 19 16 14 15 17 18 19 19 19 18 18 17 15 13 11 9 8 6 5 4 3 3 4 5 6 7 8 9 10 11 12 12 12 12 12
22 22 20 18 16 16 18 22 21 18 14 13 15 16 17 17 17 15 14 13 12 11 9 8 7 6 4 3 2 2 3 4 4 5 6 7 8 9 10 10 11 10 11
24 23 20 17 16 16 17 20 23 21 18 16 15 15 15 15 14 13 12 11 10 9 9 8 7 6 4 3 2 1 1 2 3 4 5 6 7 9 10 11 13 10 11
24 23 21 17 16 15 15 18 21 23 20 17 15 14 13 13 14 13 12 10 9 9 8 7 6 5 4 3 3 2 0 1 3 5 6 7 7 9 10 12 12 15 13
27 25 21 17 16 15 13 14 18 21 22 18 17 15 12 11 12 11 11 10 10 10 9 8 7 6 5 3 3 2 1 2 3 4 5 6 8 9 11 12 15 16 14
19 13 15 14 15 15 14 13 15 18 19 19 18 16 13 11 10 10 10 10 11 11 10 9 8 7 6 5 4 3 3 3 3 5 7 10 11 10 11 11 11 13 14
13 9 7 12 3 17 18 17 14 14 15 17 18 17 15 13 11 11 10 11 10 10 10 10 9 8 6 5 5 4 5 4 6 8 9 11 13 15 13 16 12 14 15
21 21 19 22 27 14 20 20 18 18 17 16 16 15 13 12 11 10 10 11 11 10 11 10 8 7 6 5 5 6 5 7 9 11 14 15 16 17 17 15 15 13 18
28 27 26 22 28 16 24 21 17 18 18 17 16 15 14 13 10 10 10 10 11 11 11 9 8 7 5 6 6 5 8 11 14 13 17 19 16 18 18 17 17 13 10
33 28 26 18 25 18 25 23 18 19 19 19 20 16 14 13 12 10 10 9 12 12 10 8 7 5 6 6 8 10 13 15 16 17 20 20 21 18 19 17 15 9 8
32 30 24 23 22 20 22 23 27 40 25 24 24 18 16 17 15 13 10 11 12 13 11 9 7 8 10 11 13 16 17 18 20 22 24 24 24 22 18 12 9 8 8
32 32 30 27 26 23 29 32 31 23 27 33 29 25 20 21 19 18 12 11 15 14 11 9 11 11 13 15 16 18 18 23 21 19 17 13 13 11 9 9 7 10 11
29 27 26 29 31 34 33 36 26 22 32 29 29 29 24 22 20 21 16 13 13 13 13 12 13 13 14 15 17 20 20 20 6 6 11 10 8 10 6 9 10 10 13
10 16 25 31 31 31 34 36 35 36 30 31 30 29 25 23 23 23 21 21 19 17 16 15 14 16 18 19 19 16 11 8 18 14 11 10 9 7 9 10 11 13 15
10 8 13 21 28 25 23 26 23 24 25 20 18 22 25 25 23 22 22 25 22 20 15 13 15 17 19 22 22 21 20 22 16 10 9 8 9 10 13 15 16 17 14
15 16 18 17 16 16 18 21 17 19 25 20 20 22 19 22 23 23 23 23 22 14 11 12 17 18 20 21 21 22 21 19 19 19 23 18 17 16 19 18 20 21 20
10 12 19 22 18 17 17 19 18 20 21 21 20 22 19 25 24 22 23 23 17 14 15 17 21 20 22 22 22 21 21 21 19 17 17 20 20 20 21 20 21 21 22

GFSSE_850_spd_075.txt.gz
Wind_Speed
30 26 24 23 21 18 15 12 12 14 13 11 14 22 21 18 16 16 18 14 12 11 15 17 19 20 20 21 21 21 20 19 17 17 17 17 17 15 14 14 17 17 19
31 27 26 23 20 17 14 14 16 16 15 16 16 20 21 20 19 19 17 15 12 15 17 19 21 20 21 21 21 20 19 18 18 18 18 19 19 17 17 15 13 15 16
30 28 26 22 19 16 15 17 18 17 17 18 21 21 22 22 20 20 18 14 16 18 19 20 21 20 20 20 19 18 17 17 17 18 18 19 20 19 18 17 15 13 11
31 28 26 22 19 16 16 20 18 17 17 18 21 23 24 23 21 19 17 16 19 20 20 20 20 20 18 18 17 16 15 15 15 15 16 16 17 17 17 17 16 15 13
31 28 25 22 19 16 17 20 19 16 17 20 22 24 22 21 20 16 17 20 21 21 20 19 18 18 17 16 15 14 14 14 14 13 13 14 14 15 15 15 15 15 14
28 26 24 22 19 16 18 19 19 14 18 23 23 22 20 20 18 14 20 21 21 21 19 18 17 16 15 14 13 13 12 13 12 12 12 12 13 12 13 13 13 14 14
26 23 22 21 19 16 19 18 17 14 17 23 25 22 20 17 16 18 21 21 21 20 18 16 14 14 13 12 11 11 11 11 11 11 11 11 11 12 12 12 12 13 13
25 24 22 21 19 17 20 16 14 13 16 21 25 23 20 16 19 22 22 21 19 18 17 14 12 11 10 10 9 9 9 9 9 9 10 10 10 11 10 11 12 12 12
25 24 22 21 19 18 21 16 12 13 15 19 22 22 22 21 23 23 22 20 18 16 15 13 11 9 8 7 7 7 7 7 8 8 8 9 9 9 9 10 11 11 11
25 24 22 21 18 19 23 17 14 12 13 16 19 22 22 23 22 22 20 19 17 15 13 11 9 8 7 6 5 5 5 5 6 6 7 7 8 9 9 10 9 9 10
26 24 23 19 16 19 23 19 16 13 12 14 17 18 19 20 20 19 18 17 15 14 12 10 9 7 6 5 4 4 4 4 4 4 5 5 6 7 7 8 9 8 10
25 24 22 19 16 18 22 24 19 17 14 13 14 16 17 17 17 17 16 15 14 13 12 10 9 7 6 5 4 3 3 3 3 3 3 4 5 6 8 9 10 11 9
21 22 23 19 16 16 19 25 23 19 17 15 14 15 16 16 17 17 16 14 13 12 11 10 9 8 7 5 4 3 2 2 2 2 2 3 4 6 8 8 12 13 11
19 23 22 20 17 15 15 19 23 22 19 17 15 15 13 14 14 14 13 13 12 11 11 10 9 9 7 6 5 4 3 2 1 0 1 3 5 8 9 9 11 11 12
16 7 24 21 18 16 15 15 20 22 21 18 16 15 12 11 11 12 12 12 12 12 11 10 10 9 8 7 6 5 4 4 3 3 4 6 7 10 11 10 13 9 11
28 4 3 14 15 14 14 15 16 18 19 20 18 16 14 11 12 12 12 11 12 12 13 12 11 10 9 7 6 5 5 4 4 5 6 8 9 12 13 13 12 12 11
24 13 4 7 13 12 8 16 16 15 17 17 17 17 16 15 14 12 12 11 12 12 13 13 12 10 9 7 6 5 3 5 6 8 10 10 15 12 14 14 13 15 14
14 14 12 9 17 15 10 14 16 14 14 16 18 18 16 14 14 13 13 12 13 14 13 13 12 10 8 6 3 2 4 8 11 13 14 15 16 15 14 12 13 11 12
27 18 14 17 16 22 19 16 17 18 15 14 14 16 17 17 15 13 12 12 12 15 15 14 12 10 7 4 4 6 9 13 15 17 17 18 20 19 18 15 12 8 7
35 24 24 22 13 17 19 15 23 27 22 18 17 18 17 20 16 16 14 13 14 15 16 14 12 9 6 8 9 10 13 15 16 20 21 20 18 16 13 11 7 7 8
35 32 29 28 23 14 13 19 25 35 26 33 30 25 24 19 21 22 20 17 15 17 16 15 12 12 10 9 11 13 15 19 15 14 10 10 13 11 9 8 8 8 9
21 29 27 28 24 19 23 24 19 23 28 33 26 37 31 29 29 24 21 23 19 16 17 18 16 14 11 9 11 12 12 15 6 9 14 10 9 11 10 9 10 10 9
24 23 25 31 29 29 28 28 27 29 25 25 23 22 38 38 37 25 25 26 22 18 18 20 18 17 13 12 12 11 7 5 15 13 12 14 9 8 8 11 12 12 11
9 12 22 25 23 26 32 28 30 26 32 27 28 16 27 24 23 23 24 27 27 27 24 22 17 15 13 14 14 16 17 18 10 8 12 9 12 11 10 13 15 14 14
11 12 12 12 15 16 22 25 23 27 24 16 14 16 18 19 17 18 22 23 24 25 26 21 18 13 12 17 17 17 15 15 16 17 15 16 14 13 15 15 17 20 18
6 9 10 12 14 13 14 16 15 17 18 17 18 12 13 21 18 18 22 22 23 24 21 16 14 16 16 17 20 18 18 17 16 16 18 22 20 18 16 17 19 22 20

GFSSE_850_spd_078.txt.gz
Wind_Speed
20 24 26 23 20 18 15 12 9 10 12 15 21 23 19 15 15 15 16 12 12 13 16 17 19 20 21 21 19 19 17 17 17 17 17 16 15 14 13 14 17 14 15
23 24 26 24 21 18 15 12 11 12 11 12 20 24 21 19 18 17 16 13 12 16 19 20 19 22 21 20 18 17 16 16 17 18 18 17 16 15 13 12 13 12 11
24 24 26 24 21 18 15 14 16 13 14 13 22 23 23 20 18 19 15 14 17 19 21 21 20 21 20 19 17 16 16 16 17 16 19 15 17 16 15 13 11 10 8
24 24 24 24 21 18 16 16 18 16 15 19 21 23 22 22 21 18 17 16 19 21 21 21 21 20 18 17 15 14 14 14 14 15 12 12 14 14 13 13 12 11 10
23 23 23 23 20 18 17 19 19 18 16 20 22 25 25 22 21 19 17 20 20 21 21 20 20 18 17 15 14 13 12 12 12 12 12 11 10 11 11 12 11 11 10
21 20 23 23 20 18 19 20 19 17 19 20 23 24 24 21 20 18 20 21 21 20 19 18 18 17 15 13 12 11 11 11 12 10 9 11 9 10 10 10 11 11 10
21 20 23 23 20 18 20 21 19 16 21 21 23 22 20 21 17 19 22 22 21 20 18 17 16 14 13 12 11 10 9 9 9 8 8 8 8 9 10 10 10 10 10
20 20 21 22 20 19 21 20 18 16 22 24 23 21 21 18 18 22 23 22 21 19 17 15 14 13 11 10 9 8 8 8 8 7 7 6 7 7 8 8 9 10 10
19 19 20 22 20 20 21 19 16 15 21 27 24 23 20 17 20 23 22 22 20 18 16 14 12 11 10 9 8 7 6 6 5 5 5 4 5 6 6 7 8 9 9
17 19 20 21 20 20 21 18 15 15 19 26 28 24 20 16 23 24 22 20 18 16 14 12 10 9 8 7 6 5 5 5 5 4 4 3 4 5 7 8 8 8 9
10 22 22 22 20 20 22 18 15 14 15 19 23 22 20 20 22 21 21 19 17 15 14 12 10 9 8 7 6 5 4 4 3 3 2 1 3 4 6 7 8 7 8
14 23 24 22 20 20 20 21 17 16 15 16 18 21 16 16 16 16 19 18 16 15 13 12 11 9 8 7 6 5 4 4 3 2 2 0 1 3 4 6 9 8 6
31 23 26 24 20 20 25 22 23 18 15 15 16 18 16 17 20 19 18 17 16 15 13 12 11 10 9 8 7 6 6 5 4 3 2 0 2 3 6 6 9 9 8
31 18 21 26 22 21 24 24 23 22 19 17 18 18 18 18 19 18 17 17 16 15 14 13 11 11 10 9 8 6 5 5 4 4 3 3 4 5 7 7 8 9 10
23 30 12 29 25 24 24 27 25 22 19 17 16 16 16 16 16 16 16 15 15 15 14 14 13 12 10 9 8 7 6 6 5 5 5 6 5 6 9 11 9 10 9
29 32 8 24 26 23 22 23 26 25 22 20 18 17 14 13 14 14 15 14 14 15 15 14 11 11 10 10 8 8 7 7 6 6 6 8 11 10 12 13 12 10 11
29 21 27 13 24 21 19 18 21 23 24 23 20 16 16 14 11 12 13 13 13 14 16 16 15 14 11 10 9 8 7 7 8 8 8 8 10 13 12 13 11 11 13
28 26 25 19 15 14 14 15 17 18 19 19 19 19 19 17 14 15 13 14 14 15 16 16 14 13 11 10 9 8 7 7 8 8 11 11 11 13 15 15 12 12 13
14 29 18 21 15 17 15 11 16 14 14 13 13 13 15 16 17 16 15 14 16 17 18 17 16 13 12 11 10 8 9 8 9 10 10 13 15 20 16 17 15 13 10
14 24 23 18 11 13 17 13 16 18 16 13 13 12 13 16 18 19 18 16 16 18 19 19 17 16 13 12 10 11 11 10 10 11 12 12 12 14 14 12 11 12 10
23 20 20 17 13 13 10 15 16 17 21 21 17 15 15 18 18 24 26 19 20 20 20 20 19 17 17 14 11 10 9 11 13 13 8 11 13 11 11 10 8 10 12
24 29 27 23 19 20 13 14 17 15 19 20 24 22 25 29 27 24 22 26 27 26 21 22 22 21 18 16 12 8 11 7 8 6 13 9 10 9 11 11 11 13 12
12 17 24 26 27 27 13 19 17 16 17 14 19 21 20 25 33 31 29 29 31 32 28 25 25 25 21 20 15 10 6 6 6 10 11 11 10 9 10 11 13 14 15
17 16 20 23 24 31 30 22 22 20 22 23 28 23 31 29 24 29 30 38 37 33 31 27 28 28 23 20 15 14 15 11 7 9 9 11 11 11 13 14 14 15 16
17 17 17 26 26 25 27 28 29 25 21 20 17 19 17 23 16 31 28 18 22 21 24 34 28 27 21 19 17 14 10 12 17 14 12 9 11 12 14 15 18 18 19
8 11 11 13 16 17 19 22 20 19 20 20 22 14 8 10 9 12 19 25 26 21 19 19 20 25 19 17 17 16 13 12 14 14 14 13 13 12 15 15 19 21 21

GFSSE_850_spd_081.txt.gz
Wind_Speed
15 21 25 22 20 18 15 13 12 13 16 20 20 17 14 12 12 14 14 10 9 13 15 18 19 20 19 17 16 16 16 16 17 16 14 14 14 15 15 16 13 12 13
15 22 26 22 19 18 14 12 10 12 14 18 21 20 17 14 15 15 14 12 12 14 16 18 20 20 18 18 16 16 16 16 17 18 16 14 14 12 12 11 10 10 9
17 20 27 22 20 17 14 12 11 12 13 15 21 21 20 17 17 16 14 13 16 18 17 18 20 21 18 17 15 15 15 16 16 17 17 13 13 13 12 10 9 8 6
19 22 23 24 20 18 15 13 14 13 12 15 21 22 21 20 18 17 15 15 18 19 19 20 20 19 16 15 14 14 14 14 14 17 10 9 11 12 12 11 10 8 8
18 20 23 24 20 18 16 15 16 14 14 18 23 23 22 21 19 18 16 18 20 19 20 19 19 17 15 13 12 12 13 13 14 12 9 8 7 10 10 10 9 9 9
15 19 23 23 20 18 16 17 18 16 14 19 24 23 23 21 20 19 18 21 20 20 20 19 17 16 14 12 11 11 11 11 14 8 9 8 6 9 10 9 10 10 9
15 20 20 21 19 18 17 19 19 17 15 21 23 24 24 21 21 20 21 22 21 20 18 17 16 14 12 11 10 9 9 10 10 7 8 3 7 9 9 9 10 9 9
16 16 16 21 18 17 18 20 18 17 17 21 23 24 22 21 19 21 22 22 21 19 17 16 14 12 11 10 9 8 8 9 7 6 7 2 5 6 7 8 8 8 9
16 15 16 18 18 17 19 20 19 15 21 22 23 22 21 19 17 22 23 22 21 19 17 15 13 11 10 8 7 6 6 7 9 4 4 2 3 4 5 6 7 8 8
14 16 13 16 15 18 19 19 19 16 21 24 24 22 19 17 19 23 23 22 20 18 16 14 12 10 9 7 6 5 5 5 4 3 4 2 1 3 5 7 6 6 7
8 6 11 15 17 17 19 21 18 17 22 29 25 22 19 18 20 22 21 21 19 17 15 13 11 9 8 6 5 4 3 3 3 3 3 1 1 2 4 5 6 6 6
41 35 19 4 22 22 22 22 19 18 20 25 27 25 21 13 15 15 21 20 18 16 14 12 10 9 7 5 6 5 3 3 3 3 6 3 2 2 3 4 6 7 6
21 39 50 28 18 25 24 23 19 17 16 17 18 22 15 15 19 18 18 19 17 15 13 11 11 10 8 7 6 3 5 5 3 3 6 3 2 3 5 5 7 9 8
17 28 46 47 43 31 25 27 25 18 18 17 18 19 18 18 19 13 13 16 14 15 11 11 9 7 9 8 6 6 6 4 3 5 8 7 6 6 6 8 10 8 10
13 15 25 36 29 31 30 27 28 27 21 19 19 19 18 18 20 17 15 14 14 12 11 11 10 10 10 9 8 8 7 6 5 5 5 12 11 7 8 9 11 11 11
13 14 18 23 10 27 29 25 25 27 24 18 18 18 15 13 16 15 14 14 14 13 13 11 10 10 10 10 9 9 8 7 7 7 6 9 13 12 10 10 10 12 11
15 16 24 18 35 10 22 25 20 20 24 23 17 17 15 15 15 15 12 13 12 11 11 11 11 11 11 10 10 10 9 8 8 8 8 7 10 14 13 13 11 10 11
18 20 19 17 14 10 20 23 23 18 17 19 20 19 18 16 14 14 13 12 12 11 13 13 12 12 12 12 11 10 10 9 9 8 9 9 10 10 13 15 16 12 12
17 17 18 23 18 16 15 16 15 18 18 18 19 18 18 18 17 15 14 12 12 12 12 13 14 14 13 13 12 12 12 11 8 8 10 9 11 13 12 12 17 13 11
18 22 19 30 29 23 14 13 17 17 17 16 16 15 14 14 15 15 15 13 13 15 15 14 15 16 15 14 16 15 13 16 9 10 9 11 9 11 11 9 11 10 9
12 22 23 26 33 32 19 18 15 19 18 16 15 15 13 11 11 14 18 20 18 15 14 15 16 18 18 17 18 12 15 11 10 13 12 7 8 9 10 7 3 12 9
10 15 23 20 26 20 17 16 12 14 16 16 15 14 14 12 15 16 16 16 19 22 19 18 20 21 21 22 21 13 11 11 14 12 10 10 8 10 9 8 8 8 13
4 16 16 14 16 23 14 11 10 16 18 13 14 17 17 15 15 17 19 23 25 21 22 24 23 27 29 27 24 13 9 8 11 8 11 9 9 9 10 11 11 12 15
7 10 7 13 16 12 12 11 13 14 13 15 11 14 16 17 19 19 23 25 29 26 28 26 34 33 31 30 26 25 16 8 5 5 9 9 11 8 11 12 12 13 15
16 14 12 13 19 22 19 8 12 16 17 9 15 19 13 14 18 19 20 22 20 21 20 22 25 35 29 29 22 23 21 17 11 10 11 8 10 13 11 11 14 16 17
12 13 14 16 22 21 24 22 24 24 27 26 16 15 13 18 18 22 31 34 26 22 16 26 26 23 20 21 21 17 14 13 11 13 16 14 12 15 16 17 16 17 18

GFSSE_850_spd_084.txt.gz
Wind_Speed
12 11 24 23 21 19 17 17 16 16 16 14 14 12 11 10 11 12 13 10 10 15 18 21 19 17 14 15 16 16 17 18 17 15 14 14 14 14 14 13 10 14 13
11 10 23 23 21 19 16 15 14 15 17 17 15 15 13 12 12 13 11 10 12 16 19 18 22 17 14 15 16 16 17 18 17 15 13 12 11 11 11 9 9 9 8
11 13 23 21 19 18 16 14 13 14 17 20 19 18 16 14 14 14 12 11 13 17 18 18 19 16 17 15 16 17 18 18 18 16 14 12 12 11 10 8 8 8 7
17 13 22 21 19 18 15 13 12 14 15 18 20 19 19 17 16 16 13 15 18 18 19 21 19 17 16 15 15 16 16 17 19 15 7 9 11 11 10 10 9 9 8
17 15 18 21 19 17 14 12 13 13 13 17 21 21 21 20 18 18 15 18 19 19 21 19 19 16 14 13 13 14 14 16 16 11 4 6 9 10 10 10 10 9 9
15 15 14 20 19 17 14 13 14 13 13 20 22 23 22 22 19 18 17 20 20 21 20 19 17 15 13 12 12 12 13 13 12 8 4 3 6 10 10 9 10 10 9
15 13 15 19 19 16 15 14 15 14 14 22 23 23 23 22 21 20 21 22 21 21 20 17 17 14 12 11 11 11 11 12 11 11 1 5 8 9 9 9 10 9 9
19 16 18 18 16 16 14 15 16 15 14 20 22 23 24 22 22 21 22 22 22 21 19 16 15 13 12 10 9 9 10 12 9 9 1 4 5 6 7 7 8 8 9
23 22 15 18 17 14 14 15 15 15 14 20 23 24 25 22 23 22 23 23 22 21 19 16 14 12 10 9 8 8 8 9 7 5 3 3 4 4 5 6 7 7 8
25 25 22 16 12 14 14 16 17 15 17 19 24 27 23 21 20 25 24 24 22 20 18 16 13 11 9 8 6 6 7 7 4 7 4 2 3 3 5 6 7 7 8
35 21 26 11 12 8 13 18 20 18 20 22 25 23 22 20 19 25 26 25 22 19 17 15 13 10 8 7 6 5 5 4 3 2 3 2 3 3 4 6 7 7 7
33 31 58 50 29 14 16 21 23 22 23 26 27 26 22 20 20 22 24 24 22 19 17 14 12 10 8 6 4 4 4 4 5 5 6 4 2 3 4 5 7 7 7
30 28 38 46 46 43 30 18 29 27 26 29 27 24 21 15 18 23 22 23 21 19 16 13 11 9 8 6 4 5 4 4 4 5 5 4 3 3 4 4 4 6 9
22 21 25 38 36 49 39 35 32 30 28 29 31 26 17 16 21 22 20 20 19 17 15 13 11 9 10 9 9 5 5 5 6 8 8 7 8 7 4 5 8 7 8
22 14 10 16 25 45 33 31 34 28 26 28 25 24 23 21 22 16 17 20 18 16 13 10 9 7 8 9 8 8 8 6 5 7 7 8 9 10 9 7 8 10 8
20 15 11 14 13 26 33 27 38 30 27 24 25 27 28 28 24 25 18 17 16 15 15 13 12 12 10 7 8 9 10 10 10 8 9 8 10 10 11 9 8 9 10
20 21 13 11 10 23 24 11 31 32 30 26 28 28 26 26 23 22 19 18 17 15 12 12 10 8 11 11 12 10 11 10 10 8 10 13 10 11 10 11 11 9 9
20 24 14 13 2 13 11 22 22 26 23 26 23 25 21 20 19 20 17 15 13 12 12 13 14 15 15 15 14 13 12 12 12 11 9 9 11 13 16 15 14 12 11
22 19 16 19 9 22 8 19 18 23 24 22 23 23 23 19 18 16 16 13 10 11 13 13 15 14 16 16 14 12 12 15 13 13 12 14 13 14 19 16 14 12 10
18 17 13 14 15 24 21 22 20 20 20 23 22 20 19 18 17 17 16 15 14 14 14 13 14 14 16 14 14 14 18 19 16 14 14 15 17 19 16 13 12 9 7
17 15 18 17 18 26 24 25 24 19 20 20 20 18 17 17 17 14 14 17 19 17 13 11 12 13 16 16 17 20 22 21 19 17 18 18 18 14 10 8 11 10 10
9 10 17 18 23 29 22 18 14 21 22 18 17 19 19 17 16 15 14 14 16 20 17 15 15 16 18 18 22 20 19 21 17 19 23 23 14 13 10 8 8 12 12
11 9 15 16 29 30 19 16 16 16 21 18 15 14 15 13 13 14 16 17 16 16 18 19 19 20 21 21 23 23 11 10 16 23 19 13 10 10 11 9 9 11 14
9 4 11 10 16 25 20 13 12 11 11 14 11 11 13 16 16 17 17 16 16 18 21 21 22 25 20 27 28 26 29 11 13 11 14 11 10 9 11 12 12 12 14
10 8 11 9 17 16 10 14 9 7 10 8 9 17 10 18 17 18 21 23 22 19 22 25 22 21 23 20 25 28 41 33 14 10 9 6 12 10 12 15 16 16 15
10 9 8 9 13 20 16 11 16 9 12 7 15 16 22 24 20 26 18 21 23 23 26 26 21 21 22 21 31 19 28 34 22 16 11 10 18 18 14 16 19 17 18

GFSSE_850_spd_087.txt.gz
Wind_Speed
12 17 24 23 22 21 19 18 17 16 16 15 15 13 12 13 14 16 13 12 16 20 20 18 17 13 15 16 16 16 17 15 14 13 13 14 15 15 13 9 12 14 13
13 17 22 23 22 20 19 18 17 16 15 15 16 14 13 12 13 15 13 13 17 20 21 18 15 14 16 17 17 17 17 15 15 14 11 11 11 10 10 9 10 9 9
10 11 23 23 22 20 18 17 16 16 16 16 17 15 14 13 14 16 12 13 18 21 21 21 15 16 16 17 18 19 17 15 14 15 12 11 10 10 10 10 10 9 8
12 11 18 22 21 19 17 15 15 16 18 18 18 17 16 16 15 15 13 15 18 20 21 21 19 18 16 17 18 18 16 14 10 12 11 10 10 10 11 11 11 10 9
15 11 10 19 18 17 16 14 13 14 17 19 20 19 19 18 17 16 16 17 18 21 22 21 19 17 16 17 17 16 15 12 8 8 9 9 9 11 11 11 10 10 10
15 13 9 17 17 16 14 12 11 13 14 19 21 22 21 21 19 19 19 21 21 23 22 21 18 17 15 16 16 16 14 11 8 4 8 9 9 10 10 10 10 10 10
17 13 12 14 15 15 13 11 11 12 13 17 23 24 23 23 22 20 21 23 22 23 22 20 18 16 15 14 14 14 12 11 8 6 8 7 9 9 9 9 10 9 9
17 15 13 12 14 13 12 10 11 12 12 18 22 24 24 24 22 22 21 23 23 23 20 20 17 16 15 13 13 12 10 11 7 4 6 7 7 7 7 8 8 8 8
16 18 20 19 16 9 7 7 10 12 11 19 22 24 24 24 23 23 23 23 23 23 21 19 17 14 13 12 11 11 9 8 6 4 5 5 5 6 6 6 7 7 8
17 20 22 21 22 18 13 8 10 13 13 18 23 24 25 25 24 23 24 22 24 23 20 18 16 13 12 11 10 10 9 7 5 3 2 4 4 4 5 6 6 7 8
19 20 22 24 25 21 16 6 10 15 15 17 24 26 29 28 27 24 26 24 25 23 21 18 15 13 11 10 9 9 9 7 6 3 2 2 3 3 3 4 5 5 6
20 22 23 24 16 14 7 12 9 13 20 19 26 30 30 25 27 28 27 26 25 23 21 18 15 13 11 9 8 8 7 6 4 1 2 2 2 2 3 3 3 4 5
18 23 28 32 37 34 49 47 35 18 22 24 26 33 31 26 24 29 30 28 26 23 20 18 15 13 11 10 9 9 7 6 5 3 2 2 3 5 5 4 3 5 5
18 20 23 21 17 25 46 47 45 44 28 31 30 30 30 25 23 29 30 27 25 23 20 17 14 12 11 11 10 9 8 6 8 7 4 4 5 7 7 7 6 5 6
20 21 17 13 14 14 36 28 29 32 26 39 37 34 26 24 24 28 28 26 25 22 19 17 15 13 12 10 9 9 8 5 7 7 7 5 6 8 8 7 8 8 8
19 20 18 12 12 9 17 20 23 25 31 43 40 37 30 27 24 26 26 26 25 23 20 17 14 13 11 8 10 12 11 10 7 8 9 9 9 11 9 7 7 9 10
17 19 22 17 12 14 19 15 25 35 38 42 36 33 33 29 25 26 25 26 25 22 18 16 12 12 12 10 10 10 10 11 11 8 11 12 12 10 10 11 12 11 10
20 22 23 19 14 12 19 15 24 24 35 35 33 35 33 33 29 26 24 23 21 19 17 16 15 14 14 14 13 12 13 13 10 11 12 11 13 12 13 15 16 16 12
18 20 21 19 19 9 11 21 14 27 32 33 33 35 34 33 30 29 26 22 20 19 18 16 16 17 18 17 17 16 15 17 14 14 16 15 14 17 17 17 18 16 12
18 18 14 18 20 20 18 20 13 30 29 35 36 38 35 31 29 29 25 22 20 17 15 15 16 17 16 16 15 18 16 17 17 15 16 15 17 17 19 21 17 12 9
16 14 14 15 16 22 22 25 29 32 31 27 32 39 33 28 28 27 25 23 21 20 17 14 14 15 15 16 14 15 18 18 18 18 21 21 21 23 21 17 13 9 7
13 12 14 17 18 16 18 27 23 24 21 21 28 25 27 28 28 26 26 25 24 23 21 19 16 14 13 14 16 17 17 22 25 23 26 26 24 24 21 14 12 10 9
7 10 11 17 20 23 22 22 22 23 25 22 23 22 21 24 22 23 21 21 21 22 22 22 20 18 18 17 19 18 8 12 15 23 28 25 25 22 15 12 11 11 12
3 1 8 9 17 31 28 17 13 19 24 23 19 23 19 21 20 18 16 16 15 15 16 14 16 16 20 22 21 25 25 22 8 7 22 28 21 15 12 10 11 14 14
8 7 3 5 6 28 30 15 13 12 15 20 15 15 16 14 13 13 15 18 19 19 16 19 21 23 28 30 26 28 25 28 31 25 11 17 17 12 11 15 16 16 15
7 4 6 8 9 12 11 2 13 6 9 10 12 11 9 14 21 21 23 21 20 19 22 22 22 24 24 24 25 26 26 25 29 30 23 20 14 11 13 16 19 19 19

GFSSE_850_spd_090.txt.gz
Wind_Speed
11 22 27 25 23 22 20 20 19 18 17 16 15 15 14 14 13 13 12 12 14 16 20 17 13 12 12 13 14 15 13 14 12 13 14 14 14 11 9 8 13 14 14
5 20 25 24 23 21 20 19 17 16 16 15 14 14 13 14 15 16 12 14 18 18 18 16 13 15 15 15 16 15 14 14 13 12 11 11 10 9 9 9 11 10 10
10 15 23 23 23 21 20 19 17 15 15 15 15 14 13 14 15 16 13 16 19 19 18 15 16 16 16 17 18 16 15 14 14 13 11 10 10 10 10 10 10 9 8
11 11 21 23 22 21 19 17 16 15 15 14 15 15 13 14 15 17 14 17 21 20 17 15 17 17 18 18 17 15 13 13 12 11 10 9 10 10 10 10 11 10 9
12 11 18 21 21 19 18 16 15 15 16 15 15 16 16 16 16 17 14 17 21 20 19 18 18 17 19 18 16 12 10 11 11 11 9 9 9 11 10 10 10 9 9
15 12 12 21 20 17 16 14 12 13 15 17 18 18 18 18 17 17 16 17 18 20 20 21 19 18 18 16 15 11 9 8 9 9 9 9 9 10 10 9 9 9 9
15 15 14 17 17 17 15 13 12 11 13 16 19 21 21 20 19 19 18 18 22 22 23 18 19 17 17 16 15 11 7 7 10 9 9 8 8 8 8 8 8 8 8
15 19 17 15 14 14 12 9 9 11 11 15 19 22 23 22 21 21 22 22 22 22 22 20 19 17 16 16 14 11 9 7 9 6 7 6 6 6 6 6 6 7 7
17 18 22 20 21 21 19 16 14 12 11 11 18 22 23 23 23 23 24 23 22 25 21 20 18 17 16 15 13 11 8 7 6 6 6 5 4 5 5 5 6 7 8
15 18 20 22 23 21 20 18 15 14 11 8 17 20 22 24 24 24 24 24 22 21 21 21 18 17 16 14 13 12 9 6 5 4 3 3 3 3 4 4 5 6 6
15 17 19 22 23 23 21 17 16 14 11 10 15 19 23 25 25 27 25 24 25 23 22 21 18 16 15 14 13 12 10 7 5 4 2 2 2 2 2 3 3 3 4
15 17 20 21 21 24 22 16 13 13 2 8 10 23 26 29 30 30 27 26 27 26 23 21 18 16 15 14 13 13 11 8 6 4 2 1 2 2 3 3 2 3 3
15 17 18 19 19 19 19 18 11 6 7 14 13 20 31 33 35 33 30 30 30 28 26 23 20 18 15 14 13 13 11 10 7 3 1 1 1 4 4 3 3 3 3
15 14 16 19 22 22 18 26 35 27 28 25 24 24 35 38 40 39 34 34 32 30 27 24 21 18 16 15 14 14 13 10 9 6 4 1 3 3 6 5 5 5 6
17 16 17 18 20 20 21 25 27 31 40 38 22 29 32 39 43 33 35 35 33 30 27 24 21 19 17 16 15 14 13 10 10 7 6 5 4 6 8 7 6 7 7
17 20 19 19 21 20 18 21 23 22 37 39 31 31 37 36 36 29 37 35 31 30 27 24 22 20 18 16 15 15 14 12 9 9 6 7 9 9 9 9 7 8 9
14 13 13 18 21 19 18 19 20 17 31 37 32 38 45 39 35 25 31 33 32 30 27 24 21 19 18 16 14 14 14 14 13 12 10 9 12 11 10 12 12 12 12
15 16 15 17 23 20 22 20 21 23 21 28 35 39 46 41 38 28 31 31 31 30 28 25 22 21 20 18 15 15 15 14 11 12 13 12 13 13 14 14 15 14 15
16 17 17 20 21 22 20 17 24 25 27 17 30 39 41 40 34 35 29 29 31 30 28 26 24 21 20 19 17 16 15 17 17 16 14 15 16 15 16 18 17 17 17
17 18 16 18 21 24 24 23 23 26 21 19 21 28 36 40 37 34 30 29 29 30 27 25 24 23 23 20 18 18 19 19 20 19 18 18 19 18 19 19 18 20 16
14 18 16 16 16 22 26 27 23 24 27 22 28 32 31 34 36 35 31 30 30 29 29 27 25 24 24 22 21 20 21 20 19 18 18 20 20 19 22 21 22 19 14
15 20 17 17 19 19 18 22 26 25 30 29 34 35 31 31 33 35 35 33 30 31 29 27 26 25 24 22 22 17 16 18 23 21 20 23 26 24 25 24 22 19 13
15 15 15 17 18 20 22 23 25 25 29 31 29 42 36 34 35 35 37 36 34 31 31 29 28 27 25 24 23 16 10 13 18 24 27 27 26 27 26 26 22 17 13
6 10 14 18 14 19 21 22 30 30 26 24 29 31 37 35 32 32 36 33 32 30 29 28 28 24 23 22 22 23 21 16 12 9 15 21 26 24 23 22 17 12 12
3 2 4 10 2 10 22 20 15 30 23 19 22 25 21 22 32 29 28 26 26 26 26 24 24 25 25 25 22 24 31 32 32 28 23 26 29 30 19 15 14 13 12
5 6 6 4 3 11 19 10 4 11 11 16 20 21 25 21 23 25 24 20 18 20 23 22 23 25 28 28 27 32 34 35 39 37 35 32 31 30 28 26 19 18 16

GFSSE_850_spd_093.txt.gz
Wind_Speed
16 15 22 24 21 21 22 22 19 18 17 15 14 14 13 12 11 10 9 8 11 16 16 13 13 12 15 13 12 14 12 13 14 14 13 12 11 9 9 10 13 15 15
6 16 22 24 21 20 20 20 19 18 16 14 12 13 13 12 12 12 10 10 13 18 14 11 11 13 12 13 13 12 12 12 12 11 10 9 9 8 8 9 10 10 10
7 17 22 23 21 19 18 18 17 17 15 14 13 13 13 12 12 14 12 14 15 16 14 10 12 13 14 14 14 13 12 12 11 10 9 8 8 9 9 9 9 8 8
12 16 21 23 22 21 19 17 16 15 15 14 14 12 12 13 14 15 13 16 17 17 14 11 13 14 15 15 14 13 12 11 11 10 9 8 8 8 9 9 9 9 8
13 14 19 21 21 19 18 17 15 15 14 14 13 13 13 13 14 16 15 18 19 17 14 14 14 15 16 15 13 11 11 10 9 9 8 8 8 9 9 8 8 8 8
12 13 18 20 19 18 17 16 15 14 14 14 14 15 15 15 15 17 16 20 22 19 16 18 16 17 16 13 10 9 9 9 9 8 8 8 7 8 8 8 8 8 8
15 15 17 19 19 18 17 15 14 14 14 15 16 17 17 17 17 17 16 19 21 20 17 20 18 17 15 12 10 8 7 8 9 9 7 6 6 7 7 7 7 7 7
16 19 18 19 20 18 17 15 14 13 14 15 17 19 19 20 20 17 17 17 20 23 19 21 19 18 16 13 9 7 7 8 7 7 6 5 5 5 5 6 6 6 7
15 20 23 23 24 25 24 21 18 16 16 15 17 20 21 21 21 19 21 20 23 22 22 20 20 18 17 14 11 8 7 7 6 6 5 4 3 4 4 5 5 6 7
15 18 18 21 22 23 24 22 20 19 17 14 16 19 21 22 22 20 24 23 21 23 22 20 21 19 17 15 12 10 8 7 7 5 4 3 2 2 3 4 4 4 5
19 18 20 20 21 22 22 22 19 18 16 12 12 15 17 22 23 23 26 26 21 24 23 22 20 20 18 16 14 12 10 8 7 5 4 2 1 2 2 3 2 3 3
20 20 20 19 21 20 18 20 17 17 16 14 8 14 17 21 25 27 28 27 23 23 24 24 22 20 19 17 16 15 12 9 7 6 4 1 1 1 3 3 2 2 1
17 19 19 19 18 18 16 16 21 17 15 13 5 6 16 22 26 30 30 30 27 29 27 25 23 22 20 19 17 15 14 12 9 7 5 2 1 1 2 2 3 4 3
18 15 14 15 16 16 16 16 17 19 21 22 22 14 15 24 29 33 34 33 31 32 30 27 25 23 21 19 18 17 17 14 11 9 6 4 4 2 2 3 4 5 5
20 19 20 19 19 20 22 24 26 28 28 28 27 29 26 19 29 36 39 39 34 34 33 31 27 24 22 21 20 19 18 16 14 12 10 7 4 2 4 5 5 5 6
20 20 20 19 20 21 23 23 21 24 28 31 40 37 34 33 26 39 43 44 37 36 35 33 29 26 23 22 21 19 18 17 14 13 11 8 7 6 7 8 7 6 7
23 25 23 21 21 23 23 21 22 23 27 26 34 36 36 40 31 37 36 42 38 36 37 33 30 26 25 23 22 20 19 18 17 14 13 11 11 11 10 11 11 10 9
23 21 21 18 20 20 20 23 24 22 26 25 26 34 39 41 44 36 39 39 36 37 39 34 31 29 27 26 23 21 21 20 18 17 15 14 15 12 13 15 15 15 13
21 22 22 21 21 23 23 25 25 23 24 28 27 31 43 46 42 41 40 35 32 34 37 34 33 31 28 27 24 20 20 19 18 18 18 18 17 14 15 16 17 17 15
20 23 20 19 20 23 24 26 28 28 26 28 31 32 40 41 46 43 39 36 32 37 38 38 35 31 30 27 23 22 21 21 20 23 22 22 18 19 20 19 17 18 19
15 16 17 19 19 22 25 29 31 30 29 27 30 28 35 45 38 42 37 36 31 35 38 38 34 32 30 26 22 22 23 23 23 24 25 23 24 21 20 19 19 20 20
12 15 18 20 20 22 24 26 27 28 27 29 28 30 30 30 34 37 35 32 36 38 38 37 35 33 31 27 27 23 22 26 28 26 25 26 22 21 21 23 22 22 21
12 13 17 20 23 24 23 24 24 26 28 30 29 34 36 36 31 31 35 34 33 36 38 37 34 34 33 30 29 20 10 12 19 28 29 26 26 26 26 26 24 23 21
9 11 14 15 19 24 25 23 24 29 32 32 34 37 41 37 33 29 24 30 31 33 34 34 35 36 33 31 32 32 23 10 9 10 27 32 33 33 32 33 30 26 21
2 3 5 7 11 13 17 19 21 24 35 33 29 23 38 33 33 27 30 32 33 35 36 35 36 35 36 35 33 33 34 28 24 23 23 25 31 35 33 34 33 32 28
6 5 5 4 1 6 6 10 4 7 8 24 16 17 33 35 32 32 27 26 31 33 32 32 30 31 29 28 28 26 28 30 33 32 35 33 34 35 36 37 35 33 31

GFSSE_850_spd_096.txt.gz
Wind_Speed
13 14 20 22 22 21 18 17 17 16 15 14 14 13 12 11 9 7 5 6 11 15 13 15 14 16 15 13 12 12 12 15 15 14 10 10 9 10 10 11 13 15 14
9 12 18 22 18 19 21 19 17 15 14 13 13 13 12 11 10 9 7 8 12 15 13 13 11 15 12 11 13 12 12 12 11 11 9 8 8 8 9 8 7 10 10
4 11 17 21 19 19 19 18 16 15 14 12 11 12 13 12 11 10 9 9 16 14 12 11 12 13 13 13 13 12 12 11 10 9 8 8 8 8 8 8 8 7 8
5 13 19 21 20 19 19 17 16 15 14 12 11 11 11 11 11 12 11 12 14 14 10 9 12 13 13 13 13 12 11 10 10 9 8 7 8 8 8 8 8 8 8
8 13 17 20 20 18 17 16 16 15 14 13 12 11 11 11 12 13 13 14 14 15 10 10 13 14 14 14 12 11 10 9 9 9 8 8 8 8 8 8 8 8 7
9 10 15 18 19 18 17 17 16 15 14 13 13 12 13 12 11 17 16 17 17 16 12 12 13 14 14 13 11 9 9 9 9 8 8 8 7 7 7 8 8 7 7
11 12 14 16 17 17 17 16 15 14 14 15 15 15 15 14 14 14 16 20 19 17 15 15 15 15 14 12 10 9 8 8 8 9 7 6 6 6 6 7 7 7 7
10 13 15 15 16 17 17 16 16 16 17 17 16 17 17 16 17 15 17 20 20 19 16 19 17 16 14 11 10 8 8 9 8 8 7 5 5 5 5 6 6 7 7
14 15 17 18 20 23 23 22 21 19 18 17 18 18 18 18 18 19 17 19 21 22 17 21 19 18 15 12 10 8 8 8 7 7 6 4 4 4 4 5 5 6 6
13 15 19 20 22 23 22 21 19 19 17 17 16 18 19 19 19 20 18 20 20 22 21 21 20 19 17 14 11 9 8 8 7 6 5 4 3 3 3 3 3 4 5
15 16 19 19 21 20 21 22 21 18 18 17 14 17 19 19 20 20 20 23 22 22 23 20 23 21 19 16 14 11 10 9 8 7 5 4 3 2 2 2 2 2 3
16 19 21 20 20 20 17 18 19 19 18 16 14 13 16 19 19 21 22 25 25 20 24 24 21 22 21 19 17 16 13 11 9 8 6 4 3 2 1 0 1 1 1
16 19 21 21 22 19 18 14 15 18 17 16 10 5 10 14 18 21 24 26 27 23 24 24 24 24 23 22 20 17 15 13 11 10 8 6 5 4 2 2 1 1 1
19 17 17 17 15 18 16 15 15 16 17 16 11 13 15 12 14 21 26 30 31 28 27 27 28 26 26 23 21 20 18 16 14 11 9 9 8 5 2 0 3 2 2
17 20 18 18 17 19 19 18 19 18 19 22 23 24 23 28 22 17 26 32 34 33 31 32 31 29 27 25 24 22 21 19 17 15 13 11 8 6 5 3 3 3 3
15 18 20 21 21 21 20 21 22 24 26 29 29 29 31 31 29 29 24 27 37 38 36 36 34 30 28 27 26 24 22 21 19 17 16 15 12 10 7 6 5 5 6
18 16 17 21 23 23 24 24 24 24 25 27 27 26 30 38 36 28 32 27 28 42 42 36 36 32 30 29 28 26 23 22 22 19 17 17 15 14 11 9 8 8 8
24 20 20 24 23 24 24 23 22 23 24 26 28 27 27 33 40 35 34 36 33 20 48 38 33 33 32 31 30 28 26 24 24 22 19 19 18 17 16 13 13 12 11
27 22 21 22 21 21 22 22 23 24 27 26 26 25 28 30 34 39 40 40 40 33 39 46 37 39 36 34 32 30 27 26 26 24 23 22 21 20 18 16 15 14 13
28 23 22 22 20 19 21 22 25 28 30 30 28 27 26 30 34 36 40 40 44 42 39 44 43 36 35 36 33 30 27 27 25 26 24 23 24 22 21 19 18 18 15
23 24 22 20 18 21 21 23 27 30 31 30 31 31 29 31 33 35 38 39 41 45 40 42 43 39 39 36 31 30 28 29 27 28 25 28 27 26 23 23 22 20 17
18 12 15 18 20 20 21 23 26 27 28 30 31 29 28 30 28 34 36 40 38 37 37 48 45 40 38 40 33 30 25 30 30 31 29 29 30 28 26 25 26 23 21
16 15 16 17 18 19 21 22 24 26 30 31 32 31 30 29 31 26 37 43 46 44 36 38 36 45 45 41 36 25 13 15 24 34 33 32 32 31 28 27 25 27 26
8 8 13 16 19 21 23 24 25 26 27 30 33 35 26 28 29 34 33 32 33 34 33 34 38 37 40 39 37 38 31 13 12 11 26 33 33 31 29 29 29 31 29
3 1 4 3 7 14 15 15 17 18 19 30 28 23 24 31 34 33 39 32 28 31 33 39 41 40 44 43 37 37 37 37 24 14 9 14 26 32 34 35 35 35 34
2 2 1 5 3 2 1 6 12 11 7 16 5 15 13 20 26 32 22 24 22 24 22 29 36 35 37 40 42 39 40 40 40 35 29 28 30 30 31 35 38 39 37

GFSSE_850_spd_099.txt.gz
Wind_Speed
8 14 19 19 18 16 16 16 16 13 12 11 10 10 9 9 7 5 4 6 10 10 12 11 14 14 14 13 11 11 15 16 14 11 8 9 11 11 11 13 14 15 14
7 12 19 20 19 17 14 15 14 14 12 12 12 11 11 10 8 7 5 8 12 12 13 13 15 15 13 12 12 12 13 12 11 10 8 9 9 9 8 7 8 9 10
1 9 16 19 19 18 17 15 15 13 12 11 10 11 11 11 10 9 8 9 14 14 12 13 12 13 12 13 13 11 11 10 10 9 8 9 9 8 8 7 8 8 7
5 7 15 19 19 18 18 16 15 14 13 11 10 10 10 11 10 9 9 10 15 14 11 9 11 13 13 13 12 12 10 9 9 9 8 8 9 8 8 8 8 8 7
6 8 15 19 18 17 16 16 15 14 13 12 11 9 9 11 10 11 10 13 14 15 10 7 11 12 13 13 12 11 10 9 8 8 8 8 8 8 8 8 8 7 7
5 10 13 17 18 17 16 16 15 15 14 13 12 11 10 11 10 12 13 14 16 14 11 9 12 13 14 13 11 9 8 8 8 8 8 8 7 8 7 7 7 7 6
6 10 13 14 17 17 17 16 15 14 15 14 14 13 12 13 11 12 16 16 16 15 13 11 13 14 14 12 10 9 8 8 8 8 8 7 6 6 6 6 6 6 6
7 10 12 13 14 17 17 16 17 17 17 17 16 15 14 14 14 13 15 18 17 16 15 13 14 15 14 12 10 9 8 9 9 8 7 5 5 5 5 5 6 6 6
10 12 14 15 16 18 19 21 21 21 20 18 17 16 16 16 16 16 15 19 19 18 17 16 16 17 15 13 11 10 9 9 8 8 7 5 4 4 4 4 5 5 5
11 15 16 17 18 18 20 20 18 18 17 15 16 17 18 18 17 17 17 16 19 19 18 16 19 19 17 14 12 11 10 10 9 8 6 5 5 4 3 3 3 3 4
11 14 18 19 18 19 20 20 19 18 18 16 15 15 17 19 19 18 19 17 20 19 18 17 20 20 19 16 14 13 12 11 10 9 7 6 5 5 4 2 3 3 3
9 14 17 20 20 20 19 18 18 16 18 16 15 14 14 18 21 20 20 19 21 21 20 20 19 20 21 20 18 16 15 13 12 10 9 8 6 6 5 4 4 3 3
13 13 17 21 22 21 19 18 16 15 16 16 14 10 6 10 15 20 21 20 22 23 22 20 22 23 24 23 22 19 17 15 14 13 11 9 8 7 6 5 4 4 4
16 14 15 17 21 20 19 18 16 15 16 16 14 11 8 9 10 14 19 22 24 25 24 21 27 27 25 25 24 22 20 18 16 14 13 12 10 9 7 4 5 4 4
20 16 17 17 18 20 19 17 18 18 18 19 19 20 15 15 19 18 18 22 25 28 29 26 26 29 29 27 26 25 24 22 20 18 16 14 13 11 10 9 5 3 3
26 20 15 20 19 19 20 20 20 21 21 22 23 25 23 25 27 26 24 24 28 31 31 32 30 32 32 30 29 28 26 24 23 21 19 18 16 14 13 12 11 7 5
30 23 19 17 22 24 24 24 24 25 25 26 26 28 28 26 27 33 31 29 30 34 36 36 35 34 34 31 30 29 28 27 25 25 23 22 20 18 16 13 11 12 8
31 28 22 19 19 23 25 26 25 26 27 27 27 27 26 24 24 28 33 37 33 33 38 40 39 37 37 35 35 31 30 29 29 28 26 24 23 22 21 18 15 13 12
29 30 27 23 21 23 26 26 25 23 25 26 28 27 26 25 24 29 31 34 37 36 38 37 41 41 40 37 38 34 32 31 31 30 29 28 25 26 24 21 21 19 16
28 28 27 25 22 22 22 21 22 24 26 28 29 28 27 28 27 29 31 32 32 36 39 42 40 37 44 46 43 38 33 30 34 34 33 30 30 29 27 25 23 24 21
26 25 24 23 20 20 20 21 23 25 26 28 29 29 30 29 30 31 32 36 37 40 41 43 44 42 50 48 39 39 41 37 37 36 35 34 32 32 30 28 26 26 24
19 19 19 19 17 18 19 21 21 23 25 27 28 29 30 28 27 28 29 32 31 36 42 45 43 45 49 51 44 35 28 35 40 38 38 36 35 32 32 30 28 29 26
2 12 16 16 15 18 19 21 24 24 26 27 27 30 30 29 30 30 29 31 31 42 44 43 44 47 49 49 47 31 15 17 20 33 43 39 37 36 34 34 31 31 29
5 10 16 16 14 16 20 23 25 25 23 23 26 31 31 32 31 31 30 29 30 34 45 46 43 51 53 53 43 37 32 23 15 21 27 33 40 38 36 34 33 33 32
5 2 3 3 7 13 14 16 17 17 16 14 15 19 18 20 21 27 31 29 30 32 25 31 41 40 46 43 45 36 39 40 39 26 17 19 25 36 39 36 35 33 30
2 1 0 2 4 6 4 9 10 13 11 9 5 10 15 13 20 22 24 24 27 29 23 25 22 29 39 37 36 36 35 38 44 43 35 32 27 22 22 25 31 32 34

GFSSE_850_spd_102.txt.gz
Wind_Speed
4 8 12 14 15 15 15 15 13 11 11 11 10 9 9 7 5 4 3 6 8 8 9 10 12 12 11 10 9 12 12 13 12 9 9 11 11 11 12 14 13 12 11
2 9 13 15 14 14 15 15 13 11 10 10 9 9 9 9 7 5 4 6 8 8 9 10 11 12 11 10 10 11 11 10 8 7 7 8 9 9 8 6 8 9 11
2 9 14 17 16 15 14 14 14 13 12 11 9 10 9 9 9 7 6 8 10 10 11 11 12 12 11 11 10 11 9 8 7 6 5 6 7 7 6 6 6 6 6
5 8 12 17 17 17 15 14 14 13 12 11 10 9 10 10 11 9 8 9 13 12 11 11 12 12 10 11 10 10 9 8 7 6 6 6 6 7 6 6 5 5 4
3 7 11 16 18 18 17 16 14 14 12 11 10 9 9 10 9 9 10 11 14 14 11 6 10 9 12 11 10 9 9 7 7 7 7 7 6 6 6 5 5 5 4
3 6 11 15 16 16 16 15 15 14 13 13 11 9 7 10 7 10 11 12 15 15 11 7 9 10 12 11 11 9 8 7 7 7 7 7 6 5 5 5 5 4 4
5 8 10 13 15 15 15 15 15 14 14 13 12 11 11 12 10 9 12 13 15 15 12 9 10 11 13 12 10 9 8 8 8 7 6 6 5 4 4 4 4 4 4
6 7 10 12 13 15 15 15 15 15 15 15 14 13 13 13 13 12 13 16 15 15 14 11 10 12 13 12 10 9 8 7 7 7 7 6 5 4 4 4 3 4 3
8 10 10 11 13 14 17 18 19 18 17 14 14 15 15 15 14 14 13 14 16 15 15 13 12 13 15 13 11 10 9 8 8 7 6 5 5 5 4 3 4 3 3
8 12 13 14 14 14 17 18 18 17 16 16 16 17 16 16 17 15 16 16 17 17 17 15 14 16 17 15 12 11 10 10 8 9 7 7 6 6 5 4 4 3 3
7 10 15 17 16 15 15 16 16 17 17 16 16 15 15 17 16 18 18 18 16 18 19 17 15 17 18 17 15 13 13 12 9 9 8 9 8 7 6 5 5 4 4
10 8 13 18 20 20 19 18 18 17 17 17 15 15 15 14 15 16 17 18 18 18 20 16 16 17 18 16 17 18 17 12 12 11 10 10 9 8 7 6 6 5 6
18 13 11 15 20 22 22 20 18 16 14 17 15 15 13 11 12 16 15 19 21 20 20 20 19 20 20 18 17 16 15 15 13 13 13 13 11 10 10 8 7 7 7
24 19 16 15 18 23 23 22 21 19 18 18 17 16 14 13 11 10 12 16 19 20 24 22 19 19 21 21 20 19 17 16 15 14 14 15 14 13 12 11 9 9 8
28 26 20 19 18 20 23 23 22 21 18 19 21 18 18 16 13 14 16 15 17 21 23 27 26 21 23 23 23 24 23 20 18 16 15 18 17 15 14 14 11 8 9
27 29 25 22 19 21 22 24 24 23 18 19 22 22 21 21 19 19 21 22 23 20 22 25 27 24 28 25 25 23 25 26 22 21 18 17 20 18 17 18 18 16 12
25 28 29 25 22 23 22 24 26 26 24 23 23 26 26 28 28 27 27 28 30 30 26 27 28 29 34 33 35 31 31 31 28 24 25 23 21 22 21 20 19 19 18
27 28 27 27 26 24 25 25 26 26 26 26 26 28 28 30 30 28 27 27 27 28 33 34 34 36 38 38 37 33 32 31 26 24 21 24 24 25 25 24 23 20 19
24 24 27 28 28 24 24 25 28 27 27 27 29 30 31 28 28 27 26 26 25 30 34 36 36 40 40 42 42 38 43 39 33 25 22 22 26 27 27 28 26 25 22
25 28 29 28 27 25 25 25 27 27 26 27 27 28 28 28 29 29 27 29 25 24 27 32 36 36 39 42 44 45 46 44 44 39 34 26 24 26 30 29 30 30 28
21 27 27 27 25 23 24 25 24 24 23 24 25 27 28 31 32 32 31 32 31 28 27 28 31 37 39 40 36 39 46 47 45 40 37 36 33 30 33 34 34 35 32
12 11 15 18 20 19 21 21 19 18 19 21 23 26 28 30 32 31 31 32 31 31 30 32 37 39 40 40 41 32 31 40 48 44 42 38 35 33 40 38 37 38 36
8 3 3 10 15 19 18 18 17 19 22 25 25 27 30 31 32 32 33 34 34 33 35 36 35 39 42 44 41 35 14 21 36 39 49 41 32 45 41 39 38 38 38
9 2 2 4 13 16 21 15 15 17 16 17 23 24 26 28 30 33 34 36 36 35 36 36 37 41 47 46 43 47 39 25 22 23 30 32 35 34 41 44 42 39 41
8 9 7 2 5 12 7 11 13 15 16 15 17 16 10 12 20 23 28 31 34 35 34 34 29 43 46 44 46 38 49 37 25 19 22 26 25 25 38 43 47 44 41
7 6 8 6 6 5 5 8 10 9 12 16 14 10 10 10 13 16 27 28 30 33 33 33 34 32 41 47 44 40 38 46 41 29 27 24 26 31 29 28 30 36 36

GFSSE_850_spd_105.txt.gz
Wind_Speed
4 8 5 9 11 13 13 12 9 8 9 9 7 6 5 4 2 0 1 3 5 5 7 8 9 8 9 7 10 9 10 11 9 7 7 7 8 8 11 13 11 7 9
5 7 7 10 10 12 13 12 9 7 8 8 6 6 6 7 5 2 1 2 4 5 6 8 7 8 8 5 6 7 9 7 5 4 5 4 5 6 6 6 7 8 8
2 3 9 11 11 11 12 12 11 9 8 8 6 6 6 6 7 5 3 4 4 6 7 8 8 7 6 6 7 7 6 4 3 4 5 4 3 5 4 4 3 5 5
4 2 7 10 13 13 12 12 12 11 10 8 7 7 7 7 7 7 6 7 7 8 8 6 8 10 9 7 7 8 6 4 3 5 7 3 2 3 3 3 3 4 3
3 2 7 13 14 15 14 13 13 12 11 9 9 8 8 8 9 9 8 8 10 10 10 5 8 9 8 8 7 7 6 5 4 5 5 4 2 3 3 3 3 3 2
3 4 6 12 14 14 14 14 13 13 12 11 10 9 8 8 7 6 6 8 13 12 12 7 6 7 8 8 8 7 6 5 5 3 3 6 5 2 2 2 1 2 2
4 5 5 10 13 14 12 13 14 13 12 11 10 9 9 9 10 7 10 10 13 12 12 9 8 9 10 9 9 7 6 6 5 4 3 3 7 3 3 2 2 2 1
6 4 7 7 11 13 13 14 14 14 14 14 13 12 12 10 11 11 11 12 13 14 13 11 8 10 11 12 10 8 7 7 6 5 5 3 8 4 3 3 2 2 1
9 5 8 9 10 13 15 16 16 16 15 14 13 13 13 13 13 13 13 13 15 14 15 13 11 10 12 14 12 10 9 7 7 6 5 6 7 6 4 3 3 2 2
10 8 9 12 12 11 12 17 18 17 16 15 15 14 15 15 17 16 15 16 13 16 15 15 13 12 13 15 14 12 11 10 9 8 7 9 12 8 6 5 4 4 3
12 12 10 11 15 15 14 14 16 16 16 15 15 15 15 17 16 16 18 17 17 15 17 17 15 14 15 18 16 15 13 13 10 10 8 14 11 10 8 6 6 6 5
16 16 14 12 14 18 17 14 15 14 16 15 15 16 15 13 11 13 15 17 19 18 18 19 18 17 16 18 20 19 17 15 12 12 12 16 12 12 10 8 8 8 8
20 21 18 17 16 18 18 21 18 16 17 16 15 15 14 15 16 15 16 18 20 21 20 21 22 19 19 19 16 17 21 17 13 15 14 18 14 13 12 10 10 10 9
22 25 24 21 20 19 21 21 21 16 18 18 16 17 15 14 15 15 13 14 14 16 20 20 20 19 19 18 19 19 17 17 18 16 15 20 17 15 13 13 12 12 11
22 23 25 25 24 22 23 24 23 19 16 19 19 19 19 17 19 17 15 15 15 17 20 21 23 22 22 21 22 23 21 20 18 17 16 19 19 19 17 16 16 13 12
21 22 22 23 25 24 25 24 26 23 19 17 15 15 18 19 20 18 16 16 19 16 17 20 24 24 23 26 24 25 26 24 21 20 19 18 21 21 20 19 19 20 16
22 22 23 23 26 24 25 27 27 29 23 21 17 16 16 16 18 20 20 20 21 23 28 23 24 24 27 28 26 26 27 27 24 24 22 21 20 22 23 22 22 21 22
23 23 23 22 21 20 22 25 26 26 28 26 20 17 17 18 19 19 21 22 23 19 20 24 32 33 34 34 34 30 32 35 33 32 25 23 24 22 20 24 25 24 23
19 21 22 21 22 21 20 20 24 25 26 27 22 19 19 20 19 19 22 23 20 21 27 29 29 32 37 37 36 37 36 39 37 34 32 32 29 27 25 24 24 27 26
18 21 21 22 21 20 21 20 20 20 21 21 21 20 19 19 19 19 20 21 20 22 25 31 29 31 35 38 37 39 40 43 43 40 41 35 29 30 32 30 26 25 28
16 16 17 20 20 19 21 20 19 20 20 19 19 22 20 20 20 21 23 23 23 26 28 29 29 30 32 35 36 37 40 40 45 45 47 43 40 39 31 31 29 29 29
18 19 17 14 17 17 19 21 18 16 17 14 13 18 19 21 23 24 25 28 30 30 30 32 33 36 36 34 33 37 30 33 34 44 48 51 54 47 40 36 34 31 28
17 17 13 11 12 15 19 18 16 20 20 18 17 18 17 19 22 25 27 30 32 33 37 37 36 37 39 37 39 31 18 22 26 34 42 49 53 54 49 42 38 32 28
15 14 12 9 8 13 14 19 18 19 11 7 9 10 12 19 23 27 29 31 35 36 39 39 39 38 39 40 38 41 42 34 16 13 31 38 45 46 48 44 39 33 30
11 11 8 5 2 2 6 10 12 10 9 8 12 16 17 16 14 18 21 26 35 37 40 42 41 41 41 41 38 41 42 47 47 27 23 26 27 33 37 41 36 36 36
9 7 8 10 11 12 9 7 10 11 8 10 12 13 14 14 12 13 13 17 21 31 38 38 39 41 40 40 35 42 43 37 36 38 31 25 28 31 31 34 31 26 30

GFSSE_850_spd_108.txt.gz
Wind_Speed
7 5 3 5 7 10 10 9 6 6 6 7 5 3 2 2 2 3 4 4 4 5 6 8 9 9 8 8 8 7 9 10 9 7 6 6 6 8 10 10 7 6 8
6 2 4 4 6 9 10 9 7 6 6 5 4 2 2 3 1 0 1 2 3 4 6 6 6 8 6 5 5 6 7 5 6 5 4 4 4 6 7 6 6 7 6
5 5 3 5 7 9 10 9 8 7 6 5 3 3 2 4 3 3 2 2 3 3 4 5 5 6 4 2 5 5 3 3 4 6 6 3 2 3 3 3 2 2 2
3 1 4 6 8 9 9 9 8 7 6 6 4 4 3 4 5 3 4 4 4 3 6 6 5 6 5 3 4 5 3 1 4 9 9 4 3 2 2 2 2 3 4
2 5 5 8 9 10 10 9 9 8 8 7 6 6 6 5 5 7 6 5 7 6 8 5 3 7 8 5 5 4 3 2 5 7 7 5 7 1 1 2 2 2 2
3 3 4 5 10 10 12 12 11 10 9 8 8 7 7 6 5 5 4 5 9 8 9 7 5 6 7 6 6 5 4 4 6 6 4 6 6 4 2 1 1 1 1
5 3 3 4 8 10 12 12 12 12 11 11 10 9 8 7 7 7 6 7 8 10 10 9 7 7 8 8 8 6 5 5 6 5 4 6 6 5 3 2 2 1 1
8 0 7 1 6 9 11 11 12 13 13 13 11 10 9 8 8 9 9 9 9 11 11 11 9 8 9 10 10 8 7 7 7 5 6 8 8 7 5 3 3 2 2
11 7 4 7 5 8 11 13 13 14 14 13 12 11 11 11 11 11 11 11 11 12 13 13 12 10 10 12 12 10 9 8 10 7 8 9 8 8 6 4 4 3 3
12 11 9 8 10 10 9 12 14 15 14 14 13 13 13 12 14 14 14 13 13 13 14 15 14 13 12 14 15 14 12 11 11 11 10 12 12 10 8 6 5 5 4
14 14 13 12 12 15 14 14 13 15 16 16 16 15 15 15 15 15 15 16 14 15 14 16 15 15 15 15 17 18 15 13 13 12 11 13 13 13 11 9 7 7 6
17 17 16 16 16 16 18 16 16 14 16 17 16 16 16 16 15 11 9 10 12 15 17 17 18 17 18 18 20 21 19 16 15 14 13 14 16 14 13 11 9 8 8
19 20 19 18 17 18 18 21 20 15 15 16 16 15 14 11 12 12 16 17 16 17 19 20 20 22 22 20 20 21 21 21 19 14 18 18 17 15 15 12 11 10 10
19 20 21 20 20 19 20 20 23 22 18 19 20 20 20 19 21 21 19 17 14 15 14 20 22 23 24 22 20 21 20 20 23 17 20 20 20 17 17 15 13 12 12
20 21 19 21 21 21 19 22 22 24 21 18 21 20 20 19 19 19 21 21 15 14 16 18 19 18 20 20 18 19 23 24 21 20 22 21 20 19 18 18 16 17 15
20 21 20 20 21 24 22 23 24 23 24 22 17 18 20 19 19 19 19 18 19 15 15 17 20 21 24 24 23 24 26 28 25 22 23 25 24 23 20 21 19 19 19
20 22 22 23 22 21 23 23 25 25 25 26 24 18 18 18 18 18 20 19 19 18 19 22 20 22 23 25 27 28 29 31 33 30 26 27 28 26 24 22 23 22 22
18 20 22 22 23 23 26 22 24 28 23 30 29 28 22 19 20 19 21 23 24 24 23 22 22 28 29 28 31 33 32 31 32 32 34 32 29 30 29 26 26 25 25
17 19 18 21 24 23 28 25 23 25 24 25 29 29 24 21 20 22 23 23 22 24 26 26 26 27 29 32 35 38 37 37 36 35 38 36 35 36 36 32 29 28 28
20 21 22 21 18 23 23 24 24 22 25 27 28 27 26 25 27 24 24 24 25 25 24 25 29 29 30 32 34 37 39 41 40 40 40 43 41 35 35 34 32 29 30
21 24 25 25 21 17 21 22 24 24 25 24 22 23 25 26 25 21 21 22 22 24 26 28 29 32 36 33 30 35 39 41 42 43 41 42 42 43 43 40 37 36 33
19 20 22 24 22 19 17 20 22 21 21 22 24 21 23 24 24 22 21 23 24 26 30 32 35 37 37 36 35 30 27 31 38 40 41 43 45 46 46 45 46 42 36
19 18 21 21 22 20 20 19 19 24 22 23 23 20 16 15 15 17 20 21 25 25 31 34 37 38 42 40 38 34 18 20 24 32 37 40 45 46 50 52 53 49 44
17 15 14 20 19 17 14 17 18 17 19 17 14 16 12 12 12 17 22 24 26 27 32 37 38 42 44 45 42 42 43 41 22 22 27 33 38 42 48 48 54 55 48
14 11 11 11 10 8 7 9 10 14 13 10 12 14 11 13 14 14 13 16 20 21 24 32 40 45 43 44 44 43 41 44 43 43 31 25 29 38 40 40 45 47 49
12 9 5 7 6 9 8 7 7 3 7 8 15 12 11 8 11 11 9 10 13 16 22 21 29 36 39 41 42 44 44 38 32 35 36 33 35 33 40 40 41 40 37

GFSSE_850_spd_111.txt.gz
Wind_Speed
4 2 1 3 6 7 7 6 5 4 5 5 4 3 3 3 4 4 5 5 6 6 8 10 10 9 9 9 7 7 10 9 8 7 6 6 6 7 8 9 7 9 9
6 2 3 2 5 6 7 6 4 4 4 4 2 2 0 1 2 1 2 4 5 6 7 7 6 7 8 6 5 10 7 6 7 5 4 4 5 6 6 6 6 4 3
3 0 3 3 5 7 8 7 6 4 4 4 3 1 1 2 2 1 1 2 4 5 5 5 7 6 3 2 4 6 4 5 6 5 4 4 1 3 3 2 2 2 2
2 3 3 2 4 6 7 7 6 6 5 4 3 3 3 3 3 3 2 2 3 3 8 6 5 5 3 1 3 4 3 4 7 6 2 3 4 2 2 2 3 4 4
1 3 3 4 5 6 7 7 7 7 7 7 6 5 5 4 5 4 4 4 6 5 7 7 4 6 6 4 4 4 3 4 8 6 1 3 5 1 2 2 2 2 2
2 2 5 4 5 6 9 9 8 9 8 8 8 7 7 7 6 4 4 5 6 7 9 7 4 4 5 4 5 5 5 6 8 7 4 6 4 3 3 2 2 2 2
8 2 4 4 3 6 9 11 11 11 11 11 10 10 9 8 7 7 5 6 6 9 9 10 7 5 6 6 7 6 6 8 8 7 6 7 6 4 4 4 3 3 3
8 3 5 6 5 5 6 10 11 12 13 12 11 10 10 9 9 9 9 8 8 9 10 10 9 8 8 9 8 8 8 8 9 8 8 7 7 6 6 6 5 4 3
10 7 3 8 11 8 9 9 11 12 13 14 13 12 12 12 12 11 11 11 10 10 12 12 12 11 10 10 11 11 10 9 11 10 10 10 9 8 7 7 6 5 5
10 10 8 6 8 10 12 10 12 13 14 14 14 14 14 15 14 14 14 13 13 13 13 15 14 13 13 12 12 13 13 12 12 13 12 10 11 10 9 8 7 7 7
12 12 12 10 8 10 14 15 14 13 15 16 17 16 16 17 16 16 16 15 15 15 15 15 16 16 15 14 14 16 16 15 14 15 15 12 16 13 12 10 10 9 8
17 15 16 16 14 12 11 17 18 18 17 16 16 18 18 18 17 16 15 13 10 13 16 17 17 18 18 18 17 18 20 18 17 17 18 15 14 15 14 12 12 11 10
18 17 16 17 17 18 17 14 19 19 20 19 17 20 21 20 18 15 16 16 16 17 15 17 20 21 21 21 20 20 20 21 19 19 20 18 17 17 17 15 14 13 12
18 17 17 17 18 17 18 19 17 19 23 23 21 22 21 20 19 18 18 19 18 20 19 16 20 21 20 21 21 21 20 20 19 20 22 22 20 20 19 18 16 15 14
16 19 18 17 18 21 22 20 22 20 21 25 24 22 23 25 23 22 21 24 19 20 19 17 15 17 19 17 15 18 21 21 21 20 20 24 23 24 21 20 20 18 17
10 13 14 15 17 19 20 22 23 25 23 23 28 25 21 20 23 23 22 23 24 18 17 17 17 17 18 20 20 21 22 22 23 24 24 25 24 25 26 24 23 22 21
14 16 16 16 16 17 19 23 24 24 27 25 27 28 21 22 22 22 22 21 23 24 23 19 17 19 20 21 24 25 25 26 30 31 30 30 29 30 30 29 27 26 25
19 19 18 20 22 22 21 20 24 23 26 29 24 30 27 24 24 24 22 22 22 22 22 21 20 20 22 26 27 26 28 31 32 31 35 32 32 33 33 33 32 29 29
19 20 20 22 24 25 24 23 21 23 25 27 26 25 34 29 26 23 26 27 23 22 22 23 23 23 24 25 26 29 32 35 38 38 37 38 38 40 39 37 35 32 30
18 16 19 20 23 23 24 23 24 23 22 26 26 26 29 35 31 30 26 29 24 22 21 21 23 24 26 28 29 32 33 35 37 38 40 39 38 43 43 44 39 40 38
18 16 18 21 24 24 22 21 21 21 19 22 24 24 25 28 36 34 30 27 22 23 22 21 22 24 29 30 32 37 39 37 38 39 39 41 43 43 45 45 46 44 41
19 16 15 19 22 26 21 20 20 20 21 17 20 23 23 25 31 28 26 28 26 24 24 24 24 27 31 32 33 36 35 34 36 39 35 37 41 44 47 46 47 45 45
20 18 16 18 20 24 20 18 17 17 19 19 19 17 18 19 22 19 19 20 20 21 22 24 26 28 31 33 35 33 23 26 27 27 29 32 34 34 41 46 46 50 53
17 16 17 16 16 17 17 13 14 15 14 10 15 14 11 14 9 8 12 14 16 17 18 19 24 27 29 37 39 40 43 47 38 35 34 32 33 34 36 37 43 44 48
17 16 15 14 12 11 12 10 10 8 5 2 3 8 8 8 14 12 16 14 14 12 13 15 15 22 27 31 36 41 44 43 47 44 42 34 34 39 39 41 40 47 46
15 14 12 10 9 9 9 10 8 8 6 3 5 3 3 1 3 5 6 6 7 10 10 11 12 13 19 18 24 31 33 37 37 36 39 43 42 44 42 45 40 42 44

GFSSE_850_spd_114.txt.gz
Wind_Speed
4 2 1 3 5 6 6 5 3 4 4 4 3 3 3 3 3 4 4 5 5 7 8 9 8 8 8 7 6 8 9 7 7 7 5 5 6 7 7 7 8 10 8
5 3 3 3 6 7 6 6 4 4 4 4 2 2 0 2 1 1 1 3 4 7 8 7 7 8 7 5 6 10 6 5 5 5 4 4 5 5 5 7 4 3 1
4 4 4 5 5 5 6 6 5 4 4 4 3 2 1 1 1 2 2 3 4 5 6 6 7 6 4 3 6 6 3 2 3 4 4 4 4 3 3 3 3 4 4
4 3 3 5 4 5 6 7 6 5 5 4 4 3 3 3 2 2 3 4 6 7 8 6 8 6 3 2 5 7 5 3 3 2 4 4 3 2 3 4 5 5 5
2 4 5 6 4 4 5 7 7 7 7 6 6 5 5 5 5 4 4 6 7 5 9 9 8 7 7 5 5 7 6 6 5 3 1 2 1 1 2 3 4 4 4
3 2 4 6 8 6 7 8 8 9 9 9 9 8 7 7 7 7 6 6 7 8 9 9 8 6 6 5 6 7 7 8 8 6 4 2 0 2 2 3 4 3 4
7 1 3 6 6 7 8 10 11 11 10 11 11 10 10 9 9 9 7 6 7 10 10 12 11 7 6 7 7 8 8 9 10 9 7 5 5 5 4 4 5 4 4
6 3 4 6 6 6 9 9 10 12 13 13 13 12 12 12 11 10 10 9 9 10 12 12 13 11 8 8 8 9 10 10 11 11 9 7 6 7 6 6 6 6 5
8 4 2 5 8 10 11 11 11 12 13 14 14 13 14 14 13 13 13 12 12 12 12 14 14 14 11 9 10 11 11 11 13 13 11 10 8 9 8 7 8 7 7
12 11 8 5 6 9 11 9 11 13 15 15 16 17 17 17 16 16 15 15 14 14 15 16 16 16 14 13 12 12 14 13 14 15 14 12 11 10 10 8 9 9 9
12 12 12 12 10 9 12 15 14 14 15 16 19 18 18 19 18 18 18 16 16 16 17 18 18 18 17 16 15 14 15 16 16 17 17 15 14 13 14 12 11 11 11
14 12 12 13 13 13 13 13 17 17 17 17 17 20 21 21 21 20 20 18 18 16 18 19 19 19 20 19 18 17 17 17 19 18 20 19 17 15 17 15 13 14 13
16 14 13 15 15 15 15 15 15 17 20 19 19 20 21 21 22 22 22 23 21 18 17 17 19 22 23 22 21 21 19 18 20 21 20 22 20 18 17 18 16 16 16
13 15 16 15 14 14 17 17 18 19 19 23 22 22 22 22 23 22 22 22 22 20 22 20 20 20 23 23 23 22 21 20 19 21 23 22 24 22 20 21 20 18 19
16 16 17 17 17 18 19 18 18 19 21 21 26 26 26 26 26 25 24 24 22 22 21 23 23 21 20 23 23 22 20 19 18 20 22 19 24 27 25 23 23 22 21
13 16 18 18 18 19 20 20 21 20 20 22 23 27 29 29 27 23 27 27 27 27 24 23 21 22 20 20 21 20 22 21 19 19 21 22 21 26 28 26 26 26 24
14 18 19 17 18 20 22 22 23 24 22 22 23 24 28 32 28 26 22 25 27 26 28 27 22 22 19 18 19 21 22 24 25 25 25 26 26 27 29 30 29 30 28
19 19 19 17 19 20 21 22 24 24 25 24 23 24 23 29 32 27 24 25 25 26 26 26 26 24 20 19 20 21 23 25 26 27 29 31 30 33 32 32 33 34 33
19 17 17 17 17 19 21 22 22 23 24 24 23 24 23 25 29 31 29 25 25 27 26 25 24 23 23 22 21 21 23 26 27 30 33 35 35 33 38 41 39 39 36
18 16 14 15 16 19 22 21 20 20 20 19 21 21 22 21 27 29 32 29 27 29 27 24 24 20 21 21 23 25 27 28 30 32 34 36 37 38 40 41 42 41 41
17 15 13 15 18 22 24 25 24 24 16 12 14 18 19 23 24 27 31 33 33 28 21 23 24 24 23 22 25 28 31 33 35 34 34 36 38 39 42 43 43 44 47
18 17 14 15 17 19 20 19 21 20 14 14 14 16 17 19 20 19 24 26 27 25 26 25 23 21 24 24 24 26 22 31 35 35 35 36 34 33 35 43 47 48 49
17 17 16 15 16 17 20 21 16 14 13 12 14 16 17 15 11 13 10 21 18 14 13 13 17 21 24 24 22 16 14 15 29 32 31 29 29 30 30 32 36 43 49
14 14 13 13 12 13 17 19 17 15 14 9 7 6 8 8 8 9 10 12 14 12 18 14 13 15 16 19 22 21 23 33 34 40 34 32 32 34 35 37 35 35 36
13 14 13 12 11 11 13 15 12 12 10 7 5 2 3 8 7 17 11 11 7 7 5 9 10 9 10 12 14 18 25 28 32 38 42 34 35 39 41 42 43 42 39
10 11 9 9 10 11 11 13 13 11 11 12 11 8 5 4 4 12 10 10 9 7 7 7 11 12 14 14 15 14 14 16 17 20 24 28 33 40 44 43 45 45 45

GFSSE_850_spd_117.txt.gz
Wind_Speed
2 3 3 3 3 3 5 4 3 4 4 4 3 1 1 0 1 1 1 1 2 4 5 6 5 6 7 6 6 8 6 6 6 5 5 4 5 6 6 7 8 8 6
2 5 4 5 4 4 5 5 3 3 3 4 2 2 2 3 1 1 1 1 2 4 5 4 4 5 5 4 6 6 4 4 3 3 3 4 5 5 6 6 4 2 1
1 3 3 7 5 4 5 5 5 3 4 4 4 2 1 1 2 3 3 3 3 4 5 5 5 4 2 3 7 5 3 2 3 3 3 4 5 4 3 3 4 5 4
2 2 4 7 4 4 4 6 6 5 5 5 5 4 4 4 4 4 4 4 5 5 6 5 7 5 2 2 5 6 5 4 3 2 2 3 4 4 4 5 5 6 6
1 4 4 5 6 5 4 5 6 6 7 7 7 6 6 5 5 5 5 6 7 8 10 11 8 7 7 6 5 8 7 6 5 3 3 3 2 2 3 4 4 5 5
2 1 3 4 4 8 8 7 7 8 8 9 9 8 7 7 7 7 7 6 7 8 7 9 10 8 8 7 6 8 8 8 7 5 4 3 2 2 3 4 4 4 4
5 2 2 4 5 5 7 10 10 10 10 11 12 11 10 10 9 10 9 8 7 8 9 11 11 10 8 8 7 8 10 10 10 8 7 5 5 4 6 5 5 5 5
6 3 2 6 6 6 7 8 9 12 13 14 14 13 13 13 12 12 11 11 10 10 11 13 14 15 12 9 9 9 10 12 13 11 9 8 7 5 7 7 7 7 7
11 7 5 6 8 10 10 12 11 11 12 13 15 15 15 15 15 14 14 14 13 13 13 14 15 15 15 12 10 11 12 13 14 14 13 11 9 9 9 9 8 9 8
13 12 9 9 8 9 12 13 13 12 13 13 15 17 18 18 18 18 17 16 16 15 15 15 16 17 17 16 14 12 13 15 16 16 15 13 12 11 11 10 10 10 11
11 10 9 10 10 11 11 14 16 15 15 15 14 16 19 20 20 20 20 18 18 18 18 18 18 18 19 19 18 16 15 17 18 17 18 16 15 14 13 13 12 12 13
11 11 12 12 12 13 12 13 14 16 19 18 18 17 17 20 22 23 22 22 21 21 22 21 21 20 20 21 20 19 19 18 19 19 20 20 19 17 15 17 15 14 15
12 13 15 16 16 17 16 16 16 17 17 20 22 21 21 20 20 21 24 24 24 24 24 22 20 22 23 23 22 22 21 20 20 19 22 22 22 21 19 17 19 17 17
13 15 15 15 16 16 17 18 19 19 20 21 21 25 25 24 23 23 23 24 25 24 24 24 23 21 22 22 23 24 23 22 22 20 19 22 23 24 23 21 21 21 18
13 14 16 17 17 17 17 18 18 18 20 21 22 23 26 28 28 28 27 27 25 25 24 23 25 25 25 24 21 24 24 23 23 22 20 20 22 25 26 26 24 25 23
15 17 19 18 18 18 19 19 20 21 22 22 22 24 26 27 29 31 30 30 29 29 28 25 26 27 27 25 22 21 21 21 21 22 21 19 21 23 23 26 28 28 27
18 21 22 21 20 20 21 22 22 22 23 24 24 24 25 26 28 28 32 32 30 27 28 28 29 29 27 24 22 21 20 21 21 21 21 23 21 22 25 26 27 28 30
19 20 20 19 19 19 20 20 21 21 22 23 24 24 23 23 24 28 29 31 30 26 25 28 30 31 31 26 22 19 20 21 22 22 23 24 24 25 26 27 30 33 31
20 20 20 18 16 17 18 19 17 18 19 20 21 22 23 22 22 23 26 27 25 29 25 26 26 24 25 24 24 23 23 24 24 24 25 26 27 29 31 32 32 33 39
19 19 17 13 13 14 16 17 16 15 14 13 15 15 19 20 20 21 24 24 28 25 30 30 28 25 25 24 25 27 28 27 27 28 29 29 30 31 32 35 35 36 38
17 15 13 10 13 14 15 19 20 21 15 12 12 13 14 15 18 22 20 19 22 25 26 28 28 28 28 28 26 26 28 29 30 30 30 29 29 30 31 32 36 38 41
14 14 11 11 13 14 16 20 20 18 12 10 12 14 13 15 17 14 14 15 14 16 16 10 21 13 19 17 15 17 18 24 24 14 18 27 31 30 31 31 31 34 39
11 14 13 12 11 12 16 17 16 12 15 12 13 13 11 12 10 10 11 10 10 9 10 12 15 15 15 17 11 9 7 7 24 31 30 32 31 35 36 35 37 35 34
10 12 10 9 9 10 12 15 15 16 15 14 12 10 9 5 9 10 10 11 8 9 14 19 13 12 18 23 18 8 11 18 15 23 25 29 31 32 34 36 39 38 38
9 8 7 8 8 9 10 11 12 12 12 12 11 10 10 10 10 10 7 7 5 4 4 3 9 12 10 14 17 21 19 17 9 15 24 25 32 30 29 31 36 38 39
5 5 7 8 9 10 11 11 12 12 11 10 11 11 12 12 12 13 13 13 10 8 8 8 5 7 8 10 11 14 14 12 16 17 21 28 29 30 29 29 37 40 40